GFSWCAN_sfc_wetblb_093.txt.gz
Wetbulb
40.54 41.79 42.88 43.86 44.35 44.77 45.77 46.13 46.21 46.59 47.10 47.26 46.82 46.39 46.65 46.74 46.65 43.53 40.88 42.61 37.86 32.69 35.09 39.14 39.29 35.69 35.09 34.59 30.84 34.74 33.93 35.55 33.83 27.53 26.10 25.63 24.35 30.87 31.77 34.21 32.62 29.70 29.17 26.66 26.93 26.38 23.20 41.09 41.16 36.30 37.98 41.69 40.58 40.89
40.43 42.18 43.09 43.70 44.25 44.87 45.45 45.75 45.95 46.39 46.82 47.16 46.82 46.25 46.57 46.69 46.44 45.20 39.79 43.10 42.86 36.63 35.99 39.91 40.08 41.37 41.21 41.42 38.85 37.34 36.51 35.75 34.69 29.84 30.06 30.29 26.17 28.82 32.25 25.95 37.66 29.27 33.32 28.71 30.88 30.08 39.61 41.84 40.34 42.82 42.25 39.05 39.14 39.93
41.26 42.47 43.01 43.73 44.14 45.01 45.26 45.28 45.93 46.51 46.69 46.83 47.05 46.55 46.37 46.62 46.39 44.80 39.81 42.56 40.58 35.17 34.56 34.15 34.45 40.06 43.45 44.95 46.37 35.86 36.69 39.82 38.31 39.28 34.54 33.33 27.52 33.77 27.27 29.27 32.56 38.04 40.64 36.13 34.00 39.04 40.57 41.13 41.93 42.11 41.88 40.77 40.41 40.92
41.49 42.65 43.24 43.72 44.52 45.03 44.98 45.24 46.24 46.49 46.46 46.80 46.78 46.78 46.27 46.39 46.33 45.39 40.57 43.00 40.75 36.86 27.97 31.23 42.38 38.99 43.21 44.33 46.23 44.33 42.16 43.02 41.57 39.37 34.10 32.14 32.43 38.28 33.97 35.94 32.81 37.48 38.29 38.05 37.40 39.47 39.21 38.49 38.70 39.29 39.74 41.29 40.71 40.63
41.88 42.76 43.32 44.24 44.62 44.53 45.12 45.67 45.64 45.96 46.09 46.41 46.94 46.87 46.67 46.64 46.46 44.93 43.27 43.05 42.89 35.59 29.27 32.10 39.00 41.77 44.11 42.62 42.51 43.72 42.36 40.29 37.14 33.96 32.97 33.03 37.29 36.95 37.65 36.64 32.87 36.77 33.54 32.82 31.03 34.53 37.46 35.79 37.43 38.89 37.67 37.25 39.45 38.03
42.32 43.05 44.03 44.26 44.92 45.39 44.79 45.14 45.28 45.37 45.47 45.84 46.28 47.12 46.98 46.57 45.98 42.97 33.81 42.79 44.16 41.67 35.17 29.77 40.13 40.18 42.38 42.51 41.51 40.45 41.56 39.76 39.40 37.40 34.11 38.40 40.92 38.35 33.37 30.68 32.88 34.81 36.36 35.28 32.46 36.72 37.08 38.10 37.60 37.48 36.79 36.89 37.88 36.04
42.68 43.67 44.08 44.76 44.76 44.68 44.81 44.76 45.05 45.90 45.74 45.89 46.07 46.82 46.92 46.51 44.41 37.12 36.12 40.44 44.84 43.89 36.41 30.04 32.72 39.74 42.65 41.77 39.74 39.17 40.69 40.27 40.32 37.34 35.44 37.36 37.47 38.78 33.00 29.04 31.01 32.40 33.90 33.62 34.25 35.96 35.19 36.26 33.80 35.09 35.04 36.31 36.26 34.36
43.16 43.56 44.04 43.88 44.87 44.89 44.58 44.88 46.20 46.40 46.35 46.19 46.18 46.75 46.80 46.64 43.96 39.68 43.44 45.20 44.39 40.62 38.47 30.46 31.37 36.24 41.48 36.69 36.88 40.12 38.91 39.84 38.34 36.53 37.70 36.86 38.22 37.24 26.84 28.29 29.16 30.01 31.87 30.59 31.31 34.71 34.56 35.93 35.53 32.97 32.63 33.07 31.53 29.39
43.02 43.65 43.81 43.84 44.67 44.26 43.78 45.99 46.51 46.62 46.35 46.28 46.51 46.58 41.37 40.43 36.57 40.15 45.63 45.43 44.78 40.26 31.45 29.05 26.69 30.22 40.24 36.58 37.80 38.58 38.86 31.58 37.29 32.23 34.36 36.20 31.21 23.48 26.74 27.16 27.20 27.32 26.84 27.07 29.84 30.15 30.55 30.31 30.75 31.13 29.48 28.27 27.40 26.37
43.34 42.92 43.07 43.61 43.78 43.07 44.31 45.30 45.96 46.42 46.44 44.81 42.23 36.69 32.00 39.63 45.63 44.73 40.51 34.94 37.36 37.25 36.83 32.71 35.96 32.35 38.13 35.79 34.31 34.26 35.02 32.48 30.38 32.49 37.70 28.01 22.77 28.27 28.44 27.96 27.47 27.03 26.98 27.21 24.62 23.92 25.34 25.79 27.39 27.21 25.99 25.85 25.28 23.92
42.22 42.09 42.29 41.86 43.32 42.56 44.21 44.41 45.17 45.69 45.91 41.87 37.03 34.34 42.12 45.44 40.71 36.78 31.37 31.66 32.46 29.96 31.51 33.32 35.20 32.33 36.94 32.32 31.35 32.70 31.72 31.99 25.02 29.82 31.33 27.46 22.78 25.91 27.75 25.91 26.07 26.14 26.37 25.51 25.60 24.99 24.42 24.72 25.23 24.26 22.60 22.50 21.94 21.22
41.47 41.56 41.74 42.66 43.59 42.44 44.21 44.47 44.85 44.15 41.84 41.00 39.96 41.74 41.77 38.24 35.26 31.16 27.12 29.73 28.09 26.46 32.21 28.89 32.05 35.94 34.70 37.79 33.19 33.04 30.52 31.03 24.31 34.44 29.91 18.54 21.93 24.13 25.01 23.89 23.40 23.93 23.88 23.06 22.95 21.45 20.66 21.12 22.23 21.12 20.46 20.14 19.92 20.11
40.85 40.96 41.30 42.53 42.18 42.24 43.87 44.92 44.89 44.14 44.35 42.46 37.97 33.62 33.52 29.70 25.84 22.82 22.77 24.63 27.93 31.32 32.92 33.13 32.29 33.77 33.43 33.96 32.29 32.69 28.15 27.58 29.49 25.50 17.24 18.02 21.85 22.75 22.73 23.19 21.93 22.55 22.43 21.26 19.90 19.97 19.06 18.33 18.30 18.55 15.86 16.20 15.49 15.31
41.03 40.38 40.02 40.66 41.19 41.60 41.92 42.05 42.84 41.54 38.06 31.55 27.37 15.79 21.28 23.06 22.40 23.05 24.94 26.29 28.01 29.41 30.09 32.11 32.32 31.68 32.69 30.32 31.40 27.61 28.65 27.84 24.41 18.02 11.76 18.86 20.63 21.44 21.99 22.61 20.86 19.79 20.16 19.29 16.92 15.20 16.23 16.36 15.23 15.53 15.35 14.60 14.08 13.44
40.94 39.94 39.58 38.67 40.24 40.72 41.44 41.33 40.76 37.07 31.65 26.15 26.04 19.70 19.81 23.99 26.23 25.67 28.65 28.66 28.47 30.02 30.18 31.35 32.36 32.88 28.91 24.74 29.32 26.08 22.87 16.31 16.80 11.60 16.55 19.66 20.64 20.50 19.48 21.12 19.55 18.58 15.67 15.26 12.01 13.66 12.24 13.29 13.69 13.67 14.01 13.92 13.48 12.84
42.88 40.75 36.47 38.76 39.22 41.20 41.50 40.19 37.87 35.90 30.71 25.94 23.96 23.36 24.83 23.85 21.44 21.46 22.42 22.55 29.11 28.57 30.25 30.43 29.69 25.35 22.92 24.12 20.39 14.38 19.63 11.86 14.37 18.42 19.38 18.54 17.54 18.24 16.51 18.70 17.28 18.64 14.72 14.53 14.79 14.56 13.46 11.50 12.15 12.44 13.07 13.48 14.08 13.21
42.39 38.06 39.25 38.88 41.26 41.25 41.66 35.89 32.21 28.67 27.07 24.81 21.66 24.74 25.35 24.25 21.79 22.21 25.26 25.67 29.96 28.78 27.51 28.41 23.87 23.18 27.19 21.04 16.58 19.06 14.13 16.41 17.34 18.43 19.58 18.88 17.28 16.19 18.61 18.52 16.48 15.96 15.18 16.66 17.18 17.77 16.40 15.86 15.12 14.14 12.26 13.00 13.83 13.88
41.02 37.50 39.95 39.55 39.90 39.65 36.50 34.61 28.94 26.17 21.96 24.02 20.17 22.29 24.06 24.73 24.34 24.80 26.87 27.42 28.01 28.42 27.41 23.31 25.67 18.13 15.52 15.00 13.48 17.34 16.87 18.90 20.12 19.26 16.91 16.66 17.87 17.92 18.20 15.90 14.77 13.67 13.02 12.88 13.64 12.34 13.25 13.16 13.13 13.10 13.57 14.13 13.74 13.12
39.98 37.44 39.26 39.83 38.10 35.35 29.61 29.74 29.32 22.65 23.55 25.20 25.79 26.34 25.29 25.29 26.43 25.39 25.14 26.17 25.58 24.99 24.20 19.76 13.69 13.25 14.53 18.50 16.32 17.92 18.76 17.38 16.75 17.90 17.60 15.30 16.11 17.96 18.95 19.80 20.24 19.74 20.10 19.01 18.03 17.66 18.98 18.82 18.05 17.78 17.38 16.21 13.20 13.23
41.15 40.32 40.37 40.99 39.71 32.44 28.48 28.04 31.76 25.34 22.54 23.18 25.38 23.86 24.16 24.14 24.19 22.76 21.87 23.33 22.56 20.78 15.86 13.93 13.34 14.78 16.95 19.63 20.79 20.20 20.37 20.61 19.37 17.17 16.29 19.43 21.87 22.10 21.26 20.04 18.72 18.37 18.82 18.65 18.69 17.79 16.97 16.45 16.82 16.96 17.16 16.14 13.51 11.85
39.69 37.72 39.55 39.26 34.90 33.67 30.03 27.55 26.06 25.84 26.31 24.49 26.45 25.71 22.31 22.20 19.09 17.72 17.46 20.98 17.40 16.40 13.62 15.69 15.82 16.94 16.04 18.22 19.28 19.63 19.67 20.81 22.18 18.15 17.53 18.96 18.56 20.06 20.15 22.20 23.24 21.79 18.41 16.72 16.74 16.22 15.72 15.47 16.43 15.96 13.34 10.86 10.62 10.89
36.93 39.65 36.78 36.78 30.49 30.37 28.64 30.36 27.28 28.23 26.05 25.96 25.78 26.46 22.06 15.16 14.67 16.60 19.64 14.79 14.47 14.48 16.76 17.72 15.05 13.01 15.91 15.74 16.37 17.26 16.72 19.51 20.72 20.02 20.68 21.35 18.90 17.58 19.49 17.86 17.77 16.48 16.82 16.65 17.12 15.30 15.64 16.11 14.88 13.81 11.34 10.26 11.00 9.98
38.95 38.05 32.73 31.39 24.82 23.40 23.95 31.37 25.67 27.67 21.93 22.35 24.70 20.78 18.03 16.07 20.93 22.38 12.26 16.56 16.80 17.29 16.09 15.69 13.73 15.42 15.24 15.66 19.29 18.81 18.60 19.84 18.96 17.90 18.30 18.29 18.36 18.07 17.16 16.96 19.38 16.02 15.08 15.55 15.99 13.68 12.35 12.84 13.00 10.74 10.25 8.40 6.41 3.47
35.03 27.20 23.47 22.82 23.64 20.53 24.37 21.24 26.66 25.12 23.17 21.10 18.60 14.12 15.22 17.16 20.68 13.27 10.76 14.59 16.87 18.98 18.86 17.98 18.66 17.41 18.06 17.74 13.59 14.17 19.55 17.62 15.84 16.19 19.04 16.34 13.98 13.82 15.98 15.89 16.29 15.86 15.79 16.46 15.41 13.01 11.17 6.87 11.06 11.96 10.43 9.22 6.91 6.82
18.05 15.70 19.29 15.56 23.55 17.17 14.49 15.55 18.12 20.15 13.48 16.20 12.52 11.32 13.23 21.16 10.35 7.54 8.61 15.12 17.31 16.20 17.58 18.91 20.32 18.47 13.66 9.95 10.90 11.83 16.86 18.26 15.52 12.06 14.24 17.92 15.70 12.08 11.96 11.93 11.23 12.03 16.19 12.07 8.86 4.50 4.41 3.13 2.07 2.96 4.67 1.32 6.47 3.15
9.60 12.64 15.78 17.54 17.22 17.75 18.95 13.52 13.76 13.00 11.95 7.98 9.69 16.16 17.37 10.39 5.11 6.06 14.26 13.69 11.99 18.47 17.20 17.38 16.81 14.42 14.09 16.78 13.55 11.61 11.87 15.24 17.51 12.03 11.69 13.47 12.63 10.09 10.85 10.86 7.97 6.40 10.86 9.91 5.02 0.42 -0.11 0.25 -1.94 -1.85 -3.12 -1.83 -0.81 -2.03
8.56 9.99 19.91 24.39 24.43 23.53 17.14 18.30 20.73 15.03 9.54 7.04 10.93 9.99 7.85 -0.19 -0.45 9.81 17.38 17.21 14.13 12.76 15.50 16.43 18.15 16.53 13.71 13.14 13.98 13.28 12.43 12.00 11.04 12.11 12.99 12.80 12.17 11.53 6.47 3.32 2.25 6.28 8.16 7.51 9.16 6.61 0.21 -3.15 -4.02 -1.15 -0.81 -5.95 -5.90 -2.36
16.20 17.76 8.76 14.72 14.35 18.72 9.84 10.09 8.30 6.62 8.50 16.35 12.61 2.42 1.14 2.14 6.75 14.17 15.13 16.03 14.89 17.06 16.40 16.08 16.09 15.95 14.90 14.50 13.74 11.54 8.66 7.89 7.11 8.61 9.89 9.38 7.85 3.32 1.82 0.75 0.84 8.52 -0.90 -1.05 0.57 3.45 5.76 2.22 -2.16 -2.86 -1.16 0.29 -0.01 -6.57
13.03 16.47 12.89 4.00 8.80 10.36 10.31 7.80 6.82 12.16 15.24 14.94 5.02 4.05 6.48 14.98 12.98 14.98 13.32 14.37 15.11 14.63 11.47 9.53 7.24 7.32 9.52 9.68 8.80 8.66 6.78 4.54 3.69 -2.60 -2.96 4.97 0.62 0.83 0.41 0.19 -0.69 7.14 3.20 -1.64 6.82 0.87 0.07 -3.72 -4.69 -1.72 -3.02 0.57 1.35 -0.65
11.93 18.72 9.14 4.29 2.06 5.99 12.61 12.55 8.09 9.47 13.71 12.54 13.70 14.41 13.99 14.45 14.77 13.93 14.26 17.04 17.99 15.65 10.02 10.56 15.04 11.62 9.00 9.75 3.52 -0.29 1.22 -3.18 -3.53 -1.90 -0.29 -0.99 -0.68 -0.36 1.83 4.26 2.83 -2.63 0.08 6.76 0.74 -1.86 4.56 -2.31 -0.45 -5.12 -4.15 -4.95 -4.73 -0.04
20.01 16.16 9.48 8.72 6.83 12.66 15.94 17.50 17.44 16.37 13.31 11.91 10.77 7.85 7.90 7.57 10.32 14.58 15.34 11.48 8.67 6.53 6.43 4.18 6.95 8.19 3.46 2.57 3.81 2.36 -3.89 -3.36 -5.01 -3.12 -1.90 -2.10 3.50 -2.18 -5.05 -5.02 -4.90 -3.28 0.46 -2.54 -4.58 -1.32 -3.01 -7.24 -3.64 -1.41 -5.37 -5.15 -6.79 -8.30
14.74 8.46 5.38 2.91 8.58 15.05 17.94 16.69 11.15 9.53 9.02 6.53 4.44 5.79 6.23 4.61 1.89 5.00 8.00 12.25 8.13 9.85 7.74 13.92 7.68 0.64 -0.66 -1.40 -3.18 -1.78 -0.86 -1.37 -1.90 -5.16 -3.93 1.25 -4.26 -4.62 -3.80 -2.52 -1.73 0.41 -5.67 -6.73 -3.65 -6.11 -5.34 -8.04 -9.56 -9.15 -9.56 -10.08 -10.12 -11.40
12.29 11.50 9.86 7.47 6.53 7.13 13.24 10.22 10.40 9.21 8.56 6.73 7.89 8.48 6.89 4.89 2.60 5.99 7.53 8.87 13.47 13.82 8.79 6.31 1.23 -0.04 0.08 2.46 0.29 -1.49 -4.31 -8.25 -5.89 1.73 -1.72 -2.81 -6.61 -3.71 -1.74 -4.82 -3.20 -6.10 -6.21 -7.12 -6.21 -7.42 -7.21 -7.48 -9.42 -9.61 -11.37 -12.99 -13.33 -14.65

GFSWCAN_sfc_wetblb_096.txt.gz
Wetbulb
40.60 40.99 40.61 40.72 42.14 42.60 43.36 44.28 45.22 46.18 46.32 46.54 47.05 47.28 46.64 46.87 46.88 43.95 40.71 42.50 37.18 32.90 34.19 37.02 36.64 32.92 33.28 32.94 29.20 32.68 31.83 33.16 33.79 30.31 27.30 25.05 22.83 28.27 29.91 33.35 32.18 29.37 27.38 26.40 27.43 24.57 22.57 40.17 40.08 33.71 36.68 40.43 40.02 39.72
40.40 40.90 39.93 41.24 42.39 43.11 43.57 44.55 45.14 45.95 45.95 46.27 46.91 47.08 46.98 46.73 46.71 44.61 39.21 42.43 43.03 36.67 35.90 38.73 38.61 39.34 38.95 38.58 35.78 37.97 35.03 35.29 35.11 29.86 28.67 28.49 24.83 28.01 31.68 26.79 36.16 29.81 32.68 29.18 30.59 29.15 39.87 40.01 38.59 40.83 40.39 38.03 37.70 37.94
40.16 39.86 39.90 41.63 42.66 43.36 44.08 44.62 45.00 45.58 45.85 46.22 46.89 47.00 46.94 46.75 46.59 44.97 40.81 41.58 39.93 35.92 35.05 34.99 33.41 38.69 41.74 41.05 43.05 32.98 36.60 38.43 37.61 38.49 34.35 31.44 26.17 31.63 27.79 30.58 33.12 37.72 39.95 33.89 34.56 38.39 38.73 38.98 39.79 39.69 40.07 38.11 38.22 37.53
39.69 39.66 40.10 41.73 42.79 43.52 44.02 44.83 45.15 45.39 45.72 46.37 46.80 46.95 46.87 46.76 46.46 45.07 40.56 42.57 40.08 36.74 30.68 28.99 39.37 36.61 41.03 40.86 43.28 42.60 39.55 42.35 41.50 40.55 33.88 29.49 28.36 35.57 32.07 35.47 33.91 35.74 36.58 34.84 35.57 35.95 36.43 35.69 36.77 37.61 37.09 38.30 37.45 35.80
39.26 39.65 41.17 42.37 43.00 43.49 44.63 44.67 44.88 45.48 46.02 46.36 46.48 46.91 47.21 46.87 46.21 44.57 42.37 42.74 42.25 36.45 28.70 31.18 37.30 40.02 41.34 39.94 40.28 42.87 41.86 39.98 38.87 35.45 28.56 28.78 34.28 34.39 34.49 35.81 31.42 35.56 32.72 30.30 28.61 33.49 36.00 33.76 35.26 36.96 35.10 35.80 35.00 34.12
38.92 40.23 41.70 42.75 43.19 44.40 44.68 45.13 45.09 45.34 45.54 45.93 46.41 46.68 46.96 46.84 45.67 41.93 35.30 41.81 43.32 40.64 35.34 24.95 36.50 37.21 39.06 40.22 40.46 40.87 41.00 40.15 40.01 34.98 30.87 34.76 39.27 36.22 31.80 29.46 32.21 33.19 33.94 35.04 31.68 34.31 35.28 35.21 34.99 34.61 34.56 32.77 31.57 30.04
39.38 40.91 42.29 43.08 44.27 44.47 44.98 44.92 44.92 45.06 45.12 45.70 45.97 46.39 46.84 46.50 42.90 36.90 34.50 39.02 43.80 42.82 35.23 29.18 27.98 36.05 40.26 40.30 38.32 38.11 39.62 36.97 38.92 36.92 33.79 36.02 36.94 37.56 32.18 26.41 29.15 31.64 32.68 33.23 33.06 34.98 33.82 33.14 29.91 31.77 32.84 32.51 31.67 28.66
40.25 41.40 42.76 43.78 44.00 44.16 44.52 44.49 44.53 45.11 45.66 45.77 46.21 46.27 46.55 46.21 43.59 39.44 43.02 44.93 43.86 39.87 38.18 29.10 29.52 33.79 40.94 35.18 36.28 40.94 37.49 37.99 38.51 35.94 37.55 36.04 37.69 35.54 23.90 27.39 28.60 29.59 31.56 29.54 30.31 31.78 32.04 32.95 31.56 29.50 30.42 30.46 27.85 25.80
41.06 42.04 43.55 43.63 44.46 44.69 43.98 45.42 46.22 46.64 46.55 46.39 46.25 46.43 42.47 38.23 35.68 39.43 45.41 45.02 44.17 39.65 30.75 30.63 25.91 27.93 38.21 36.89 38.51 38.11 38.28 31.79 36.40 33.34 33.76 36.02 28.26 21.25 25.59 25.96 25.72 26.66 26.23 25.60 28.24 28.39 28.90 28.44 29.26 28.23 27.17 26.37 24.95 23.87
41.36 43.16 42.89 42.60 42.66 43.41 44.46 45.71 46.03 46.42 46.43 45.57 41.84 35.54 31.86 38.98 45.33 44.70 38.20 34.70 35.31 37.59 37.41 31.46 34.70 30.53 35.96 35.20 33.70 33.79 34.37 32.13 29.54 32.75 35.58 26.73 22.81 26.47 26.36 25.98 25.77 25.79 25.05 25.39 23.87 23.12 23.92 24.52 25.78 23.75 22.84 22.99 23.02 22.00
42.75 42.42 42.09 42.44 42.75 43.13 44.30 45.12 45.47 45.22 44.83 40.94 36.19 34.38 41.69 44.65 39.49 34.61 30.31 31.17 32.27 28.99 29.84 31.44 34.43 32.71 37.20 31.63 31.97 32.62 31.41 31.77 26.62 29.24 31.29 24.34 21.00 23.28 24.49 23.65 24.73 24.86 24.30 22.98 22.69 21.83 22.34 23.34 23.22 22.27 20.91 20.69 20.48 20.62
41.63 41.76 41.88 42.88 43.03 42.58 43.67 44.61 45.07 43.18 41.44 40.43 40.46 42.28 41.43 36.60 33.61 30.65 28.01 30.26 26.43 25.36 31.73 27.05 31.73 35.37 34.98 36.10 32.93 33.37 27.32 30.14 21.68 33.20 26.26 15.06 20.39 24.02 22.65 22.15 22.65 22.78 22.02 20.76 20.77 18.98 19.42 21.04 21.08 20.50 19.82 19.32 19.05 18.64
40.95 40.98 41.90 42.31 42.76 44.33 44.72 44.72 44.42 44.25 44.14 41.04 36.67 32.89 32.40 29.11 24.60 18.52 23.85 26.86 27.16 29.69 32.48 33.25 32.15 30.94 32.81 34.15 32.00 31.83 27.53 24.83 32.29 21.77 15.57 16.37 20.90 21.99 21.67 21.10 20.90 21.54 20.45 19.37 18.49 18.52 17.68 16.59 16.21 15.94 13.95 14.16 13.34 12.02
40.83 40.86 41.45 41.90 42.99 44.54 44.62 44.59 44.37 42.13 37.69 31.40 25.85 14.07 18.27 19.25 17.26 19.04 23.21 22.91 25.63 28.70 29.86 32.15 31.77 30.49 32.28 29.72 30.14 26.96 28.50 29.07 22.78 14.97 8.30 16.84 19.43 20.77 21.08 20.78 19.13 17.72 17.73 16.14 13.13 12.81 13.02 12.79 11.75 12.57 12.06 12.07 11.07 10.58
40.36 40.03 39.80 40.17 41.54 42.00 41.79 41.25 39.95 34.81 29.73 25.15 24.07 15.49 16.74 20.96 21.67 22.40 26.02 26.03 28.19 29.92 30.03 32.10 31.86 31.65 26.65 20.74 26.24 27.43 20.69 13.93 14.20 8.51 12.85 17.90 19.28 19.45 19.36 19.47 18.12 16.54 10.86 11.06 8.01 9.89 8.01 8.58 11.10 11.15 12.38 11.94 11.50 10.30
41.30 39.91 35.70 39.02 40.18 41.78 40.77 39.17 36.56 33.81 28.24 24.40 21.87 21.07 23.26 17.59 16.65 18.49 20.93 20.96 28.08 27.70 29.00 30.04 22.49 19.78 16.78 16.79 14.90 10.80 15.53 7.64 8.50 12.17 16.42 17.85 14.15 14.97 15.70 17.67 14.34 12.04 11.16 10.46 10.43 11.35 10.60 9.37 9.89 10.83 12.07 12.42 11.58 10.65
42.29 34.53 38.97 39.63 41.42 41.59 40.52 34.54 31.72 28.52 26.09 22.20 18.52 22.40 22.91 20.73 18.79 17.70 20.45 22.80 27.54 26.80 23.53 25.84 18.40 18.18 24.05 14.80 12.03 15.55 8.35 10.36 15.24 16.76 16.32 14.36 15.86 15.92 14.40 14.50 14.53 14.97 12.85 11.91 11.77 12.17 12.70 14.08 13.18 12.92 10.54 11.37 12.41 11.76
35.39 35.64 39.56 39.52 40.14 38.35 35.42 32.61 28.02 25.14 21.54 22.05 17.55 21.26 20.78 21.84 18.65 21.56 23.80 25.25 26.69 26.42 25.22 21.29 23.43 15.75 9.19 11.09 8.69 12.37 14.91 17.70 18.19 17.00 15.49 15.43 14.09 12.13 15.49 12.59 12.10 13.48 12.19 10.80 11.26 9.40 10.62 10.91 10.73 9.65 10.17 11.16 12.05 12.03
36.07 37.34 39.46 40.55 38.51 33.84 29.62 28.70 28.68 21.87 22.19 23.48 23.17 23.35 24.11 21.88 22.62 22.56 23.62 24.61 25.28 25.57 24.14 20.50 15.16 13.42 13.48 16.41 14.30 13.76 10.59 12.29 15.21 14.73 14.40 14.43 17.16 17.70 17.82 18.19 17.98 17.08 16.19 14.57 15.68 15.86 15.14 15.24 14.68 15.11 14.27 13.29 10.76 10.97
40.13 39.70 40.11 40.43 39.23 30.57 27.48 26.44 29.50 24.06 20.63 23.03 23.94 21.76 23.05 21.26 21.55 20.23 20.67 22.18 21.31 19.51 14.70 11.83 11.42 13.12 15.41 16.80 17.12 17.57 13.61 17.72 17.53 14.65 13.76 15.98 15.57 15.34 13.46 15.18 15.76 16.43 17.96 17.62 16.98 17.09 16.31 15.76 16.08 16.39 16.05 14.80 12.24 10.91
37.88 36.68 39.38 36.77 32.50 30.96 27.63 26.02 24.91 25.23 25.22 23.53 24.24 24.25 18.76 20.25 17.58 17.03 17.16 20.10 15.66 14.52 12.10 13.86 13.49 16.04 16.45 16.63 16.82 18.85 17.38 18.04 13.68 13.61 12.48 15.34 16.56 18.87 20.08 18.71 18.24 18.53 16.08 14.61 14.50 15.16 15.06 14.54 14.88 14.12 11.63 7.77 8.65 11.02
34.14 39.63 32.76 33.50 28.63 28.64 26.95 28.05 25.80 26.16 25.87 25.64 25.63 25.15 16.49 12.10 12.77 15.04 18.53 13.18 12.84 12.49 12.18 11.41 7.32 8.79 16.43 14.97 10.81 11.70 18.37 20.06 19.39 18.93 19.16 18.13 15.28 14.96 15.98 15.47 16.82 14.90 14.89 13.86 15.15 12.93 14.10 14.39 13.47 11.76 7.83 3.20 8.10 9.17
36.68 34.83 29.47 28.09 22.15 20.51 22.56 29.64 24.59 26.02 19.30 21.70 23.09 18.51 14.90 12.50 16.80 20.56 8.88 14.93 14.40 13.16 10.53 10.89 9.79 11.60 14.24 11.06 16.14 15.55 14.40 17.19 16.13 16.79 16.89 15.98 16.58 15.26 15.27 15.94 15.62 13.89 13.03 14.21 15.14 13.50 11.83 13.49 12.34 8.71 7.23 5.75 5.73 1.58
32.07 24.62 20.30 18.10 20.32 13.72 19.45 17.71 25.55 23.86 21.70 19.24 16.65 11.99 12.84 13.81 17.57 9.70 8.33 8.83 11.39 16.44 15.39 12.58 15.72 14.40 15.09 15.29 13.21 13.99 14.27 15.29 15.11 14.44 13.59 14.03 12.82 13.76 15.73 14.71 14.66 14.59 15.90 15.92 14.42 11.15 9.02 5.69 8.99 8.43 2.76 -1.02 -1.38 0.82
17.66 13.89 15.06 9.82 16.67 13.34 10.80 11.02 14.81 16.92 10.05 12.63 8.97 7.76 10.73 17.44 6.30 2.71 3.03 13.39 11.99 9.44 16.16 20.97 19.76 15.07 9.93 4.58 7.92 10.34 14.90 15.25 11.61 10.27 11.09 13.71 10.06 9.83 10.14 10.73 10.46 12.09 13.79 6.04 0.09 -2.31 -4.59 -4.77 -2.47 0.87 0.69 2.21 6.82 3.61
6.59 8.21 11.56 10.35 11.91 15.45 15.13 9.93 8.76 8.87 7.57 4.63 5.74 13.76 11.88 3.92 -0.15 3.86 11.27 7.32 4.66 11.94 7.34 8.05 12.69 13.37 13.59 12.59 9.44 8.76 9.09 12.89 13.58 9.73 9.49 11.31 11.04 6.71 3.94 2.92 0.75 3.46 8.89 2.96 -3.31 -6.42 -5.69 -7.66 -7.58 -4.21 -6.46 -4.59 -4.60 -8.42
3.70 5.03 16.96 23.12 22.76 20.86 13.03 13.50 16.72 10.52 3.80 3.60 5.03 2.60 0.44 -6.59 -6.03 8.37 16.22 13.43 11.54 9.17 12.29 13.59 15.68 13.04 11.25 11.08 11.69 10.89 10.26 10.87 10.07 10.52 10.87 10.34 9.50 8.25 6.43 2.47 0.65 4.52 4.33 1.06 -0.85 -2.17 -4.24 -8.69 -10.42 -9.58 -10.50 -14.38 -10.92 -8.75
11.54 13.64 6.59 7.95 9.66 13.92 3.21 2.64 0.26 -0.03 2.82 13.05 8.46 -2.05 -3.72 -1.02 4.95 11.67 10.74 13.39 13.20 14.85 14.70 14.70 15.01 14.35 12.63 11.10 8.88 5.82 4.53 3.71 5.94 7.39 7.60 6.46 4.41 -1.42 -2.44 -3.34 -1.93 4.30 -6.58 -7.48 -3.49 2.23 -4.23 -8.85 -9.16 -3.67 -3.43 -5.49 -8.32 -13.10
5.58 11.31 10.25 1.37 3.40 4.67 5.14 1.59 1.08 8.42 12.84 9.08 -1.14 -1.13 4.11 12.43 9.05 12.18 12.16 12.53 13.50 13.02 10.78 9.44 1.95 5.68 6.13 5.05 1.75 0.72 -4.05 -2.40 3.38 -2.40 -5.12 -5.48 -8.93 -2.56 -6.39 -8.02 -6.27 -3.85 -6.61 -6.41 2.31 -4.40 -0.33 -2.33 -2.65 -4.43 -5.68 -5.50 -8.57 -12.75
7.26 12.17 3.02 -3.35 -0.91 2.81 8.33 5.12 0.30 -0.65 10.14 9.04 12.89 13.84 12.95 12.07 13.13 6.96 12.03 10.73 9.52 5.18 2.37 3.57 1.98 2.81 -2.25 -2.34 -8.93 -5.68 -8.59 -13.46 -10.74 -4.79 -6.59 -8.57 -3.35 -1.75 -5.85 -8.39 -8.75 -9.47 -7.12 -6.05 -7.58 -6.35 1.18 -6.75 -4.40 -9.48 -9.25 -10.08 -10.02 -10.03
13.97 6.57 1.56 1.61 4.42 7.76 6.84 5.18 8.76 7.01 1.34 1.88 -2.10 1.87 3.08 8.60 10.40 11.54 7.48 9.08 8.52 5.46 5.24 2.10 -0.42 -8.20 2.88 -2.22 -10.38 -12.74 -9.65 -8.94 -12.37 -8.39 -3.87 -4.59 -9.47 -11.47 -11.65 -11.47 -12.56 -11.83 -12.92 -10.56 -8.75 -10.25 -13.00 -14.37 -12.92 -8.02 -5.13 -4.40 -8.20 -12.56
2.01 -3.63 -0.02 2.20 6.53 11.49 8.05 5.53 -0.79 0.57 -4.94 -3.86 -2.77 -5.85 -2.06 -3.18 -3.67 2.00 6.28 3.30 0.65 -0.07 -2.22 -0.55 0.76 -4.58 -10.02 -12.19 -13.10 -11.83 -6.59 -8.93 -13.28 -10.02 -7.66 -11.10 -14.37 -14.01 -11.29 -10.02 -13.28 -13.85 -13.51 -13.28 -13.28 -13.12 -14.27 -16.00 -16.72 -15.09 -14.19 -14.55 -17.63 -18.54
-0.20 -1.19 0.14 1.07 0.68 0.68 3.19 2.23 1.98 2.41 0.00 1.40 4.94 2.55 -2.09 -3.41 -3.54 2.60 6.61 0.86 6.74 4.56 5.12 0.07 -3.72 -1.65 -3.19 -3.74 -5.32 -10.21 -10.38 -11.83 -12.01 -0.41 -5.67 -7.30 -9.65 -8.75 -15.84 -17.81 -16.91 -15.64 -11.65 -14.37 -13.82 -15.09 -13.84 -13.66 -16.72 -17.63 -19.08 -19.63 -21.62 -23.07

GFSWCAN_sfc_wetblb_099.txt.gz
Wetbulb
40.50 40.46 40.56 41.01 41.23 40.87 40.99 42.09 43.10 43.69 44.80 45.46 46.30 46.60 46.84 47.35 46.88 44.11 40.68 41.73 37.27 32.50 32.98 35.35 35.13 30.78 32.20 31.37 26.17 29.53 28.09 29.77 31.19 28.51 26.84 26.07 24.97 27.08 27.94 31.59 30.85 29.15 27.04 26.09 27.33 22.46 21.39 38.80 38.91 31.34 34.75 39.21 38.56 39.03
40.40 39.93 40.21 40.52 41.11 40.26 40.73 41.72 42.81 43.75 44.74 45.44 46.27 46.43 46.96 47.43 46.87 44.93 38.92 42.33 42.18 36.29 35.53 38.83 37.93 38.61 36.93 36.51 33.32 33.42 32.88 33.19 35.31 31.30 29.43 28.87 26.07 24.78 29.58 25.25 35.16 29.92 32.57 27.65 29.42 28.50 37.96 37.99 37.00 38.83 38.79 36.28 37.06 37.07
39.94 40.07 39.87 40.07 40.34 39.93 40.83 41.77 43.33 44.12 44.72 45.38 46.11 46.30 46.87 47.35 47.03 45.16 40.79 41.40 39.93 34.45 33.94 34.36 33.49 38.30 40.33 39.46 40.85 31.11 33.67 38.22 37.94 39.60 34.96 33.18 26.05 30.40 27.11 29.86 32.53 33.75 38.77 35.10 33.72 37.28 35.90 37.27 38.04 37.11 38.25 36.08 35.58 35.33
39.73 39.79 39.58 39.99 39.86 40.19 41.77 42.85 43.45 44.23 44.75 45.54 45.79 46.11 46.68 46.99 47.17 45.08 40.75 41.69 39.52 36.82 26.45 29.18 37.89 35.35 39.63 39.66 39.51 39.62 37.25 39.10 38.54 39.18 35.39 33.41 28.72 35.04 31.37 34.51 33.44 34.08 35.58 33.06 33.69 33.99 35.73 34.03 34.71 35.30 36.67 35.67 33.72 32.81
38.91 38.87 39.27 39.72 39.43 40.98 41.98 42.98 43.62 44.32 45.02 45.54 46.07 46.20 46.73 47.17 46.99 44.39 42.48 42.35 41.51 36.55 27.80 29.46 35.20 37.95 39.32 38.13 37.84 39.17 38.72 36.28 35.07 33.75 31.99 30.18 31.61 33.24 35.32 34.88 29.98 34.05 31.17 29.74 25.64 33.27 34.40 32.64 34.07 35.45 32.00 30.61 30.73 31.41
38.58 38.44 38.62 38.89 40.23 41.56 42.52 43.33 44.03 44.70 45.33 45.71 46.34 46.60 46.55 47.10 46.44 41.71 33.81 41.98 42.81 40.77 34.64 24.91 33.24 35.92 37.27 37.36 36.40 37.61 38.75 38.11 38.52 35.83 31.24 32.16 36.73 34.27 29.50 27.65 31.63 32.75 33.20 32.91 30.81 33.09 34.99 33.86 33.44 33.45 29.95 28.67 28.00 27.19
38.26 38.61 38.72 39.78 41.21 42.38 43.15 44.03 44.47 44.99 45.36 45.53 45.75 46.07 46.48 46.71 42.81 36.61 33.64 38.44 43.86 42.33 34.87 28.38 26.46 34.36 38.09 37.30 36.42 38.51 38.18 37.81 39.11 36.77 33.39 31.52 33.66 37.13 31.16 26.50 28.51 31.93 30.74 31.11 32.16 35.63 31.60 30.74 28.53 31.29 30.46 29.31 28.53 25.69
37.83 38.39 39.23 40.78 41.94 42.82 43.72 44.01 44.25 44.74 45.11 45.45 45.75 45.86 46.28 46.28 43.17 38.78 42.64 44.65 43.75 39.27 37.24 28.32 26.35 30.63 40.13 31.64 31.95 38.41 35.39 37.65 37.61 34.45 36.63 32.67 36.45 33.36 22.37 26.66 26.76 28.14 30.38 28.88 29.51 30.42 31.13 31.38 30.41 28.60 28.77 28.02 24.98 23.83
38.42 39.09 40.06 41.21 42.24 43.59 44.30 44.53 44.73 44.93 45.25 45.71 45.63 45.87 43.54 38.04 35.35 38.15 45.16 44.50 43.89 39.01 30.02 30.59 26.72 24.70 37.71 36.15 36.81 36.71 37.78 31.37 36.10 32.61 33.32 34.21 27.56 20.13 24.98 25.09 24.04 25.11 24.86 25.07 27.69 27.38 28.38 28.36 26.77 26.13 25.20 24.49 23.41 22.79
39.01 39.40 40.90 41.70 43.32 42.98 43.68 45.12 46.28 46.64 46.71 46.21 43.16 35.24 30.13 36.16 45.23 44.10 39.07 34.86 35.20 35.90 36.92 30.90 31.20 29.85 34.42 34.89 33.63 33.56 34.64 30.84 29.08 32.49 32.07 25.48 19.47 24.78 25.15 25.64 25.83 24.76 23.97 24.20 23.88 22.82 22.90 23.70 23.45 22.25 21.13 21.78 21.58 21.37
39.86 41.07 41.86 42.97 42.69 42.64 43.93 44.73 44.47 44.28 43.78 39.94 33.04 32.91 40.96 44.04 38.67 34.01 29.52 30.80 31.91 29.70 31.15 31.28 32.31 32.74 36.51 31.02 31.37 33.69 30.79 31.67 26.85 29.81 30.00 23.09 20.07 22.11 24.10 23.10 24.09 23.65 22.59 21.82 21.57 20.85 21.91 22.41 22.50 21.43 20.22 20.47 19.90 19.29
40.91 42.22 42.71 42.13 42.95 42.99 43.90 44.79 44.57 42.41 41.67 40.98 39.96 42.16 40.38 35.20 32.68 30.20 27.94 30.06 26.98 24.92 27.53 28.53 33.42 35.17 34.63 33.78 32.53 32.43 27.22 30.10 21.09 33.39 23.09 12.47 19.71 22.36 22.07 21.44 21.60 21.72 21.16 19.36 19.50 18.67 19.31 20.51 20.70 20.09 19.39 18.21 17.42 16.81
41.78 41.49 41.73 42.66 43.15 42.93 44.48 44.48 44.40 44.29 43.19 40.24 35.91 31.51 32.19 27.43 21.52 17.33 21.71 25.21 26.45 29.43 32.44 33.62 31.56 30.54 33.15 33.73 31.79 31.41 27.10 24.82 31.31 21.45 13.12 15.15 21.27 21.67 21.10 21.05 20.26 20.32 19.59 18.80 17.66 17.29 16.48 14.85 14.48 14.98 13.13 13.23 12.61 11.26
40.55 40.81 42.87 43.57 42.97 44.42 44.50 44.23 42.48 40.28 36.41 29.94 23.64 12.32 16.82 9.05 13.95 14.15 20.71 18.89 26.47 28.87 30.59 32.49 30.60 30.20 31.72 29.38 29.88 23.72 28.42 29.65 20.37 15.13 8.65 15.91 19.61 20.22 20.26 20.15 17.99 16.31 15.46 13.57 10.68 10.38 10.44 10.59 9.96 10.26 9.59 9.71 9.54 9.16
40.11 39.54 40.37 43.43 44.45 44.11 42.16 40.43 38.67 33.98 29.26 24.55 22.89 14.93 13.86 18.14 19.44 19.81 22.01 24.82 27.51 29.73 30.62 31.37 30.29 28.55 25.03 19.53 22.91 22.23 16.39 11.30 12.92 6.55 7.61 15.19 18.76 19.18 18.15 17.95 15.71 13.25 8.64 8.52 6.54 8.22 7.01 8.16 9.79 9.23 9.90 10.55 10.63 9.42
39.52 40.01 36.57 40.72 41.73 40.60 40.35 38.26 35.39 32.27 27.41 24.03 20.88 17.95 19.92 15.85 15.93 17.37 20.32 22.54 28.00 28.07 29.89 29.87 23.12 16.40 16.46 13.47 13.81 10.34 14.75 6.08 6.00 10.30 15.36 17.77 12.90 14.12 14.63 14.71 11.87 10.05 8.95 8.26 7.48 8.99 8.44 6.56 7.79 8.77 9.50 9.45 7.60 6.96
40.92 34.25 39.81 41.89 41.60 40.89 39.59 33.04 30.25 27.13 23.48 20.19 16.50 20.51 14.98 15.27 13.65 15.70 18.39 23.19 28.22 25.80 19.21 23.10 14.12 13.89 19.45 12.36 10.93 13.36 3.94 4.62 10.47 13.55 13.61 13.07 13.96 13.05 13.44 15.07 13.44 12.71 11.62 10.03 9.30 9.53 7.85 8.46 8.90 10.76 8.12 9.13 11.47 11.26
34.36 38.24 40.66 41.28 40.36 38.11 34.48 30.97 26.53 24.32 19.86 19.21 16.38 17.53 19.66 18.89 16.93 18.89 21.20 23.95 25.13 24.55 23.62 19.88 21.56 12.86 3.36 6.75 5.12 8.52 11.39 15.13 17.46 16.35 15.68 15.10 14.88 13.32 14.52 10.01 8.96 11.11 10.49 8.42 8.88 6.81 6.85 7.32 9.42 9.51 10.09 10.46 10.93 11.28
36.22 37.99 40.52 40.92 38.20 32.98 28.74 27.07 27.09 20.09 21.31 21.67 23.04 22.43 21.17 18.91 21.12 21.86 22.49 23.76 23.53 24.30 22.95 18.59 12.17 10.89 10.84 12.81 10.82 10.66 9.08 10.29 12.11 14.26 15.55 15.90 16.08 15.48 14.10 13.66 13.78 12.26 12.71 10.99 12.15 10.97 9.54 11.05 12.11 13.10 13.03 12.14 9.41 9.34
40.37 40.45 40.33 40.12 38.57 30.27 27.27 26.03 28.79 23.34 19.60 22.10 22.30 19.86 20.22 18.82 20.47 19.11 19.31 21.23 20.59 18.49 14.02 11.68 11.43 12.34 11.79 12.54 9.83 9.54 8.74 12.98 14.41 12.27 10.49 12.08 8.04 9.59 11.20 15.76 16.29 17.12 16.88 16.74 16.37 16.76 16.03 15.14 16.15 16.17 15.39 14.07 12.13 10.11
37.97 37.42 38.31 35.47 31.49 30.03 27.24 26.20 24.66 24.92 24.72 21.53 22.28 21.56 17.65 19.40 16.48 15.00 16.01 19.42 14.65 13.07 10.71 12.20 10.06 14.70 14.71 11.24 11.64 13.98 12.45 14.66 8.72 11.54 9.71 10.55 12.49 15.02 14.16 12.49 16.72 16.36 14.06 12.77 12.54 12.40 14.00 12.99 13.84 13.50 10.85 7.59 6.21 6.32
34.80 38.19 31.32 32.15 28.70 27.74 26.60 27.19 25.61 26.13 25.52 24.46 23.93 23.53 15.64 11.23 9.23 13.50 17.33 11.23 10.93 10.58 8.52 10.41 10.76 11.04 13.09 11.64 11.08 12.52 14.16 18.60 16.42 16.45 15.61 14.85 13.45 13.99 13.12 13.36 14.87 12.24 13.22 12.22 14.48 11.47 12.54 13.85 12.72 10.74 6.75 4.44 8.53 7.84
35.35 33.18 27.90 27.35 21.82 20.52 21.80 29.53 22.63 25.28 18.78 21.09 22.14 17.98 14.23 11.78 15.39 18.93 6.85 13.29 11.06 12.63 11.50 13.89 12.75 10.71 14.36 9.74 14.49 14.08 14.19 16.72 15.26 15.44 15.30 14.49 13.64 13.77 14.61 15.45 15.26 12.64 11.98 13.36 14.88 13.51 12.69 12.60 10.37 6.00 5.43 5.42 3.65 -2.27
30.75 23.06 19.19 17.42 20.10 14.35 18.51 17.49 25.08 22.65 21.38 17.99 15.11 10.25 11.22 10.24 14.90 7.07 4.98 4.45 9.42 15.24 13.81 11.79 14.00 12.56 13.51 13.89 9.93 9.14 9.94 12.91 11.73 10.83 10.07 11.91 11.52 13.21 14.14 14.04 14.23 14.49 15.11 14.95 13.29 7.82 7.79 3.50 3.03 2.96 -0.66 -3.11 -4.08 -3.21
17.86 13.89 14.87 9.58 15.25 11.97 8.04 7.91 11.91 15.62 7.93 10.36 7.61 7.54 9.40 14.10 2.43 -0.65 3.01 6.54 11.95 11.24 13.67 15.04 14.91 12.61 7.71 3.17 7.59 7.67 12.82 13.12 10.90 9.06 9.15 11.58 8.31 8.49 8.76 9.13 8.48 9.87 10.69 1.94 -2.64 -5.52 -6.79 -3.71 2.89 3.38 3.16 0.34 3.22 -0.46
7.10 7.21 10.40 7.78 8.83 11.64 11.18 6.46 5.86 6.42 5.60 3.11 4.27 8.92 5.94 0.84 -3.50 -3.02 8.59 6.22 3.52 7.05 5.70 14.49 9.00 9.99 9.50 10.67 8.02 7.74 8.01 11.54 12.19 8.17 7.93 10.05 9.59 3.61 0.56 0.50 -0.03 2.98 5.38 -3.18 -5.39 -9.51 -8.79 -11.51 -8.62 -5.37 -6.61 -1.60 -1.91 -9.15
3.22 4.54 15.43 20.55 20.35 18.29 9.18 10.76 14.32 7.29 -0.28 0.62 3.62 -1.75 -2.43 -8.79 -6.79 4.27 10.86 9.62 10.75 6.99 10.65 12.83 15.57 12.96 10.21 9.52 10.08 8.93 8.86 9.83 9.03 8.79 8.74 8.13 7.31 6.50 5.65 0.84 1.80 2.66 2.68 -2.47 -3.87 -3.47 -5.64 -10.98 -12.59 -13.50 -12.59 -14.05 -12.59 -9.37
9.26 11.37 6.61 4.43 5.99 10.98 0.67 -0.92 -2.85 -1.65 -0.17 10.53 6.33 -4.66 -3.01 -1.05 1.93 10.54 9.52 8.11 11.15 13.90 13.70 13.29 13.36 12.67 10.90 8.71 6.34 5.86 2.99 2.47 4.82 4.42 4.20 4.75 2.93 -1.64 -4.27 -5.34 -3.55 3.18 -8.61 -10.78 -8.61 -3.56 -7.69 -8.42 -10.98 -11.69 -14.05 -10.46 -11.14 -19.12
4.25 8.13 8.61 -0.76 2.09 4.08 5.27 0.81 0.17 6.70 11.30 6.13 -2.90 -2.99 2.81 10.69 7.33 8.93 7.85 8.98 11.96 12.40 9.17 6.68 1.00 1.78 1.71 0.61 -3.22 -3.72 -5.71 -0.36 -1.58 -6.07 -9.88 -10.78 -12.41 -3.45 -8.43 -11.69 -10.42 -10.60 -12.78 -8.24 1.00 -4.26 1.15 -4.81 -5.89 -4.98 -7.70 -8.79 -6.88 -14.95
5.39 9.74 1.21 -5.36 -3.03 0.98 2.35 3.59 1.15 0.74 7.62 6.86 11.22 12.78 9.87 7.66 8.80 4.22 10.65 7.10 7.04 4.80 1.90 5.58 -0.03 -0.64 -5.39 -4.56 -10.24 -7.92 -13.69 -15.68 -8.24 -2.20 -8.79 -12.41 -6.90 -6.12 -9.15 -12.05 -11.69 -14.41 -13.32 -12.42 -11.51 -8.99 -0.63 -9.54 -6.79 -10.62 -12.26 -12.78 -9.69 -10.96
9.92 3.62 -0.63 0.87 2.05 3.81 4.94 -0.14 0.06 -0.20 -2.75 -1.87 -3.75 -0.59 2.55 5.96 11.44 6.62 2.39 -0.88 0.78 1.35 2.05 -2.62 -9.15 -12.23 -5.06 -9.69 -13.68 -13.69 -10.44 -10.97 -16.04 -13.50 -10.06 -9.15 -13.86 -12.41 -13.14 -14.59 -15.31 -14.59 -14.77 -12.96 -13.50 -15.86 -17.67 -18.40 -19.12 -17.13 -14.59 -14.41 -15.31 -15.13
-2.62 -5.89 -0.87 -0.31 4.02 5.68 3.71 -2.26 -5.16 -4.12 -9.33 -3.38 -3.89 -7.34 -3.23 -2.95 -3.53 2.28 4.10 5.66 3.25 -3.35 -6.79 -0.57 -1.35 -2.62 -9.69 -14.05 -16.23 -15.50 -8.17 -8.09 -12.23 -11.51 -10.60 -13.50 -16.22 -17.49 -16.58 -15.31 -18.94 -17.49 -16.76 -16.95 -16.76 -17.13 -18.22 -18.94 -19.67 -17.49 -16.58 -17.49 -19.67 -20.93
-4.66 -8.08 -7.52 -1.04 -0.28 1.18 0.48 0.11 1.41 1.87 -0.12 -0.27 -0.45 -2.28 -4.08 -3.54 -3.10 2.82 3.71 1.81 4.39 4.14 2.11 -1.86 -8.06 -4.46 -6.29 -7.73 -7.35 -12.78 -14.05 -16.04 -15.31 -2.26 -7.88 -8.24 -12.05 -12.23 -19.30 -21.66 -20.75 -18.40 -13.32 -17.31 -19.67 -18.94 -17.49 -17.31 -20.75 -21.48 -23.11 -22.38 -23.11 -24.74

GFSWCAN_sfc_wetblb_102.txt.gz
Wetbulb
42.42 41.46 41.08 40.95 40.53 40.78 41.43 41.64 40.89 41.41 42.67 43.49 43.96 44.84 45.79 46.16 46.73 45.13 41.36 41.57 37.21 32.57 31.98 34.16 34.15 30.36 30.74 30.84 26.57 29.85 26.95 31.58 30.60 27.65 27.38 26.70 24.25 26.68 27.59 30.47 26.06 27.22 25.82 24.77 26.29 23.64 20.54 36.22 37.04 29.83 33.05 36.21 36.85 36.93
41.59 41.48 41.26 40.73 40.41 40.46 40.89 41.24 40.61 41.10 42.45 43.30 43.84 44.82 45.79 46.15 46.78 45.98 39.01 42.15 41.78 35.65 34.89 38.26 37.23 37.57 36.81 35.54 31.67 32.48 29.88 32.97 31.36 31.81 31.67 30.94 26.87 26.52 26.76 23.00 33.96 28.70 32.14 28.79 28.96 27.89 35.52 35.84 35.32 36.56 36.90 34.31 34.47 33.66
40.98 41.49 41.24 40.33 40.36 40.22 40.56 40.70 40.26 41.01 42.27 43.16 43.80 44.90 45.69 46.11 46.66 45.34 40.38 41.13 39.28 34.29 34.77 34.75 34.02 38.52 40.11 38.93 39.89 31.25 31.12 35.98 35.29 37.71 34.44 33.84 28.82 28.69 23.32 27.56 31.24 34.76 35.28 32.20 33.58 34.68 34.68 35.30 35.96 35.03 34.37 32.38 32.23 32.26
40.89 40.82 40.96 40.18 40.27 40.25 40.31 40.05 40.11 41.15 42.11 43.11 44.28 45.18 45.79 46.13 46.55 46.16 40.49 41.94 39.38 36.25 28.11 28.52 36.66 34.70 38.83 39.08 38.34 38.50 36.01 38.09 38.02 36.89 32.94 32.91 29.17 33.04 28.10 33.18 32.12 33.34 33.65 31.31 32.15 33.84 34.17 33.60 35.56 34.48 32.96 33.12 31.77 30.88
40.72 40.68 40.38 39.96 39.75 39.93 40.18 39.76 40.74 41.33 42.12 43.59 44.33 45.47 45.90 46.27 46.76 44.98 42.49 42.08 41.77 36.42 29.05 29.24 33.76 37.04 38.12 36.93 36.58 37.22 36.05 34.28 32.01 32.67 31.64 31.07 31.36 31.15 32.64 34.00 29.20 33.16 28.91 28.32 26.64 31.34 32.73 31.75 33.58 32.03 29.29 28.28 28.06 28.00
40.14 40.32 39.81 39.11 39.00 39.23 39.30 40.00 40.79 41.90 43.35 43.65 44.52 45.54 46.23 46.23 46.84 41.72 33.53 41.53 42.70 41.47 33.99 25.42 32.01 33.38 36.10 35.97 35.15 35.40 35.55 34.26 36.92 35.22 32.23 33.39 36.27 33.61 29.58 26.85 30.73 32.38 32.05 31.88 29.26 33.16 33.30 33.48 32.58 31.42 28.26 26.83 25.76 24.32
39.94 40.16 39.59 39.01 38.99 39.03 39.65 41.00 42.02 43.05 43.35 44.59 45.44 45.82 45.94 45.87 43.73 37.05 33.34 36.89 43.38 42.16 34.02 28.03 26.13 32.01 36.48 35.23 33.69 35.30 38.33 36.27 36.49 36.64 34.62 33.42 32.33 34.94 29.93 25.60 28.96 30.21 30.15 30.17 31.32 34.20 30.60 29.68 28.29 30.29 28.49 26.85 26.57 23.90
39.67 39.54 39.01 38.89 38.66 39.35 40.60 41.46 42.68 43.02 44.47 44.95 45.70 45.68 45.65 45.83 43.56 38.79 40.00 44.08 43.26 38.38 37.00 26.02 26.68 28.14 40.37 30.33 32.01 38.23 34.59 35.54 35.93 36.00 36.43 33.43 35.52 32.75 24.96 25.85 25.94 26.89 29.02 27.34 28.08 30.28 31.13 30.11 28.74 27.06 27.72 26.45 23.84 22.36
39.28 38.82 38.89 39.06 38.71 40.13 40.91 42.18 42.58 44.00 44.67 44.99 45.20 45.73 44.15 39.48 34.57 38.23 44.89 44.42 43.03 38.27 29.34 29.79 24.87 21.20 38.12 35.15 34.02 33.40 33.49 30.83 35.02 31.62 30.77 33.46 28.49 19.11 23.73 24.68 23.57 23.57 23.32 23.11 26.75 26.20 27.77 25.80 24.63 24.03 23.59 22.99 21.92 21.99
38.32 38.06 38.41 39.16 40.04 40.23 41.50 42.65 43.61 44.33 44.74 45.56 43.46 33.87 29.65 34.41 44.69 43.98 38.61 34.02 35.05 35.69 36.42 30.10 30.75 27.95 33.24 34.24 33.15 33.18 33.55 30.67 28.07 30.01 31.39 26.28 19.52 24.13 24.60 24.28 23.88 22.99 21.99 22.53 23.79 21.58 21.66 22.92 22.28 20.96 20.23 20.98 21.19 20.68
37.82 38.54 39.37 39.23 40.71 41.23 43.23 43.08 44.74 45.54 45.31 38.21 32.06 32.26 39.26 44.22 38.20 33.65 29.78 30.13 31.41 29.49 31.63 31.80 31.57 30.43 36.46 29.98 31.40 33.55 30.70 31.00 25.42 29.71 27.68 21.36 18.18 21.32 23.48 22.33 22.34 22.09 21.29 20.43 20.33 20.57 21.90 21.71 21.33 20.77 19.76 19.57 18.64 17.37
39.08 39.05 39.98 40.91 42.08 42.78 42.84 44.42 44.74 42.78 39.84 37.72 39.88 41.70 39.46 35.34 32.24 29.53 28.04 29.76 27.33 24.96 26.46 29.21 32.10 34.98 34.37 34.10 30.55 31.47 29.53 29.58 24.05 31.61 22.43 12.18 18.56 21.65 21.72 20.77 20.38 20.56 19.74 18.62 19.09 18.01 18.23 18.77 19.23 18.48 17.39 16.34 15.56 14.81
39.27 40.50 41.04 42.23 42.33 43.36 44.36 44.38 44.37 44.20 42.77 39.19 35.91 31.60 32.03 25.53 23.77 21.61 20.95 24.20 24.00 30.12 32.27 32.97 31.47 30.99 32.58 33.64 31.68 30.94 26.41 25.25 30.98 19.33 11.16 14.10 20.13 20.77 20.73 20.16 18.64 19.01 18.56 17.02 15.82 15.79 15.24 13.64 13.42 13.74 11.47 11.97 11.44 9.76
40.70 41.20 41.39 41.94 43.57 44.27 44.42 42.46 41.69 39.89 36.39 29.19 25.64 12.29 20.15 10.44 13.38 13.40 23.86 25.16 26.74 27.95 31.81 31.97 30.15 30.52 31.14 29.29 28.82 25.39 27.52 29.66 20.05 7.30 6.34 15.00 19.06 19.06 19.19 19.01 16.86 14.25 13.80 12.64 10.29 10.09 10.15 9.77 8.47 8.40 7.73 5.58 6.15 6.29
40.11 40.01 43.45 42.66 43.69 41.65 40.52 39.97 37.99 33.42 29.72 24.75 23.58 14.70 11.45 16.91 18.97 19.66 21.48 26.70 27.46 29.67 31.05 31.10 29.03 27.01 23.46 22.59 20.14 20.04 15.52 10.48 12.17 7.51 6.36 15.98 18.86 18.09 16.83 16.22 14.24 11.73 8.23 6.78 4.96 6.51 5.47 6.29 7.48 7.18 7.21 5.23 6.14 5.64
39.59 40.13 41.17 42.23 40.98 41.05 39.84 37.66 34.59 31.16 26.57 22.45 19.33 15.70 18.90 15.47 14.58 19.44 22.01 23.88 27.63 28.41 29.18 26.58 21.00 15.14 16.85 13.49 12.93 8.88 14.63 7.17 5.12 8.78 14.66 16.72 12.03 13.95 12.95 13.15 10.47 8.70 6.53 5.17 4.69 7.11 6.57 5.01 5.81 6.56 7.48 6.03 4.15 4.38
38.20 34.33 41.35 40.58 40.71 40.02 38.45 32.46 29.37 25.55 22.19 20.26 15.89 19.12 12.31 13.87 11.55 15.75 19.15 22.20 27.02 26.99 13.22 19.53 12.35 13.52 17.24 9.39 7.32 10.64 2.18 1.73 7.65 11.80 11.52 12.39 14.77 12.44 12.89 13.73 13.04 12.28 9.50 8.91 8.92 10.00 7.55 7.19 8.09 9.62 7.27 8.11 10.54 9.08
36.43 39.91 40.23 40.29 39.59 36.96 32.81 29.79 26.26 23.87 19.49 19.87 15.52 14.89 15.08 14.35 13.93 16.61 19.36 23.72 24.65 22.37 20.98 16.81 19.87 10.44 0.17 5.24 2.86 5.54 9.29 13.05 15.06 13.16 13.33 13.66 14.43 14.71 15.74 11.89 12.06 12.16 11.69 10.86 11.15 9.66 9.58 7.86 9.13 8.94 9.26 9.13 9.26 9.09
38.53 39.23 40.72 40.77 37.86 31.49 27.41 26.76 27.12 19.28 20.47 20.82 20.57 20.09 18.46 16.87 20.25 20.68 21.88 23.11 22.88 23.03 21.00 17.03 10.09 7.30 6.31 7.19 2.15 2.89 8.09 11.61 12.66 13.07 14.36 12.60 12.26 14.39 12.00 11.98 12.14 10.98 12.11 11.16 12.51 12.24 11.39 12.41 11.90 12.39 12.19 11.24 8.30 8.53
41.28 40.80 40.91 40.64 38.45 29.60 26.21 24.95 27.55 22.60 18.34 19.45 21.28 19.49 19.12 18.22 19.77 18.85 19.09 20.72 19.98 18.24 13.74 11.26 10.81 11.71 13.63 12.04 11.41 12.17 7.69 12.44 13.88 10.22 8.79 9.61 9.43 12.08 11.01 13.95 14.10 13.92 14.54 14.30 14.93 15.05 14.98 14.45 15.04 14.33 13.56 12.33 10.16 7.20
37.58 36.88 37.69 35.16 31.59 30.23 27.31 25.85 23.69 23.86 23.45 19.48 20.44 20.06 16.95 19.93 16.58 15.17 15.31 18.28 12.88 11.21 9.83 11.91 10.12 11.22 10.99 12.48 7.56 11.71 10.49 12.89 7.17 10.68 8.29 9.49 11.22 13.04 14.00 14.91 17.15 15.86 13.95 12.35 12.94 12.47 13.35 12.54 13.58 13.72 9.42 6.56 4.06 3.78
34.56 37.31 31.16 32.26 28.56 27.85 26.36 26.89 24.92 25.57 24.01 22.72 22.75 22.19 14.18 7.89 4.50 8.84 15.89 10.10 9.27 8.52 9.41 9.09 8.54 8.07 11.19 9.10 9.02 9.78 9.00 13.99 12.65 13.74 12.02 11.97 9.49 11.23 10.73 10.93 14.78 10.71 11.92 11.21 13.72 11.83 12.36 13.04 11.31 8.61 2.26 -2.01 2.97 2.09
34.63 32.29 27.60 26.84 20.80 19.82 21.17 29.34 21.24 24.88 18.29 21.53 20.89 15.58 9.83 6.97 13.11 17.38 6.25 11.83 9.86 11.24 9.36 11.97 10.41 9.85 12.03 11.01 14.85 14.41 15.88 16.45 13.82 12.64 12.78 10.58 10.42 10.57 12.32 13.35 12.97 11.16 11.54 12.80 13.77 13.13 11.82 11.76 8.17 3.28 2.30 3.13 1.56 -3.09
29.92 22.30 17.45 17.44 19.84 13.94 16.90 15.71 24.04 21.44 18.64 15.83 13.41 9.19 8.64 8.03 12.75 5.97 3.61 4.16 8.74 15.27 13.08 9.87 12.89 11.99 12.73 12.75 8.96 7.42 7.75 11.60 10.80 9.58 8.75 9.86 9.27 10.58 12.57 12.56 13.01 12.86 12.89 11.47 8.52 3.25 3.57 -0.56 -0.75 -0.12 -6.54 -9.80 -12.52 -12.16
17.97 13.37 14.64 10.54 15.14 11.01 7.10 5.82 10.44 12.98 4.55 7.50 7.08 5.43 6.15 11.98 1.46 -1.33 2.47 3.80 9.19 6.88 9.90 12.28 12.79 11.31 7.02 2.53 5.02 6.78 12.00 12.21 10.26 7.67 7.90 9.87 6.99 7.10 7.49 7.84 7.33 8.70 9.40 -1.16 -4.91 -7.63 -8.89 -5.63 -0.61 -3.18 -5.86 -10.16 -2.24 -5.99
6.98 6.61 10.33 7.44 8.80 11.38 10.38 5.52 2.71 3.06 2.84 0.89 1.76 5.76 3.58 -0.15 -3.82 -4.02 6.50 5.24 1.60 5.20 5.90 6.75 6.10 7.99 8.15 9.46 7.49 7.20 7.32 10.23 11.05 7.42 7.13 8.81 7.34 1.40 -1.49 -0.79 -0.27 2.53 3.49 -4.54 -8.00 -11.07 -10.35 -12.88 -9.44 -2.93 -2.94 -1.52 -0.45 -4.38
3.49 3.77 14.33 18.17 18.00 16.35 8.01 7.87 12.26 6.54 -0.93 0.53 2.68 -3.68 -3.41 -8.02 -6.36 2.91 7.55 7.71 9.97 7.06 12.23 13.93 14.73 12.40 9.63 8.27 8.79 7.74 7.60 8.09 7.77 7.29 7.08 6.10 5.75 5.80 3.19 0.38 1.86 1.63 1.18 -4.91 -7.31 -8.05 -7.12 -12.34 -13.61 -13.25 -11.98 -14.15 -11.80 -7.63
8.15 10.05 6.14 2.80 4.16 9.30 -1.05 -2.78 -1.81 -0.61 -0.56 9.86 4.84 -4.76 -1.96 -0.54 1.37 6.77 8.53 6.22 10.12 13.63 12.15 11.48 12.31 11.50 9.43 6.90 5.33 4.13 1.43 0.92 2.92 2.06 2.38 3.25 1.06 -3.64 -5.99 -6.90 -5.28 1.44 -10.89 -13.25 -13.25 -4.60 -9.66 -10.64 -12.73 -15.60 -15.97 -11.98 -12.88 -19.41
2.93 6.30 7.37 -2.05 0.57 2.71 3.95 0.16 0.87 8.08 10.87 4.17 -4.25 -4.18 1.07 8.93 4.74 6.29 7.84 8.27 12.59 11.65 7.59 4.71 -2.01 -0.78 -0.29 -1.52 -5.45 -4.54 -2.59 -0.21 -3.19 -7.99 -10.89 -12.34 -13.61 -5.18 -11.07 -13.43 -12.70 -13.61 -15.60 -9.44 0.89 -4.18 -5.16 -7.44 -8.53 -7.45 -9.98 -9.82 -10.17 -19.59
3.67 8.46 0.30 -6.54 -4.56 -0.92 0.79 3.11 1.02 0.62 7.13 5.49 8.69 10.36 7.88 5.06 5.80 4.44 7.49 6.16 7.33 3.22 -1.63 2.91 -2.05 -2.26 -4.18 -3.28 -8.89 -5.99 -11.80 -15.42 -9.63 -3.41 -8.17 -10.89 -7.19 -10.20 -14.51 -14.70 -14.33 -16.87 -17.05 -15.06 -13.06 -10.39 -2.73 -11.07 -7.26 -13.43 -13.44 -14.33 -14.33 -16.15
7.27 1.82 -1.78 -0.67 -0.56 1.06 1.69 -2.03 -6.56 -6.36 -7.63 -5.49 -7.99 -1.75 1.94 6.61 11.36 6.79 1.48 -4.91 0.32 0.53 0.56 -4.91 -12.16 -14.88 -6.84 -10.35 -12.54 -11.61 -9.65 -12.52 -19.23 -16.15 -14.53 -15.42 -13.79 -15.24 -15.42 -17.05 -19.41 -20.50 -17.60 -16.69 -17.23 -18.50 -19.05 -20.14 -21.95 -17.60 -13.06 -11.98 -13.43 -14.70
-4.65 -8.53 -2.75 -3.09 1.22 2.86 2.65 -6.90 -9.62 -7.65 -9.98 -4.01 -4.55 -6.72 -2.39 -2.26 -2.37 2.53 -2.19 -2.84 -1.04 -4.00 -7.44 -1.81 -2.81 -3.03 -8.48 -12.74 -14.41 -15.25 -9.57 -7.46 -14.33 -14.33 -11.43 -15.78 -18.14 -20.50 -19.41 -18.14 -22.31 -19.95 -18.32 -18.68 -19.41 -20.14 -20.68 -21.04 -21.22 -19.41 -18.50 -18.14 -20.50 -22.13
-9.88 -10.89 -9.98 -4.73 -2.37 -0.74 -2.05 -1.18 -0.97 -1.13 -4.54 -3.64 -2.92 -5.99 -7.64 -3.00 -1.19 1.90 0.46 0.28 4.26 7.11 3.69 1.76 -8.17 -8.91 -5.02 -7.31 -9.09 -13.79 -13.25 -15.78 -16.15 -2.55 -7.44 -9.08 -13.97 -14.70 -21.59 -24.12 -22.85 -20.50 -16.51 -18.87 -21.77 -21.40 -19.77 -19.05 -22.13 -22.85 -24.49 -23.94 -24.30 -25.76

GFSWCAN_sfc_wetblb_105.txt.gz
Wetbulb
42.13 42.75 42.86 42.34 42.28 41.72 41.05 41.12 41.51 41.60 41.20 41.24 42.52 43.77 44.29 45.22 46.09 44.86 41.20 41.39 37.00 32.65 33.15 35.01 34.62 31.21 31.75 32.27 28.58 31.78 30.33 32.55 32.16 28.64 28.10 28.83 27.41 29.06 28.63 30.99 29.34 28.56 27.11 26.80 27.49 24.08 21.13 36.08 37.60 33.23 35.33 36.82 36.72 36.11
41.42 41.81 41.47 42.44 41.77 41.23 40.81 40.91 41.16 41.53 40.94 40.93 42.30 43.31 43.96 44.94 45.79 46.14 39.35 41.69 42.05 36.04 35.21 38.76 38.06 38.33 36.65 36.28 33.25 33.14 31.80 32.82 33.15 29.41 30.62 32.11 29.13 29.77 28.84 25.55 34.28 28.72 32.35 30.51 30.04 29.72 35.13 36.18 34.84 35.82 37.58 34.71 34.21 34.51
40.20 41.08 41.52 41.36 41.31 41.26 40.44 40.76 40.80 41.29 40.65 40.93 42.03 43.29 43.70 44.89 45.95 45.75 40.68 41.05 39.40 34.31 34.33 35.20 33.82 38.85 40.91 39.80 41.14 32.00 33.88 36.89 35.90 37.81 34.44 31.81 28.39 32.49 27.64 28.96 31.23 34.85 35.93 32.28 32.81 34.00 34.21 34.05 33.97 34.31 34.28 32.59 32.52 32.76
39.34 40.29 40.95 41.43 41.61 41.07 40.59 40.72 40.75 40.98 40.32 40.77 41.97 43.02 44.06 45.06 45.70 45.47 40.60 41.66 39.64 35.96 28.87 30.46 37.60 35.65 39.66 40.25 39.69 39.84 37.96 39.00 39.04 38.37 32.93 30.19 28.03 35.20 31.69 33.03 31.93 32.98 34.27 30.19 31.23 33.05 34.30 33.34 33.87 33.41 32.16 32.31 31.04 29.99
38.71 39.32 40.01 40.84 41.10 40.82 40.67 40.83 40.78 40.40 40.08 40.85 42.10 43.12 44.23 45.13 45.83 45.54 42.86 42.29 41.99 36.43 29.91 30.99 35.13 37.56 38.70 38.25 37.44 38.13 37.20 35.86 34.82 32.37 31.76 29.76 34.34 34.19 34.76 35.04 29.53 31.58 27.71 26.87 26.37 31.07 31.38 30.67 31.59 31.65 29.09 27.87 28.02 28.37
38.02 38.54 39.41 40.44 40.75 40.42 40.06 40.50 40.07 39.88 40.17 41.21 41.93 43.36 44.19 45.33 46.00 40.45 32.89 41.37 42.57 41.55 34.44 26.73 34.43 34.51 36.87 36.76 36.18 35.82 36.27 35.58 35.79 33.61 31.89 34.66 36.43 35.53 30.31 28.89 30.22 32.23 31.47 30.71 29.22 32.34 31.98 31.33 30.94 30.70 28.04 26.33 25.83 25.06
37.77 38.67 39.53 40.28 40.56 39.99 39.48 39.86 39.67 39.92 40.61 41.45 42.57 43.44 44.49 45.48 42.90 36.65 35.15 39.07 43.17 42.26 34.11 27.87 27.99 33.54 37.12 35.51 35.24 35.80 37.17 36.90 36.03 34.50 34.10 34.60 35.00 36.40 30.85 27.62 28.69 29.70 29.64 29.77 31.55 33.41 29.48 30.00 27.94 29.31 27.44 26.59 26.25 24.43
37.48 38.56 39.33 40.02 40.44 39.72 39.70 39.70 39.57 40.43 41.27 42.25 43.10 44.16 45.10 45.84 43.89 38.24 42.11 43.91 43.18 38.35 35.69 26.53 26.44 30.15 38.99 34.04 32.91 38.32 34.03 36.05 36.17 35.54 35.71 33.42 34.99 34.10 27.95 26.56 26.20 27.18 28.65 27.28 28.46 31.46 29.64 29.21 27.88 26.65 27.53 26.76 24.67 23.17
37.27 38.04 39.18 40.02 40.14 39.60 39.69 39.27 40.06 40.88 41.71 42.76 44.13 45.06 43.83 39.36 34.79 38.10 44.60 44.37 43.63 37.73 29.06 28.93 25.01 23.90 38.36 35.54 35.56 35.37 36.23 29.63 35.65 33.06 34.48 34.70 30.39 26.17 24.92 24.85 23.43 23.14 22.82 23.08 26.73 26.98 27.13 25.25 23.98 23.43 23.52 23.76 22.96 22.45
37.36 38.46 39.25 39.64 39.30 38.94 39.56 39.45 40.36 40.71 42.05 43.15 42.77 37.60 30.85 35.06 43.97 43.65 35.92 33.75 34.46 35.98 35.45 29.43 31.53 27.30 33.64 32.89 32.04 32.80 33.52 31.36 29.20 31.62 33.49 30.45 23.19 23.87 23.98 23.61 22.97 22.60 22.10 23.58 24.83 21.89 22.49 23.22 22.32 21.38 20.67 21.02 21.28 20.31
38.11 39.01 39.22 38.90 38.59 38.73 39.52 40.13 40.52 41.70 42.05 39.84 31.98 32.16 38.32 43.47 38.94 34.25 30.08 30.37 29.95 27.59 31.23 31.81 31.62 29.71 36.15 30.77 31.61 34.07 30.05 31.43 25.52 29.85 29.44 24.14 20.58 21.58 23.45 22.01 22.25 21.95 21.35 20.85 21.45 21.81 22.30 21.93 21.70 21.36 19.72 18.97 18.12 17.57
38.79 38.79 38.29 38.38 39.14 39.85 39.89 40.65 41.07 40.49 40.07 36.50 38.72 41.29 39.92 35.91 32.52 29.23 27.45 29.41 27.04 25.35 29.08 29.13 31.01 34.78 35.35 35.50 31.73 31.94 30.33 30.78 25.66 31.32 26.11 18.82 18.67 21.78 21.80 20.73 20.25 20.57 19.80 18.78 19.18 18.18 18.77 19.14 19.27 18.61 17.55 16.29 15.67 14.84
37.75 38.02 38.96 39.55 39.45 40.62 40.98 42.25 43.55 43.02 42.16 41.27 36.62 32.30 32.27 27.84 26.13 22.57 20.07 24.57 24.33 27.14 30.27 32.43 31.59 33.96 34.23 34.63 31.78 31.41 27.98 27.34 31.57 22.24 15.56 16.61 20.05 21.12 20.89 19.99 18.39 18.74 17.82 16.81 16.05 16.10 15.25 13.36 13.32 14.05 12.04 12.16 12.09 10.91
38.81 38.70 39.03 40.34 40.57 41.78 42.92 44.19 44.11 41.24 36.05 30.78 27.88 20.44 24.18 19.77 18.12 18.68 23.04 26.34 27.89 30.07 32.86 33.16 31.05 31.81 31.96 30.45 28.45 26.73 27.09 30.21 21.04 17.25 12.90 17.52 19.07 19.34 19.39 18.81 16.51 13.83 13.28 12.20 11.08 11.53 11.04 10.13 9.39 9.68 9.52 9.66 9.08 8.66
39.45 39.94 40.96 41.37 42.50 42.29 40.86 39.89 38.21 35.10 30.28 25.00 24.42 16.60 13.28 18.30 20.02 21.52 24.91 28.13 28.09 30.31 32.25 31.06 29.22 29.54 25.07 24.83 21.71 24.28 21.22 14.25 14.50 12.96 13.70 18.16 19.15 18.20 16.88 16.07 14.30 12.15 9.70 9.39 10.10 9.18 8.55 9.50 9.38 8.79 9.31 9.77 9.46 8.56
40.47 40.53 41.02 42.37 41.37 40.93 39.98 37.26 34.33 32.00 27.68 22.92 19.23 18.40 20.52 18.37 18.75 21.90 23.25 25.12 27.55 28.89 31.26 29.13 23.35 20.30 17.87 17.05 16.39 11.75 16.14 13.01 11.40 13.60 17.27 17.96 15.82 14.92 14.34 13.64 11.78 11.03 10.29 9.88 10.29 10.34 9.36 8.23 8.79 9.09 9.20 8.32 7.35 7.23
38.95 38.09 41.52 41.44 40.51 38.82 37.78 32.11 29.82 25.58 22.65 19.48 16.28 17.09 14.60 13.23 15.05 19.60 21.35 22.45 27.04 26.75 22.80 23.02 18.30 16.26 18.80 13.36 10.59 11.58 10.46 11.30 13.14 15.57 16.41 16.44 14.64 12.86 12.51 12.89 12.22 12.21 12.01 11.94 11.43 11.36 10.70 11.51 11.75 11.34 9.72 10.77 10.77 9.58
36.85 38.85 40.89 40.52 37.87 35.94 32.61 30.03 26.00 23.67 18.04 18.36 13.43 14.86 14.91 14.40 15.70 18.46 21.25 23.59 25.28 23.31 21.60 17.95 20.15 12.62 8.67 10.35 9.73 11.07 13.86 15.94 16.71 16.20 16.35 16.71 16.54 16.21 15.56 13.55 12.55 13.32 13.11 12.84 12.62 12.47 12.20 12.20 11.70 11.25 11.28 11.76 11.37 11.23
38.83 39.44 41.47 40.37 36.89 30.70 27.28 27.16 27.25 19.23 19.63 19.44 20.09 20.76 19.45 18.39 20.58 20.89 22.25 23.62 23.28 23.79 20.92 17.12 10.91 10.27 10.25 11.12 10.35 10.35 14.16 16.09 15.62 15.67 15.44 14.97 14.31 13.40 12.94 13.16 13.63 14.07 13.93 14.05 14.75 14.31 14.50 14.44 14.08 13.97 13.50 12.68 10.97 11.31
40.80 41.17 39.96 39.76 36.89 28.44 25.41 25.25 28.82 22.57 18.25 19.57 20.94 19.09 18.89 18.02 19.69 19.25 19.27 20.39 19.89 18.50 13.69 11.16 11.13 12.64 15.08 15.28 16.29 17.12 15.96 17.30 16.55 14.33 14.25 14.40 13.85 13.68 15.22 16.42 16.37 16.17 16.04 16.27 16.31 15.29 15.77 15.37 16.05 15.44 14.86 13.90 12.54 10.86
37.43 37.11 37.20 34.32 30.42 29.47 27.30 25.38 23.44 23.14 21.95 19.01 20.35 19.73 17.21 19.02 16.68 15.85 15.73 18.14 14.03 11.99 11.00 12.92 12.64 13.77 15.76 12.49 14.17 16.48 15.41 17.51 15.92 16.43 15.28 15.04 15.44 17.69 16.82 17.94 18.17 18.11 17.04 16.51 16.00 15.61 15.57 14.98 15.49 15.34 14.58 12.35 11.23 11.04
34.31 36.91 31.26 32.38 28.67 28.04 26.20 26.74 24.64 25.07 23.16 21.54 21.97 20.93 15.25 13.10 12.15 14.02 16.24 12.17 11.32 11.73 13.11 13.48 13.10 14.47 14.42 15.27 15.26 15.26 13.65 15.88 15.78 15.34 14.27 15.83 15.81 15.90 15.91 17.10 17.52 15.64 15.89 15.68 16.04 14.69 14.44 14.33 13.70 12.24 10.33 9.44 9.64 10.45
34.37 32.13 28.41 27.81 22.56 22.11 21.31 29.16 21.58 24.11 18.24 20.84 20.59 15.88 12.94 11.94 14.86 17.27 9.74 12.51 13.01 13.28 14.05 13.92 12.60 13.63 13.86 14.94 16.09 16.54 16.01 16.11 14.73 14.44 14.44 14.19 14.59 15.18 16.11 16.04 16.36 15.15 14.18 14.59 16.12 15.15 13.82 11.85 8.91 10.14 9.68 9.81 9.45 7.93
29.25 21.86 17.81 16.24 19.61 16.02 17.55 15.61 23.83 20.46 18.48 15.77 14.35 9.77 9.82 10.92 13.61 8.51 6.71 8.63 12.07 16.42 14.43 13.16 15.00 14.28 15.22 14.58 12.45 12.68 12.99 14.54 13.37 12.57 13.37 14.41 13.26 12.97 14.18 13.91 14.34 14.21 14.57 14.10 12.64 11.47 10.91 9.88 6.25 8.67 6.89 6.01 4.93 6.05
18.48 13.85 14.52 7.94 14.19 11.78 8.18 6.08 9.35 12.90 5.40 7.73 8.89 7.69 8.02 12.81 5.61 2.74 6.50 8.77 12.71 12.76 13.57 14.87 14.68 14.27 11.29 9.17 10.84 11.99 13.59 14.74 13.75 11.62 11.47 13.54 11.44 11.20 10.67 10.36 10.03 10.68 11.62 11.45 9.42 8.62 5.76 6.42 7.23 6.64 5.55 5.95 6.68 5.11
9.43 9.26 11.22 7.87 8.94 11.60 10.60 6.51 3.48 4.52 5.48 2.93 4.43 7.63 6.64 4.62 2.56 2.82 8.24 8.09 8.56 10.09 9.82 11.02 10.76 11.54 11.69 12.67 11.70 12.08 12.29 13.78 13.59 10.76 9.73 11.29 11.26 10.79 9.36 9.04 9.25 9.26 7.67 6.77 7.02 7.20 5.67 3.05 4.91 6.43 6.44 5.36 3.56 5.72
5.16 4.33 14.00 16.56 16.97 15.25 7.87 8.38 12.00 7.03 1.16 2.25 4.89 -0.67 2.10 0.19 -0.29 5.77 9.47 10.55 12.84 11.96 14.54 14.39 15.69 14.61 12.61 10.73 10.45 10.07 10.60 10.75 10.95 9.86 8.77 8.19 7.96 8.68 9.20 8.40 7.81 8.51 6.75 5.59 5.33 6.86 7.20 4.60 3.59 2.90 3.01 1.32 2.60 4.31
8.02 9.85 5.69 3.26 4.39 8.63 -0.08 -0.80 -1.20 -0.01 1.34 9.78 6.06 -1.25 2.28 2.55 4.76 9.76 11.72 9.88 12.27 15.17 13.48 12.47 13.46 13.26 11.81 9.71 8.04 6.67 5.22 5.73 5.24 6.07 7.13 7.07 4.65 3.44 2.14 3.02 3.66 1.89 1.55 1.01 2.84 2.59 3.77 4.36 3.45 1.89 2.24 4.78 2.59 -2.15
3.08 6.41 7.29 -2.51 0.08 2.18 2.24 -0.49 2.18 8.23 10.29 5.37 -0.36 0.44 3.76 8.76 7.26 8.99 10.40 12.27 13.70 13.22 9.64 6.84 2.60 3.86 2.74 1.91 0.52 3.60 6.11 7.08 5.53 0.58 0.68 2.57 2.08 5.51 0.62 0.97 1.70 0.94 1.74 6.32 5.51 3.69 2.38 1.26 1.36 2.53 1.75 2.61 0.72 -4.11
2.85 7.92 0.34 -6.64 -5.20 -1.74 0.15 3.80 4.41 3.84 7.05 6.88 9.46 9.65 8.43 7.61 7.69 7.92 10.78 11.13 11.41 10.23 7.08 7.28 3.02 5.78 3.56 4.36 1.69 1.84 -1.80 -2.19 1.51 4.71 3.25 2.49 3.28 2.66 0.60 2.07 2.16 -0.57 -0.28 3.63 4.08 2.74 2.25 0.99 1.04 -0.34 -0.06 -0.23 0.59 0.61
5.46 2.15 -1.19 -0.41 -2.10 0.76 3.15 0.39 -3.65 -4.44 -4.13 -1.91 -7.00 0.59 4.16 6.91 10.95 8.15 6.26 1.59 3.33 3.61 3.57 1.25 -1.19 0.90 2.01 1.33 2.56 1.65 1.58 -0.40 -7.72 -4.82 -1.96 -1.74 -1.47 0.07 -0.11 -2.10 -3.55 -3.01 -0.16 0.69 0.41 0.06 -0.88 -2.17 -2.46 -1.56 -0.38 -1.06 -3.91 -2.52
-4.00 -8.63 -3.04 -3.55 0.02 0.81 1.58 -4.46 -8.08 -5.20 -6.09 -1.49 -2.16 -7.36 -1.59 1.07 2.39 6.80 0.97 1.61 4.22 4.88 1.72 5.65 5.04 3.20 0.41 0.26 -0.48 -1.04 -3.49 0.04 -4.28 -4.64 -3.01 -2.10 -0.65 -4.09 -4.64 -5.19 -7.58 -4.09 -2.28 -2.83 -2.58 -3.25 -4.73 -3.40 -3.19 -3.01 -2.14 -3.23 -5.18 -6.45
-10.51 -11.53 -9.71 -5.18 -2.10 -1.56 -2.67 -0.06 -0.27 -1.59 -5.00 -5.00 -3.55 -7.00 -5.39 0.24 1.33 5.36 2.96 1.50 6.77 8.65 6.14 6.86 4.30 3.45 1.47 0.46 0.84 -3.59 -3.44 -4.34 -7.54 -0.47 -7.00 -6.63 -9.71 -7.72 -6.81 -6.27 -5.36 -4.15 -3.05 -3.01 -4.28 -4.09 -4.06 -4.51 -5.27 -6.67 -7.90 -8.26 -8.81 -9.55

GFSWCAN_sfc_wetblb_108.txt.gz
Wetbulb
42.02 42.38 43.07 43.28 43.30 43.06 42.72 42.36 41.74 41.79 42.00 42.17 41.84 42.42 43.60 44.44 44.96 44.49 41.70 42.91 39.19 34.51 36.94 38.48 38.36 35.65 36.29 35.53 31.89 35.58 34.50 35.75 35.84 31.03 30.97 31.07 30.47 32.94 31.60 32.82 31.54 30.53 29.43 30.28 30.64 26.63 24.01 37.62 40.40 35.16 36.31 38.55 38.33 37.66
41.09 41.99 42.30 42.59 43.22 42.87 42.51 42.25 41.28 41.30 41.89 41.90 41.24 41.57 42.93 44.09 44.73 45.61 40.47 42.42 42.69 36.09 38.08 41.40 42.25 42.80 41.35 40.40 36.08 36.38 34.76 34.26 36.53 32.91 34.34 33.77 31.60 34.46 32.15 28.98 36.67 30.41 33.62 30.89 32.71 32.30 35.77 36.08 34.56 37.32 39.77 38.66 37.64 37.14
39.80 40.32 41.33 41.85 42.04 42.19 42.22 42.10 41.40 41.25 41.64 41.83 41.29 41.57 42.72 43.91 44.56 45.14 42.16 41.73 39.04 34.00 36.27 36.53 37.15 42.86 44.64 43.51 44.37 34.28 36.43 38.07 38.12 41.19 35.98 34.99 29.60 33.06 29.99 31.85 33.08 36.18 36.72 32.79 33.20 33.14 33.69 34.28 35.93 35.90 36.98 36.53 36.84 37.28
39.03 39.61 40.06 41.13 41.90 41.61 41.75 41.88 41.69 41.71 41.52 41.49 40.93 41.51 42.66 43.73 44.58 45.32 41.70 42.18 39.68 37.04 32.35 35.96 42.20 39.97 43.62 44.38 43.46 42.84 40.89 42.47 41.75 39.84 36.21 33.73 30.65 37.66 34.34 35.13 33.70 34.33 35.46 31.69 32.01 32.94 32.51 31.97 33.24 34.26 33.89 34.85 34.38 33.83
38.66 39.13 39.43 40.22 41.04 41.62 41.72 41.79 41.63 41.55 41.32 41.06 40.78 41.33 42.61 43.69 44.83 45.96 44.27 42.31 42.97 38.06 33.72 36.02 40.75 42.46 43.12 42.81 41.98 42.38 40.99 38.87 36.99 34.17 33.76 31.57 36.00 35.45 37.26 36.57 32.75 33.49 29.48 29.23 29.38 31.51 31.47 30.71 32.14 32.86 31.14 30.64 31.76 32.31
38.32 38.36 38.88 39.61 40.12 40.99 41.39 41.38 41.30 40.95 41.23 40.54 40.44 41.35 42.46 43.68 44.53 41.10 33.85 42.26 43.62 42.17 36.27 31.65 40.22 38.48 40.94 41.66 40.44 39.89 40.27 37.21 36.43 34.78 35.03 36.50 37.65 35.19 32.63 31.23 30.96 32.65 32.37 31.97 30.95 32.41 32.13 31.67 31.93 32.24 29.80 28.37 28.95 29.99
38.01 38.10 38.34 38.80 39.74 40.51 41.18 41.16 40.92 40.49 40.48 40.33 40.60 41.45 42.67 43.88 44.32 37.66 39.13 42.88 43.91 43.02 36.06 30.41 33.72 38.37 40.11 39.99 38.16 36.40 38.02 37.20 36.57 35.06 35.38 35.99 37.00 37.96 33.87 29.31 29.57 30.59 30.96 31.63 33.95 33.91 29.93 31.14 28.09 29.95 29.35 28.39 27.91 27.85
37.53 37.78 38.08 38.41 39.64 40.39 40.80 40.92 39.93 40.08 40.21 40.28 40.90 42.11 43.20 44.18 43.91 39.57 43.57 44.65 43.68 39.03 37.64 29.73 31.62 33.91 40.09 35.41 34.52 38.61 34.45 36.44 37.03 36.32 36.76 35.31 36.10 37.29 30.30 28.73 28.56 29.47 30.20 29.84 31.69 31.96 30.40 29.99 29.29 28.29 29.80 29.45 28.05 27.23
37.73 37.53 37.89 38.60 39.44 40.09 40.70 40.54 39.85 39.63 39.79 40.67 41.58 42.42 42.68 40.71 35.40 38.98 44.70 44.36 45.14 39.46 30.81 30.03 29.79 29.95 40.41 36.40 38.05 36.77 36.30 30.77 39.37 34.08 36.04 35.90 33.44 29.98 27.24 27.52 26.72 26.32 25.72 25.92 28.80 29.88 29.02 27.21 26.16 26.25 27.29 27.91 26.56 25.37
37.58 37.44 37.91 38.78 39.41 40.27 40.59 40.37 40.12 39.64 40.51 41.28 40.60 36.35 32.05 36.20 44.34 43.11 37.33 34.33 34.83 35.77 37.19 30.57 36.35 32.37 37.17 34.39 34.67 35.32 35.91 31.61 28.75 32.59 38.11 33.91 27.32 26.08 26.74 26.91 26.80 25.81 26.07 27.78 26.77 25.59 25.34 25.07 24.79 24.49 23.83 24.52 24.55 23.53
37.20 37.41 37.61 38.24 39.57 40.40 40.19 39.95 39.56 39.66 40.53 37.55 32.59 32.93 41.20 44.14 40.58 35.08 32.05 31.65 33.14 29.48 32.81 34.14 35.12 34.38 39.33 32.77 33.24 35.62 31.32 33.73 27.07 32.39 31.57 30.10 25.97 23.87 25.77 24.92 25.39 25.26 25.37 24.80 25.07 24.59 24.56 24.26 24.04 23.92 22.37 22.01 21.68 21.06
37.27 37.22 37.67 38.96 39.77 40.17 39.79 39.41 39.51 38.96 36.99 37.97 38.77 41.58 40.32 37.12 34.04 31.31 30.41 31.50 28.54 28.70 33.56 30.93 32.42 34.67 37.54 38.56 35.19 34.51 32.40 32.73 26.64 34.78 31.31 26.61 21.65 23.80 24.45 23.50 23.67 23.54 22.92 22.27 22.36 21.12 21.45 21.61 22.31 22.04 20.95 19.68 18.68 17.95
37.21 37.78 38.78 39.63 39.61 39.49 39.07 39.95 40.32 40.13 39.50 39.55 37.69 32.38 32.91 31.99 28.45 27.40 23.88 26.08 27.66 33.34 33.67 33.83 32.60 36.71 36.17 36.55 33.45 32.78 30.24 30.14 34.34 30.27 26.11 21.86 22.75 23.37 23.24 22.93 21.70 22.06 21.34 20.71 19.60 19.13 18.30 16.33 16.61 17.00 15.08 15.90 16.19 14.55
37.55 38.87 39.24 39.10 38.90 39.87 40.12 39.99 40.82 40.24 36.64 31.64 31.16 24.84 29.39 27.37 30.39 31.30 31.50 32.25 34.55 35.42 35.34 36.43 33.98 35.06 35.48 32.35 31.85 27.78 30.37 32.30 27.70 23.62 19.58 21.29 22.14 21.99 22.12 21.56 20.38 17.03 16.34 16.34 15.77 15.22 14.14 13.64 13.14 13.32 13.54 14.30 14.16 13.38
38.41 38.49 38.84 39.43 39.60 39.54 40.13 40.85 41.16 36.80 33.66 28.13 30.37 25.42 24.41 26.50 27.84 28.82 30.89 32.53 32.01 34.30 35.34 33.68 33.93 34.82 29.90 28.78 28.12 28.20 27.00 22.58 21.89 21.57 21.18 21.93 21.90 21.12 20.12 19.12 17.64 15.44 14.12 14.77 15.46 14.08 13.43 13.65 13.44 13.17 13.89 14.82 14.26 13.46
38.83 38.37 37.96 39.65 40.22 40.72 39.35 36.81 34.83 34.02 29.87 26.05 24.03 23.56 25.14 26.90 26.02 28.31 30.82 29.67 30.15 31.98 35.72 36.47 30.25 28.16 24.41 25.82 23.80 19.06 22.63 21.78 19.43 20.56 21.63 21.88 19.69 18.82 17.99 17.14 16.36 15.99 15.93 15.66 15.66 15.23 14.45 13.73 14.03 13.83 13.82 13.38 12.92 13.01
38.94 37.58 41.29 41.38 40.76 39.38 38.10 34.57 31.95 27.06 24.97 22.70 22.41 24.88 25.95 27.96 26.10 24.49 28.26 28.97 30.90 32.29 30.89 31.53 26.44 21.85 26.10 22.98 18.82 21.52 21.20 19.93 20.79 21.29 22.88 21.66 19.37 17.37 16.83 16.25 15.46 16.10 16.09 16.20 15.83 15.76 15.37 15.91 15.91 15.77 14.33 14.48 14.79 14.07
38.47 39.88 39.49 40.35 38.27 36.32 34.40 34.02 29.63 25.62 20.23 23.09 21.71 21.66 23.32 24.91 25.42 25.85 27.44 28.36 31.25 30.05 29.29 23.93 27.60 20.05 21.52 19.91 20.32 19.46 20.16 21.54 22.45 21.95 21.42 20.66 19.96 18.97 19.29 17.89 16.98 17.44 17.09 16.53 16.31 16.39 16.08 16.09 16.38 16.33 15.77 15.56 15.49 15.22
39.45 40.28 40.51 40.12 38.55 34.78 30.37 29.56 30.53 21.81 22.28 23.77 24.23 24.64 24.34 23.78 24.90 26.04 27.26 27.95 29.11 29.90 27.69 25.60 21.83 21.99 20.82 21.37 21.17 21.41 21.36 21.50 19.84 20.08 20.07 20.52 20.05 18.07 17.80 17.57 17.70 18.25 17.53 18.19 18.97 19.62 19.54 18.32 18.71 19.14 18.43 18.30 17.17 16.93
40.48 40.29 39.52 38.90 39.19 33.02 27.68 27.58 32.64 25.36 22.34 23.51 25.33 23.42 23.15 22.90 24.52 25.39 25.60 25.19 25.42 25.02 21.69 20.27 20.55 21.48 22.95 22.17 24.15 23.65 23.58 23.48 21.71 19.22 19.08 20.16 20.84 19.48 20.18 20.80 20.93 20.60 20.29 19.77 20.07 18.54 20.26 20.06 20.71 20.41 19.93 18.43 18.29 16.35
39.16 38.16 38.12 38.19 34.85 33.25 29.54 27.56 25.02 25.35 24.39 22.38 23.91 24.29 21.97 23.74 22.61 22.45 21.78 22.93 21.45 18.71 18.75 20.39 20.25 20.11 21.95 23.56 25.43 25.11 24.06 24.35 23.43 23.30 21.52 19.69 21.58 22.24 21.77 21.93 22.13 22.08 21.77 21.46 21.13 19.69 19.38 19.79 19.73 20.15 20.34 18.16 17.71 17.22
36.95 37.58 35.86 36.28 31.69 30.54 28.89 30.31 26.72 27.50 25.25 24.11 23.99 23.85 21.69 21.07 20.48 20.00 20.95 19.13 17.81 17.80 20.60 20.67 21.34 21.50 21.19 21.55 22.70 24.22 22.50 22.78 22.67 22.10 21.96 21.85 21.72 21.94 21.76 22.34 21.92 21.35 21.62 21.65 21.20 20.47 20.04 20.16 20.16 19.42 17.97 16.58 16.47 16.25
36.28 35.75 33.24 32.16 27.68 27.54 25.42 32.43 26.34 26.13 22.03 22.36 23.27 19.42 18.64 19.07 19.50 21.48 17.10 18.15 18.67 20.42 21.31 20.65 19.69 22.41 20.62 21.17 21.60 21.70 22.36 23.30 23.14 22.88 22.48 22.93 22.67 22.80 22.57 22.00 22.78 21.11 19.84 20.02 20.75 20.02 19.02 15.64 15.57 17.47 16.46 16.69 15.83 14.52
31.78 26.77 24.67 25.13 27.14 22.86 26.87 25.17 27.20 24.13 23.63 21.15 19.11 14.99 15.77 18.23 19.08 18.30 15.10 18.13 19.64 20.44 20.10 19.15 21.02 19.87 20.67 20.91 21.17 21.04 21.47 23.15 21.78 21.49 22.46 21.86 20.41 19.73 20.89 20.36 20.67 20.99 20.79 20.31 19.96 19.16 18.32 17.39 14.24 16.52 15.44 14.73 14.85 13.84
25.75 19.68 22.97 19.74 23.89 22.53 21.15 20.87 20.30 20.57 17.51 18.21 16.33 15.51 16.19 18.44 15.80 15.41 15.61 16.40 18.84 19.88 20.04 21.07 22.09 22.63 21.52 20.13 20.10 19.55 19.90 22.59 21.03 19.25 19.80 21.32 19.70 18.62 18.05 18.34 18.04 18.03 19.80 19.43 17.70 17.54 16.16 16.17 15.69 14.98 14.10 14.22 12.61 11.25
16.89 17.23 19.86 19.56 21.49 21.35 20.91 18.26 18.38 17.66 17.80 16.30 16.04 17.47 18.68 16.47 13.40 15.03 16.40 18.76 19.99 20.19 20.64 21.32 21.38 20.31 20.23 21.25 19.45 19.20 19.20 21.41 21.16 19.01 17.49 19.75 19.85 20.37 18.42 16.84 16.57 16.45 18.03 18.56 18.55 16.90 14.62 14.36 14.20 12.53 12.75 11.32 9.28 11.78
16.82 16.68 19.18 20.29 21.57 20.70 19.59 19.83 19.81 19.96 16.54 15.84 16.57 14.22 15.31 13.36 14.79 15.60 17.16 21.02 19.91 22.17 23.29 23.42 22.84 22.00 20.09 19.23 18.85 18.92 19.12 18.69 18.61 17.70 16.69 16.19 16.29 17.12 19.05 17.66 14.56 16.33 16.42 16.03 16.83 16.17 15.38 13.53 12.91 12.40 12.44 13.42 12.89 12.51
16.39 16.90 16.00 14.78 15.20 16.65 14.35 15.58 15.80 14.95 16.16 17.12 17.49 14.01 13.77 16.05 14.58 17.43 20.22 20.66 23.56 23.32 22.43 22.50 23.12 22.41 21.01 19.72 18.56 17.12 15.36 13.93 13.21 14.13 14.51 14.24 14.12 14.17 12.75 14.14 12.82 9.05 13.26 12.43 15.08 14.54 15.57 14.66 13.21 11.97 11.49 12.18 11.10 11.44
14.30 15.99 15.97 7.43 10.79 11.80 11.25 12.18 13.50 14.62 14.81 17.16 15.88 12.19 11.49 13.64 15.11 17.09 17.58 21.28 22.89 20.95 18.23 16.19 15.19 16.83 15.73 15.77 16.12 16.74 16.01 15.64 13.62 10.16 10.76 12.28 12.26 12.63 13.28 13.54 13.44 13.45 15.04 13.52 10.75 11.94 10.06 12.19 12.14 13.26 9.68 12.93 12.04 10.39
13.03 15.84 11.99 7.97 7.50 9.41 11.25 12.43 13.71 13.73 14.28 15.04 16.12 14.37 14.02 14.91 15.04 16.03 18.22 20.31 20.78 20.63 20.20 18.48 15.96 16.68 13.98 14.25 11.70 10.95 13.02 14.33 15.35 15.53 13.28 12.54 13.81 14.25 12.66 12.33 12.30 12.03 13.75 13.91 12.38 10.67 8.45 10.39 9.27 9.55 9.52 9.24 10.34 9.76
13.52 16.02 11.87 11.88 10.28 12.96 13.22 12.24 12.51 12.73 14.46 14.33 13.22 15.18 13.31 15.17 16.15 16.22 17.58 18.23 18.21 16.75 15.74 13.81 13.89 15.63 14.33 13.16 13.79 11.35 10.52 11.30 8.22 7.50 10.87 12.45 11.99 12.44 11.77 11.08 12.01 12.64 12.88 12.15 11.39 11.32 10.05 9.72 10.17 7.66 7.56 6.59 4.60 6.54
13.26 9.96 11.05 9.06 10.63 13.12 13.92 14.74 14.57 15.07 15.01 15.68 13.58 13.10 12.94 15.55 13.74 14.98 13.07 15.14 15.59 16.13 15.59 14.67 13.31 12.47 15.41 16.04 14.37 13.42 8.72 12.13 8.33 7.53 7.14 10.87 11.79 10.58 9.46 8.85 7.94 10.35 10.07 9.16 9.30 8.42 5.19 4.64 7.90 6.93 7.09 3.64 3.51 2.66
9.66 11.14 10.30 11.49 11.32 10.58 13.08 14.07 12.51 11.85 13.77 13.42 12.93 12.79 13.36 14.45 11.67 15.36 12.07 14.74 17.62 18.16 15.32 16.75 17.51 13.85 11.18 10.80 11.15 9.40 9.08 8.51 7.46 8.13 6.46 6.58 6.03 7.18 8.54 8.73 8.96 8.40 7.21 8.35 8.08 7.45 4.80 1.33 4.03 2.26 1.86 1.10 0.76 0.22

GFSWCAN_sfc_wetblb_111.txt.gz
Wetbulb
42.22 42.85 43.52 44.29 44.53 44.17 44.08 43.93 43.28 42.88 42.44 42.89 42.64 42.56 42.99 43.79 44.63 45.35 43.25 43.93 39.84 36.72 39.65 40.69 41.51 38.32 38.18 37.19 32.63 37.28 36.57 37.28 36.26 31.84 31.93 31.91 31.60 34.18 33.20 34.19 32.02 31.25 30.28 30.56 32.81 28.74 25.60 39.14 39.97 33.32 34.58 38.83 39.10 39.07
41.53 41.83 42.66 43.28 43.81 43.96 43.70 43.52 43.41 43.12 42.82 42.64 42.61 42.08 42.51 43.11 44.13 45.16 41.21 43.22 43.93 37.30 37.54 43.95 44.62 45.37 43.84 41.56 38.41 38.41 35.45 35.20 36.66 34.01 35.54 34.27 31.21 34.82 33.13 28.95 38.21 31.37 34.03 30.22 33.60 30.88 35.59 36.93 35.19 37.19 39.29 38.34 38.70 38.52
41.18 41.56 42.22 42.57 43.10 43.59 43.45 43.42 43.21 42.62 42.14 42.32 42.39 41.85 41.80 42.71 43.90 44.58 43.87 42.47 39.33 34.92 36.04 37.09 39.50 45.29 47.01 46.12 46.85 36.27 38.03 39.12 38.77 41.95 37.79 36.19 31.12 37.41 30.47 32.18 34.71 37.24 39.09 34.49 34.09 31.02 31.80 34.49 35.90 36.95 38.08 38.11 38.75 39.43
40.00 40.51 41.10 41.88 42.26 42.65 42.75 42.70 42.68 42.36 41.76 42.14 42.25 41.80 41.68 42.61 43.74 44.35 43.17 42.80 39.84 37.75 34.17 38.22 46.34 43.34 46.57 46.74 45.83 44.98 42.63 43.05 41.77 41.78 36.41 34.96 30.93 38.57 33.71 35.44 33.62 36.54 37.53 32.91 32.58 32.79 33.67 33.71 34.27 35.67 35.55 36.81 37.23 37.04
38.95 39.63 40.12 40.64 41.57 42.32 42.41 42.27 42.20 42.18 41.75 41.50 41.85 41.34 41.45 42.29 43.71 45.56 46.79 43.98 43.54 39.16 35.12 36.76 43.61 45.10 45.41 44.82 44.04 44.34 41.83 39.77 36.58 35.76 35.83 32.37 37.27 36.70 38.12 37.17 32.75 35.18 30.64 31.23 29.65 31.67 33.60 31.90 33.89 34.86 33.01 33.12 34.58 34.99
38.89 39.05 39.67 40.07 40.49 41.28 42.08 42.30 42.16 42.03 42.03 41.83 41.59 41.06 41.37 42.58 43.46 43.23 36.14 43.69 44.35 43.02 35.53 33.34 42.90 41.04 43.03 43.88 42.68 41.82 40.85 39.16 37.04 35.48 35.04 36.74 39.37 37.20 32.34 33.06 32.00 33.03 33.29 33.39 31.81 33.48 33.36 33.08 33.17 33.30 31.48 30.68 31.58 32.77
38.43 38.74 38.97 39.43 39.94 40.46 41.05 41.85 42.04 41.64 41.49 41.14 41.00 40.93 41.13 42.29 43.66 38.68 37.44 41.78 44.40 43.64 35.94 33.73 34.97 40.49 41.98 42.06 40.32 39.46 39.58 38.03 36.58 34.95 35.00 35.89 37.33 37.16 35.05 31.52 31.34 31.72 32.21 33.48 34.71 34.40 31.04 31.65 30.26 31.92 31.40 31.33 31.39 31.06
38.89 38.48 38.55 38.90 39.32 40.04 40.47 41.26 41.70 41.55 41.30 41.08 40.88 40.83 41.41 42.42 42.66 39.92 44.96 44.79 44.52 38.78 38.96 31.96 33.60 36.76 42.07 35.23 34.45 38.05 35.09 36.96 36.10 35.73 37.98 35.50 39.21 37.49 32.12 31.06 31.78 31.82 31.78 31.85 32.60 32.57 31.19 31.24 30.87 30.63 32.06 31.91 30.75 29.44
38.88 38.85 38.88 38.86 39.04 39.57 40.46 41.30 41.27 40.88 40.45 40.41 40.72 41.09 41.58 39.68 37.33 39.63 45.07 44.94 44.63 39.87 34.53 31.87 30.84 32.13 40.69 39.05 38.57 37.78 38.07 32.58 39.39 34.26 35.82 37.79 35.26 31.33 29.74 30.37 29.66 29.63 29.09 28.53 31.32 31.49 30.38 28.78 28.38 27.97 28.39 29.87 29.51 28.20
39.07 38.96 38.91 38.81 38.90 39.60 40.37 41.26 41.10 40.53 39.99 40.28 40.41 35.91 31.85 37.23 43.90 43.66 38.06 33.78 35.02 36.61 38.18 32.46 38.24 34.57 39.09 37.10 36.45 35.12 35.92 34.19 29.21 34.95 39.65 34.24 30.97 29.37 29.55 29.64 30.07 29.21 29.25 30.99 29.56 28.44 27.71 27.09 26.45 25.59 25.85 26.61 27.09 26.44
38.63 38.63 38.88 38.29 38.56 39.74 40.49 40.93 40.72 40.28 40.04 37.80 33.48 33.63 41.48 44.39 40.35 35.83 32.40 32.81 33.96 31.97 35.91 36.76 37.61 35.41 41.53 34.11 34.37 38.02 34.08 34.38 28.16 33.55 32.11 31.32 27.50 26.29 28.45 27.57 28.58 28.53 28.25 27.87 28.22 27.81 27.65 27.08 26.77 26.06 24.68 24.52 24.23 23.19
38.47 38.28 38.03 38.17 38.43 39.28 40.47 40.95 40.54 39.86 37.89 38.54 39.29 40.13 40.43 37.10 34.57 32.03 30.56 33.20 31.38 30.18 35.95 33.66 34.23 37.39 39.32 41.14 36.58 35.93 31.62 34.50 27.42 37.69 31.30 28.06 24.32 26.55 26.88 26.17 26.39 26.60 25.98 25.13 25.36 23.40 23.57 23.56 24.45 24.11 22.82 20.97 20.29 19.70
38.63 38.59 37.94 38.13 38.76 39.90 40.89 40.71 40.56 40.63 40.32 37.75 35.36 31.66 33.29 33.66 29.86 28.18 26.19 27.95 29.51 35.28 35.84 35.77 33.56 37.57 38.96 39.91 35.56 33.63 29.84 30.18 38.23 31.35 28.39 24.05 24.82 25.91 25.88 26.04 24.75 24.91 24.64 23.40 21.66 21.23 19.84 18.05 19.10 19.03 17.62 18.53 18.43 17.42
38.25 38.04 37.97 38.29 39.22 40.05 40.57 40.38 40.26 39.95 37.17 32.58 30.98 27.57 30.71 28.56 31.59 33.01 33.58 34.78 37.96 38.73 36.42 36.98 36.65 35.55 37.00 33.32 34.36 29.31 33.72 33.56 29.04 26.66 23.92 24.22 24.40 24.12 24.39 24.06 22.83 19.37 19.26 19.12 18.20 17.51 16.79 16.18 15.71 16.70 16.97 17.50 17.12 15.82
37.81 38.24 38.46 38.84 40.11 40.28 40.23 40.30 40.29 36.98 35.05 30.60 31.18 29.12 28.61 31.03 32.61 32.65 34.73 35.12 34.82 38.67 38.82 36.39 36.72 35.89 33.72 31.66 31.42 31.13 28.10 27.42 26.14 24.02 23.85 24.76 24.28 23.36 22.21 21.39 19.50 17.65 17.60 17.99 18.18 16.99 16.32 16.70 16.55 16.10 17.01 17.80 17.12 16.40
37.98 38.11 38.58 40.16 40.09 40.03 40.31 40.21 36.89 35.46 33.17 28.87 27.87 26.44 29.16 30.19 29.25 31.47 32.76 31.22 33.60 36.57 40.09 38.79 33.23 30.87 29.70 30.70 27.74 26.62 26.04 25.69 23.29 23.73 24.16 23.95 22.27 21.58 20.46 19.64 19.14 19.22 19.05 18.66 18.45 18.19 17.52 16.77 16.73 16.80 17.06 16.62 16.19 16.44
38.61 36.66 39.19 40.25 39.98 39.30 38.29 34.73 34.43 29.67 28.31 26.06 26.03 28.97 29.95 33.11 31.57 30.44 33.06 32.07 35.41 35.11 32.65 34.91 29.28 28.00 30.81 27.58 24.83 27.65 24.87 24.31 23.93 24.39 25.43 23.76 21.99 20.11 19.52 18.64 18.46 19.28 19.24 19.16 18.94 18.71 18.37 18.90 19.05 19.27 17.51 17.80 18.02 17.31
36.62 39.11 40.08 39.70 38.60 36.16 35.89 34.68 30.57 27.52 22.63 26.47 26.14 26.55 28.14 30.47 30.15 30.26 31.62 33.51 34.75 34.58 35.18 28.81 33.17 26.67 27.08 25.06 25.49 23.80 23.74 25.51 25.61 23.93 23.17 22.47 22.04 21.54 21.86 20.16 19.78 20.25 19.60 19.14 19.03 19.02 18.88 19.14 19.84 19.29 18.64 18.69 18.72 18.79
39.25 40.30 41.04 40.49 38.66 35.73 30.86 30.83 32.34 24.36 24.74 26.08 27.11 28.70 28.43 28.08 29.41 30.54 31.67 33.94 35.36 35.95 33.46 32.06 27.89 28.26 26.56 27.26 25.29 24.22 23.86 24.04 22.26 22.46 22.39 22.48 22.01 20.58 20.52 20.57 20.48 20.70 19.88 20.47 21.70 21.92 21.53 21.17 21.31 21.47 21.31 21.53 19.88 20.48
40.04 39.96 40.67 38.79 38.32 34.34 29.02 29.08 34.95 28.33 24.96 26.00 28.03 27.10 27.33 27.28 28.48 29.95 30.51 31.49 31.85 32.10 28.02 26.99 26.14 26.04 26.84 26.95 27.92 26.52 26.15 25.53 23.75 21.20 20.69 21.41 22.17 21.50 21.66 22.81 22.68 22.21 22.19 21.58 22.05 20.82 22.56 22.57 23.26 22.57 21.87 20.20 21.17 19.00
38.14 38.37 38.00 38.37 37.66 35.98 32.75 30.57 28.49 28.09 27.48 25.89 27.59 28.12 25.63 28.33 28.12 28.66 28.08 30.65 29.56 27.07 25.04 25.55 23.98 25.44 28.08 28.31 28.01 27.35 26.21 26.66 25.53 25.41 23.02 20.92 23.40 24.34 23.14 23.89 23.74 24.13 24.01 24.00 23.78 21.63 21.50 22.27 21.97 21.75 22.74 20.42 20.54 19.74
38.95 38.20 39.23 39.40 34.35 32.90 31.03 33.43 29.97 30.71 27.85 26.70 27.61 28.74 26.34 26.13 26.22 26.23 27.91 27.07 24.66 23.68 25.97 25.31 24.31 24.62 24.89 25.20 26.34 27.72 27.01 26.84 26.81 26.28 25.32 24.28 22.96 23.30 23.51 24.29 24.37 23.70 24.32 24.41 23.85 23.04 22.67 21.59 21.80 21.74 21.22 19.04 18.71 18.88
37.83 39.06 36.80 34.88 30.35 29.51 26.46 35.12 27.88 28.35 24.28 24.99 27.36 24.20 24.80 25.27 25.20 26.60 23.54 24.57 22.60 24.97 26.50 25.80 26.48 27.21 24.42 24.83 24.80 25.10 25.88 26.46 25.58 24.82 25.05 25.90 25.57 25.57 25.01 24.79 25.30 23.70 22.53 22.55 22.86 23.05 21.75 16.58 18.84 20.48 19.20 19.47 19.05 17.03
34.58 30.39 29.51 29.62 29.44 24.92 29.91 27.04 29.52 26.84 26.29 24.80 23.15 19.14 21.50 23.58 24.18 24.22 22.25 23.79 22.54 23.79 23.38 23.07 24.74 23.96 24.63 24.14 24.40 24.76 25.89 27.05 25.32 24.99 25.52 24.44 22.96 22.70 23.61 22.92 23.52 23.57 23.31 23.27 22.66 21.94 20.98 20.92 16.65 19.13 18.91 18.34 18.10 17.34
29.08 23.70 27.65 23.66 28.62 26.15 24.23 24.36 24.16 24.56 21.47 22.73 20.33 19.87 20.85 23.22 21.69 21.69 21.28 21.32 21.80 23.40 23.34 25.11 25.59 25.52 24.63 25.00 24.39 23.82 25.25 26.37 24.87 23.13 24.41 26.08 23.97 22.92 22.36 22.50 22.58 22.26 23.34 21.74 20.35 20.44 19.83 19.53 18.94 18.69 17.48 17.05 15.10 13.59
21.59 22.07 23.36 24.25 25.47 25.28 25.43 22.47 22.79 22.50 22.75 21.21 20.86 22.90 23.59 22.54 19.22 20.24 22.88 23.63 24.16 23.56 24.69 25.15 25.28 25.40 25.08 25.43 23.69 22.95 23.42 26.28 25.58 22.93 22.53 24.19 24.19 23.44 21.93 19.88 19.44 19.59 21.83 21.83 21.01 19.46 18.45 17.76 17.28 14.02 15.23 13.95 12.03 13.88
21.15 20.81 23.58 25.55 26.59 26.15 24.90 25.36 26.01 25.34 21.65 20.37 21.70 20.43 20.50 17.32 19.66 21.20 25.51 26.73 25.26 27.00 27.34 28.16 28.07 26.59 25.46 25.09 25.55 24.73 24.49 24.43 24.17 22.99 22.39 21.89 21.60 22.08 22.97 21.43 18.64 19.78 20.41 19.71 19.83 18.79 18.25 16.80 16.06 15.33 15.50 17.13 16.28 14.79
21.26 22.36 19.25 20.98 21.96 23.98 20.40 22.46 21.97 20.33 22.28 24.66 23.88 18.97 19.04 21.36 20.73 22.58 26.21 27.94 29.11 28.01 27.72 27.93 28.40 27.80 26.32 24.75 24.16 22.81 21.52 19.73 18.84 19.45 19.30 19.30 19.52 19.25 18.58 19.00 17.11 14.29 17.54 16.90 18.74 18.23 18.14 17.94 16.92 15.36 14.69 15.05 15.18 15.28
20.67 22.21 21.58 12.99 17.22 18.92 18.22 18.71 19.80 20.21 20.17 23.78 23.21 19.50 17.51 18.69 20.14 21.45 24.39 27.07 28.56 27.06 24.51 23.92 24.70 25.96 23.96 23.65 23.75 23.25 21.70 20.88 17.68 13.85 14.17 16.09 15.49 15.74 18.07 17.57 16.75 17.97 18.45 16.04 13.14 15.31 13.68 15.84 15.72 16.29 12.81 15.77 15.60 14.94
18.19 22.05 18.58 14.10 13.75 15.67 17.51 18.32 19.08 19.25 20.24 20.74 21.17 18.86 18.78 18.22 18.90 21.55 25.51 25.31 24.24 23.72 23.99 23.65 22.62 22.29 20.31 19.74 19.19 19.33 22.12 22.08 21.50 19.30 17.08 16.67 17.87 18.23 16.51 15.99 15.73 16.30 18.00 17.40 15.59 13.54 11.06 13.43 12.54 13.17 12.85 12.85 13.16 12.59
20.62 22.57 18.14 18.59 16.22 18.06 17.89 18.78 19.42 19.72 21.21 19.99 21.22 22.05 18.76 17.66 18.66 22.39 24.06 25.58 26.28 25.60 23.38 21.06 21.19 22.57 20.49 19.38 17.82 15.58 15.24 17.50 16.47 16.33 18.57 18.44 17.52 17.06 16.71 16.44 17.13 17.02 17.01 15.74 14.67 14.67 13.26 12.61 13.32 11.55 11.14 10.91 9.44 9.12
20.40 17.19 17.76 14.17 15.85 17.54 19.66 19.96 20.77 20.80 20.56 20.96 18.88 19.89 18.40 20.29 17.13 18.43 21.27 22.91 22.36 22.03 21.36 21.91 20.98 20.54 22.10 22.21 21.60 19.29 18.00 18.54 14.85 14.46 14.48 16.10 16.79 16.11 14.65 14.36 13.77 15.41 14.79 13.60 13.41 12.77 9.74 9.52 11.62 10.70 11.17 9.45 9.03 8.76
18.44 19.03 18.42 17.44 15.94 15.45 18.50 19.07 17.96 16.76 19.37 19.01 18.83 20.50 20.73 21.01 16.15 17.94 19.17 21.52 22.85 23.13 22.24 22.59 22.76 21.24 19.36 17.63 16.92 15.78 15.58 15.66 13.94 14.26 14.41 13.69 12.29 12.77 13.25 13.57 13.75 13.19 11.33 12.09 12.25 11.48 8.21 6.45 7.94 7.00 6.58 5.86 6.18 6.29

GFSWCAN_sfc_wetblb_114.txt.gz
Wetbulb
44.00 44.18 44.40 45.06 45.01 44.34 44.88 44.69 44.25 43.78 43.71 43.19 43.20 42.72 43.20 43.59 44.44 45.04 44.70 46.33 41.11 35.80 38.02 40.65 41.30 37.56 38.26 37.65 33.12 36.98 35.84 36.06 36.19 31.47 31.32 31.08 30.40 32.57 32.04 34.16 32.27 29.94 28.91 27.24 30.04 27.59 24.97 35.93 37.97 31.75 34.81 37.68 38.13 37.35
42.75 43.34 43.65 44.23 44.36 44.37 44.38 44.26 44.09 43.82 43.65 43.45 43.23 42.75 42.99 43.05 43.86 44.32 42.05 45.57 45.40 36.76 37.49 41.87 42.82 44.06 43.30 42.42 38.88 38.61 35.74 35.30 36.60 33.57 34.27 33.69 30.48 33.63 32.33 28.20 37.25 29.77 33.35 29.87 31.53 29.27 33.98 35.18 35.32 37.04 37.80 36.83 37.37 37.47
42.29 42.17 42.24 43.00 43.94 44.14 44.03 44.05 43.96 43.72 43.36 42.86 42.86 42.65 42.29 42.67 43.25 43.81 44.02 43.48 39.75 35.60 36.19 38.24 40.35 45.71 46.76 46.03 46.70 36.23 38.19 39.55 38.48 41.18 36.36 35.05 30.90 35.81 29.72 30.90 32.95 36.32 38.76 33.14 32.87 31.29 31.98 33.28 35.54 36.41 36.84 36.06 37.22 37.91
41.65 41.65 41.28 42.42 42.99 43.57 43.66 43.54 43.47 43.44 43.13 42.46 42.63 42.50 42.06 42.16 42.77 43.70 43.68 44.21 40.29 37.25 33.56 37.67 47.10 43.28 47.04 46.72 45.80 44.84 42.37 43.25 41.98 40.71 35.91 34.32 31.48 37.47 32.41 34.43 33.93 35.49 36.55 32.63 31.20 32.22 33.79 32.03 33.90 35.05 35.67 35.34 36.08 36.56
40.42 41.04 41.62 42.11 42.74 43.27 43.47 43.33 43.35 42.93 42.49 42.05 42.48 42.56 41.84 41.85 42.50 43.64 45.84 44.18 44.93 38.23 33.88 36.13 42.49 45.01 46.00 44.96 43.50 44.15 42.29 39.53 37.44 35.55 34.95 32.19 36.18 36.04 37.28 37.27 31.23 33.81 29.88 29.59 26.91 30.15 32.65 30.78 33.35 34.67 31.68 32.09 32.97 33.57
39.34 39.70 40.19 41.02 41.80 42.27 42.83 43.06 42.82 42.74 42.55 42.14 41.90 41.97 41.52 41.70 42.47 42.71 37.18 45.87 45.52 44.44 35.72 31.97 42.77 42.50 43.69 43.91 42.45 41.78 41.71 40.11 38.37 36.01 35.61 36.96 39.12 36.39 32.39 31.16 31.98 32.47 32.49 33.30 31.20 33.71 32.74 33.21 33.57 33.80 31.52 30.88 31.64 31.72
39.44 39.47 39.68 40.43 40.65 41.31 41.99 42.55 42.50 42.45 42.16 41.50 41.66 41.69 41.25 41.82 42.87 38.00 36.98 40.98 45.07 44.07 35.73 32.95 35.04 41.07 42.95 41.83 41.52 41.21 41.69 39.93 38.35 35.37 34.10 34.85 36.36 37.38 34.01 30.28 31.37 31.48 32.06 32.83 34.26 34.39 31.52 31.29 29.72 33.27 33.78 32.94 32.56 31.99
39.09 39.09 39.32 39.50 40.01 40.96 41.36 41.88 42.09 42.20 41.80 41.46 41.42 41.16 41.00 41.20 41.81 38.54 42.80 44.36 44.89 39.21 37.94 32.17 33.15 36.72 42.20 36.78 34.29 39.01 36.39 37.76 36.76 35.30 36.86 35.21 37.37 37.33 31.59 31.84 32.43 32.41 32.42 32.06 32.32 32.44 31.19 31.64 31.28 30.93 32.44 32.69 31.09 29.20
39.16 39.37 39.61 39.43 39.37 40.13 40.90 41.23 42.00 41.81 41.78 41.61 41.08 40.80 40.90 39.31 36.64 39.47 45.21 45.44 45.46 38.65 33.53 33.68 29.91 30.76 41.17 38.05 37.46 36.87 37.66 31.41 37.87 33.69 34.23 36.23 34.16 30.60 31.23 31.37 30.53 30.71 30.07 30.23 32.21 31.88 30.70 28.84 28.82 28.28 28.22 27.83 27.48 27.15
39.21 39.27 39.27 39.43 39.53 40.05 40.49 40.91 41.63 41.28 41.16 40.90 40.12 36.12 30.86 36.78 44.24 44.53 39.60 33.84 33.76 32.83 37.27 33.26 37.06 33.80 38.88 38.12 35.67 34.97 35.90 32.67 29.96 33.98 38.33 33.87 28.49 29.32 29.82 30.22 30.16 29.86 29.97 31.10 29.52 28.60 27.89 27.54 27.09 25.29 24.46 24.84 25.25 24.19
39.07 39.10 39.33 39.13 38.99 39.05 40.04 41.19 41.64 41.46 40.65 38.23 33.78 32.67 40.65 44.43 40.55 36.60 31.97 31.38 33.42 31.35 35.23 36.14 36.86 35.50 41.39 34.43 32.90 36.29 33.05 34.26 27.79 32.64 32.25 30.69 25.98 26.37 28.58 27.93 28.46 28.59 28.30 27.80 28.29 27.15 27.15 26.83 26.01 25.76 23.74 22.88 22.01 21.32
39.27 39.27 39.07 39.16 38.90 39.05 39.89 41.13 41.54 40.02 38.63 37.76 38.28 40.51 40.18 36.94 33.91 30.89 30.46 32.73 31.30 29.74 36.54 34.92 36.47 38.57 39.76 41.61 36.31 35.19 31.66 32.79 26.65 37.23 31.90 27.07 24.58 27.05 27.06 26.37 26.55 26.49 26.21 24.56 24.51 22.58 22.21 22.18 23.09 22.16 21.24 19.64 19.24 19.18
39.97 39.80 39.47 39.31 39.17 39.41 40.10 41.05 41.04 41.37 41.23 39.01 36.51 32.15 31.22 32.23 27.97 26.65 25.25 28.05 30.17 36.13 37.38 37.39 33.26 37.42 39.12 39.47 35.98 32.87 28.15 28.11 37.11 31.37 26.48 23.24 25.40 26.35 26.30 25.90 24.42 24.88 24.32 22.79 20.95 20.11 18.91 17.62 18.06 18.46 17.30 18.34 18.36 17.25
39.60 39.95 39.53 39.50 39.48 39.65 40.43 41.29 40.73 40.52 38.09 32.03 30.09 26.22 28.96 27.58 30.48 32.24 33.36 34.71 39.73 40.06 38.71 36.32 35.56 36.02 37.93 33.62 34.54 27.18 32.42 33.04 28.04 26.84 22.00 23.64 24.69 24.65 24.82 24.68 21.92 19.45 19.60 18.83 17.86 17.47 16.76 16.54 16.67 17.59 17.52 18.17 17.13 15.86
39.56 39.33 39.57 39.10 39.62 39.78 40.75 40.88 40.68 39.85 35.14 29.76 31.12 26.13 29.10 32.90 33.54 33.42 35.78 37.08 39.16 41.10 38.44 36.50 36.75 36.39 34.02 31.84 31.98 31.47 28.48 26.01 26.22 22.64 23.68 24.38 24.33 23.60 22.46 21.31 19.56 18.44 18.59 18.31 18.32 17.28 17.01 17.46 16.75 16.12 17.40 17.96 17.09 16.30
38.78 38.24 37.53 39.34 39.76 39.83 41.14 39.75 37.93 36.48 34.61 31.50 29.64 28.01 30.83 31.86 30.64 32.70 32.88 32.34 38.47 39.83 39.03 39.19 33.77 30.66 30.05 31.27 28.49 27.90 26.33 24.63 23.26 23.96 24.74 24.12 22.46 21.56 20.73 20.56 20.19 20.23 19.60 19.10 18.96 18.42 17.94 17.48 17.00 16.69 17.18 16.86 16.63 16.71
38.40 35.40 38.91 39.82 40.44 40.70 39.69 36.33 36.02 33.50 31.09 28.81 28.07 30.57 29.80 32.15 32.65 31.43 33.41 33.60 36.87 36.32 33.35 34.05 29.41 28.57 32.77 27.78 26.29 27.65 24.55 23.99 24.41 25.33 25.55 23.97 21.60 20.03 19.47 19.50 19.72 20.05 19.76 19.60 19.45 19.09 18.99 19.68 20.68 20.01 17.77 18.78 18.78 17.23
36.03 39.77 40.16 40.71 39.51 37.61 36.15 36.49 32.92 29.84 25.25 28.24 26.77 29.10 30.25 31.21 31.36 31.27 32.77 34.33 35.13 35.59 35.13 31.48 34.43 28.45 27.14 26.46 26.56 25.02 25.16 25.79 25.63 24.31 23.18 22.26 21.60 20.98 21.40 20.26 20.75 20.90 20.11 19.75 19.55 19.54 19.65 19.62 20.19 19.20 19.26 19.39 18.22 18.63
38.87 40.61 40.28 39.16 38.84 36.65 32.62 32.01 33.13 26.09 27.22 27.76 28.65 30.41 30.67 30.40 31.41 32.36 33.78 35.42 37.05 37.56 35.08 33.42 29.92 28.68 27.72 28.19 26.00 25.48 25.35 24.63 22.10 22.21 22.55 22.87 22.63 21.43 21.34 21.25 21.18 20.82 20.16 20.40 21.74 22.62 21.53 20.76 21.40 21.59 21.52 21.75 19.82 19.65
39.79 40.18 39.57 39.45 39.91 34.43 29.79 30.24 35.15 27.87 24.76 27.66 29.76 28.41 30.04 29.36 29.92 32.05 33.39 33.42 33.51 33.61 30.25 28.63 27.40 27.76 28.29 28.97 29.63 27.93 27.58 26.57 23.55 20.50 19.74 20.66 21.77 21.57 21.12 22.13 22.30 22.39 22.56 21.99 22.33 21.86 22.24 22.01 22.59 22.39 20.78 19.41 20.46 18.99
38.42 39.52 39.41 38.79 36.68 36.14 32.17 31.06 29.46 28.87 27.40 27.64 28.61 28.09 27.19 29.16 29.54 30.14 29.47 32.20 30.92 29.24 26.26 27.03 26.67 28.36 30.34 30.35 30.19 28.76 27.32 26.92 24.98 23.89 21.53 20.44 23.17 23.74 24.39 24.01 23.62 24.10 23.58 23.73 23.83 20.86 21.57 21.49 21.58 21.57 22.10 20.38 19.92 19.13
36.35 38.77 34.93 35.51 33.87 32.63 30.99 33.94 30.01 31.28 28.58 27.96 28.84 29.74 27.21 27.08 27.55 28.08 29.94 28.47 27.15 26.09 27.77 26.26 26.13 27.27 26.49 26.51 27.56 29.06 29.17 29.03 28.00 26.77 25.48 24.69 23.17 22.89 23.10 23.97 23.96 23.62 24.03 23.84 23.10 22.83 21.88 21.29 21.01 21.10 20.56 18.92 18.20 17.39
37.84 36.39 35.45 34.92 30.41 29.55 27.33 34.86 28.56 28.65 24.28 26.18 27.94 25.39 25.30 26.15 27.87 29.36 26.62 27.22 24.80 27.55 28.75 27.31 27.49 28.80 26.85 27.18 26.79 26.94 27.89 27.29 26.01 25.82 25.45 26.08 26.49 26.42 25.55 24.98 25.35 24.02 22.61 22.01 22.86 22.47 20.54 14.90 17.32 19.85 19.05 19.06 18.79 17.08
36.93 33.34 31.51 30.74 29.87 24.87 30.83 28.50 30.04 27.45 27.19 25.68 25.21 22.48 24.44 25.43 26.50 25.28 24.47 25.51 24.47 27.14 26.17 26.79 26.08 24.35 24.66 24.43 23.97 25.04 27.19 28.03 26.27 26.32 26.62 24.72 23.25 23.61 24.39 23.94 24.05 23.88 23.48 22.80 22.21 21.51 20.50 19.75 14.07 18.78 18.66 17.84 17.55 16.71
30.44 25.57 29.00 25.09 30.31 26.60 24.86 25.66 25.85 25.65 22.94 24.83 22.53 22.45 23.36 25.55 23.03 23.95 24.13 23.76 23.40 24.27 24.69 26.38 26.19 25.69 24.08 25.72 26.06 25.80 27.67 27.02 25.05 23.59 25.77 26.27 24.93 23.45 22.53 22.71 22.59 22.39 23.07 21.77 20.36 20.28 19.81 19.14 18.78 18.11 17.36 16.73 16.08 15.25
23.58 23.95 25.73 26.51 26.94 26.83 26.17 23.52 24.10 24.09 24.52 23.38 23.66 25.70 25.57 24.41 21.99 22.30 25.78 25.57 24.48 25.32 25.38 26.62 26.63 25.91 26.38 26.55 24.30 23.35 25.50 28.47 27.41 23.78 24.17 25.61 24.63 23.63 22.01 20.48 19.54 19.47 21.88 21.93 21.16 19.29 18.65 17.83 17.13 16.11 15.78 14.67 8.15 12.71
22.82 22.11 25.29 27.97 28.93 28.53 26.72 28.18 29.12 26.79 23.67 22.04 23.73 22.74 22.68 19.02 20.22 23.55 27.10 27.37 26.25 27.62 29.38 29.85 29.18 28.27 26.80 26.50 26.55 26.80 26.97 27.08 26.45 24.77 24.77 24.03 23.41 23.33 23.44 21.69 20.15 19.66 21.16 20.03 19.76 18.98 18.54 17.19 16.31 15.89 15.85 16.67 16.35 15.18
23.33 24.61 20.54 23.52 24.55 26.57 23.82 25.21 24.61 23.83 25.11 27.41 25.80 21.03 20.49 22.52 22.23 25.21 27.50 29.68 29.46 29.23 29.36 30.19 31.05 30.02 28.56 27.21 25.96 25.17 23.66 21.95 21.74 21.57 21.15 20.45 20.78 20.62 20.09 18.77 16.95 16.80 17.35 16.34 18.17 18.41 18.05 17.84 16.97 15.89 15.39 14.89 15.28 15.57
22.73 24.55 22.70 15.39 21.16 21.83 21.41 21.60 22.54 22.05 22.30 25.45 25.21 22.05 19.74 20.21 23.11 25.55 28.44 29.48 30.16 29.12 27.65 27.34 28.26 28.30 26.17 25.54 25.56 24.19 22.24 21.48 18.02 14.39 13.86 14.96 14.49 15.88 18.55 16.95 16.09 18.13 18.02 14.82 13.76 16.24 15.38 15.86 15.15 15.26 15.50 15.45 15.62 15.16
20.72 25.13 21.11 17.37 17.17 18.50 19.15 20.28 20.67 21.22 22.35 22.86 22.73 20.36 19.33 19.09 21.24 24.59 27.75 28.21 27.39 27.18 28.03 27.28 25.83 24.49 22.61 22.24 21.14 21.26 23.50 23.74 22.75 19.54 17.71 18.06 18.64 18.54 18.13 17.40 16.81 17.10 18.69 17.90 15.53 12.54 10.85 12.81 13.00 13.58 12.78 12.79 13.05 12.70
23.79 25.07 21.49 21.66 18.78 19.21 19.24 20.30 21.32 21.74 22.73 22.23 24.13 22.91 18.13 17.59 21.41 22.82 24.16 27.71 27.48 26.45 25.34 22.73 22.63 23.85 22.62 22.21 20.84 19.58 18.86 21.55 18.87 20.14 21.07 20.14 18.49 18.32 18.02 17.82 18.27 17.37 17.58 16.48 15.43 14.70 13.28 12.30 13.18 13.19 12.63 11.81 11.00 9.43
22.99 20.82 20.05 17.80 17.58 18.94 21.20 22.39 22.35 22.20 21.11 21.74 19.83 20.32 19.06 20.33 16.34 20.20 22.58 24.38 26.51 23.93 23.37 23.12 22.35 22.10 24.48 24.69 24.07 22.63 20.57 19.28 17.15 17.24 17.62 18.10 18.48 18.10 17.24 16.87 16.70 16.47 15.73 14.79 14.19 13.53 11.23 11.10 11.89 11.76 11.87 10.90 10.70 9.94
21.13 21.42 21.21 19.89 18.13 18.70 19.81 20.99 19.90 18.95 21.02 20.38 20.07 22.07 22.06 21.17 14.85 16.76 20.79 22.47 21.96 24.58 23.76 24.82 25.29 23.99 22.15 20.55 19.67 18.74 18.22 18.27 16.99 17.81 17.67 17.44 15.66 15.43 15.01 14.64 14.94 14.53 13.14 13.03 12.74 12.30 10.19 9.28 9.71 9.54 8.99 7.25 7.24 7.01

GFSWCAN_sfc_wetblb_117.txt.gz
Wetbulb
45.19 45.72 45.72 45.72 45.10 45.26 45.26 44.91 44.97 44.81 44.52 44.21 44.04 43.64 43.69 43.92 44.74 42.52 40.72 43.44 36.75 33.59 34.07 38.05 39.47 35.22 34.78 33.13 28.05 32.06 29.77 30.53 28.68 24.75 27.52 25.46 24.94 28.27 28.68 32.81 31.25 27.31 24.01 20.79 25.77 23.13 20.98 35.06 34.10 28.86 33.46 37.10 37.04 36.49
44.43 44.78 44.94 44.91 44.74 44.52 44.88 44.83 44.57 44.37 44.33 44.02 44.06 43.72 43.55 43.75 44.33 43.43 39.07 44.43 43.18 36.03 34.78 38.37 38.54 39.86 38.86 37.97 34.68 34.01 31.62 31.73 31.86 26.19 26.99 27.79 24.75 27.67 27.84 26.96 35.11 28.48 30.94 27.82 27.58 26.62 33.39 34.46 33.74 35.59 36.50 33.93 34.37 35.62
43.83 42.92 42.92 44.16 44.66 44.68 43.88 44.24 44.12 44.04 44.11 43.90 43.95 43.20 43.17 43.27 43.75 42.43 38.94 41.62 39.58 34.97 33.96 33.36 35.03 41.23 43.15 41.69 41.44 32.10 33.33 36.70 35.80 37.40 31.33 30.39 25.09 26.01 25.88 25.82 30.57 34.80 36.55 29.18 30.62 30.93 31.32 31.55 33.15 35.25 35.23 34.98 35.10 34.69
42.95 43.14 43.66 43.80 43.96 43.77 43.67 43.85 43.81 43.86 43.78 43.58 43.34 43.53 42.85 42.55 42.82 42.88 38.14 41.49 39.61 36.70 29.94 32.67 44.54 39.97 44.77 43.56 42.17 41.06 38.99 39.23 37.70 35.34 30.58 27.83 26.82 32.75 26.80 30.14 31.06 31.96 31.53 26.06 28.78 30.09 31.30 30.67 32.42 33.09 33.02 33.34 33.39 34.32
42.22 42.14 42.63 43.36 43.76 43.93 44.00 43.59 43.60 43.51 43.59 42.81 42.53 42.86 42.34 41.96 42.08 40.62 39.45 40.96 40.77 36.70 31.09 30.44 37.61 40.76 42.10 42.04 40.72 41.08 38.76 36.38 34.87 27.76 28.05 24.79 30.97 29.99 31.31 32.88 29.83 31.64 28.33 26.68 25.33 29.67 30.58 29.19 32.37 32.50 30.27 30.89 31.29 31.25
41.18 41.58 42.09 42.42 42.98 43.46 43.68 43.33 43.33 43.22 42.84 42.78 42.49 42.68 42.28 41.99 42.10 37.47 33.99 40.07 42.30 42.56 34.33 27.27 37.20 39.64 41.82 41.02 40.49 38.89 37.82 35.22 33.75 30.96 25.67 29.59 34.85 29.70 27.63 23.66 30.21 31.81 32.02 31.89 29.99 32.94 31.76 32.20 32.49 33.24 31.09 31.33 31.52 30.48
40.17 40.48 40.99 40.32 42.20 42.61 43.16 43.19 43.02 42.57 42.80 42.77 42.70 42.32 41.95 42.26 38.12 33.58 34.32 39.69 43.67 43.47 34.89 28.15 28.97 37.94 40.91 39.15 37.03 36.55 37.55 35.66 34.11 31.72 28.99 29.49 30.35 33.33 27.53 22.97 29.94 31.15 31.72 32.01 34.01 33.89 29.11 30.24 28.63 32.25 33.47 34.24 32.12 30.76
39.67 39.83 40.44 41.02 41.22 42.14 42.40 42.74 42.90 42.71 42.69 42.35 42.43 42.13 41.73 41.53 39.72 34.45 39.89 43.60 44.18 39.01 37.11 27.92 27.11 32.03 38.83 33.59 30.24 34.94 34.08 35.92 32.57 30.45 31.30 29.48 32.22 32.47 26.10 30.34 31.43 31.78 31.76 32.20 30.97 31.28 30.12 30.65 29.74 29.21 30.08 31.51 28.86 27.49
39.45 39.79 40.04 40.21 40.59 41.27 42.06 42.60 42.59 42.37 42.34 42.03 41.89 41.36 37.91 34.86 30.82 34.05 44.52 44.77 43.40 37.56 31.68 30.75 25.63 20.33 38.03 34.83 35.04 34.21 34.61 29.05 32.57 28.74 29.20 30.18 25.28 23.73 29.34 29.03 28.78 29.40 28.35 29.51 31.64 30.75 29.57 27.81 26.77 26.30 26.57 26.62 24.98 23.23
39.85 39.91 39.90 40.13 40.40 40.61 41.40 41.87 42.39 42.01 41.65 41.96 37.62 31.67 26.30 32.39 44.17 42.88 38.86 34.62 34.24 34.87 35.54 30.20 31.50 25.54 33.96 30.54 31.48 30.45 34.12 30.57 23.94 28.15 32.83 26.41 22.99 27.90 27.67 27.92 28.10 27.80 27.34 27.59 28.41 23.41 24.76 24.93 24.39 23.34 22.38 22.47 21.60 20.77
39.25 39.00 39.09 39.49 39.67 40.05 40.33 41.44 41.95 41.78 40.96 35.21 31.10 29.46 35.38 43.60 36.65 34.59 28.70 28.66 30.58 29.25 30.23 30.92 31.66 27.41 35.96 27.95 25.48 29.76 31.09 30.68 23.97 27.38 29.11 27.75 23.04 25.30 26.55 25.60 26.21 25.45 24.04 23.33 22.23 21.43 21.37 22.11 22.13 21.25 19.56 19.67 19.55 19.43
39.53 39.29 38.89 38.86 39.29 39.33 39.79 41.04 41.53 38.10 34.85 34.98 35.04 39.63 38.20 34.13 31.17 26.63 27.39 27.36 27.68 25.22 28.38 27.54 29.27 32.79 33.24 35.53 31.41 31.74 27.89 27.83 22.90 31.89 26.81 19.92 22.81 24.34 23.91 23.56 23.22 22.81 21.36 19.86 19.94 18.44 18.58 19.50 19.39 18.77 18.18 17.40 17.71 18.22
39.52 39.62 39.18 39.03 39.36 39.24 40.01 40.90 41.45 41.25 40.31 37.97 34.31 31.48 30.02 30.07 23.43 21.98 19.74 23.23 21.12 27.46 30.14 28.95 25.16 31.10 32.55 34.30 26.54 28.72 26.55 24.70 28.01 25.09 21.77 20.89 23.79 23.45 22.22 21.36 20.20 20.92 20.40 19.23 17.95 17.50 16.59 15.79 15.56 15.57 13.29 12.32 12.65 10.60
39.90 39.89 39.97 39.50 39.58 39.99 40.11 41.09 41.19 40.23 36.60 28.26 26.78 18.36 23.95 25.24 25.94 23.65 24.18 26.18 29.60 31.09 31.67 30.57 27.73 28.29 28.00 28.63 30.56 25.38 26.01 29.85 23.11 18.16 17.61 21.27 21.67 21.48 21.26 20.54 18.46 17.13 16.29 15.96 14.03 12.91 12.30 13.49 12.64 10.27 8.46 7.89 6.64 6.34
39.33 39.70 39.91 39.23 39.74 39.60 40.28 41.08 40.76 38.68 29.79 27.73 28.94 18.42 25.13 31.46 31.38 32.04 33.17 31.25 31.84 32.86 32.18 29.10 29.12 30.65 28.02 25.86 28.89 26.19 24.24 18.48 22.32 16.41 17.13 20.27 20.63 20.25 18.52 18.47 16.58 15.51 12.94 11.96 10.99 10.90 10.59 11.20 12.20 11.25 11.59 8.94 8.87 8.00
39.58 39.35 37.24 39.77 39.51 39.52 40.23 40.57 38.08 35.52 31.62 29.72 28.44 24.43 29.05 29.60 28.45 31.46 32.26 32.28 33.68 29.16 29.72 29.33 26.40 27.49 22.70 27.77 26.20 19.87 22.26 18.27 20.58 19.60 20.52 20.23 18.11 17.30 16.98 17.17 16.67 15.46 13.84 11.86 11.39 12.88 12.34 9.31 8.15 7.17 7.38 7.56 4.38 4.55
38.98 33.26 39.05 39.90 39.99 40.19 39.86 35.93 34.25 29.18 26.10 27.14 25.86 28.18 28.30 29.03 30.02 30.39 32.07 32.04 34.40 30.63 28.56 29.50 23.67 25.49 27.79 22.14 24.34 25.06 20.03 15.15 19.98 21.06 20.84 19.21 16.98 14.47 13.98 15.21 14.97 16.61 15.22 14.73 12.98 11.98 10.00 12.24 13.56 16.16 11.51 8.44 8.93 8.48
33.09 36.49 39.94 40.13 38.70 36.30 35.78 35.83 30.24 28.18 25.65 25.39 20.63 26.94 28.25 29.18 30.00 30.15 31.48 32.58 32.96 32.40 30.48 28.35 27.95 24.20 20.73 22.05 20.79 21.44 19.96 21.91 21.16 19.73 18.72 16.77 15.74 14.31 15.18 11.02 12.04 13.01 11.85 10.19 10.67 8.95 10.89 12.03 13.92 9.51 10.47 11.96 14.10 13.73
36.16 37.03 39.76 39.69 37.64 34.92 30.92 29.95 31.07 25.42 24.97 25.28 25.99 28.01 28.26 28.12 26.32 27.37 31.30 32.31 33.02 33.79 31.84 26.92 22.07 24.72 23.91 22.86 22.25 22.31 20.73 19.27 18.04 17.89 17.96 15.95 16.75 14.88 13.82 15.92 13.45 9.62 9.95 10.14 13.14 17.36 12.20 12.32 13.28 15.68 17.74 19.02 14.49 12.69
39.56 39.69 39.93 39.55 39.66 32.93 29.02 28.80 32.81 26.49 22.50 23.20 26.03 24.88 27.68 27.50 27.68 28.86 31.09 31.08 31.05 31.02 28.08 23.00 25.06 24.58 20.25 18.97 21.92 23.08 21.82 21.30 19.45 16.71 15.81 14.29 17.79 14.11 11.95 13.98 14.70 12.05 14.18 13.45 13.33 14.86 16.29 17.38 19.03 16.35 15.12 16.03 15.61 14.19
38.33 38.58 39.81 38.58 35.24 35.01 32.30 30.00 28.47 27.21 25.85 23.56 27.43 26.68 25.14 24.80 23.99 27.24 25.77 28.90 28.54 24.85 21.17 22.09 25.56 26.62 21.73 23.91 25.71 24.19 21.88 21.49 18.07 17.22 15.93 15.62 13.63 16.23 17.81 20.53 16.62 16.37 16.91 17.50 16.97 10.20 13.62 13.28 14.93 17.43 13.53 7.31 7.77 6.89
37.21 38.68 35.83 35.74 32.54 32.75 30.54 31.77 28.29 28.52 26.11 25.74 26.72 26.63 24.96 24.98 25.55 25.92 26.74 25.07 22.85 19.27 20.15 19.51 23.96 22.99 21.86 20.15 21.78 22.25 21.16 23.53 22.50 20.71 18.61 18.42 19.31 16.59 16.49 15.05 16.06 16.62 17.25 12.73 18.36 16.71 15.50 15.18 13.85 13.79 6.80 3.17 10.19 5.69
38.32 36.98 33.24 32.35 29.08 27.91 26.56 31.99 26.84 26.63 19.78 24.44 27.58 23.29 21.14 22.94 23.88 26.18 21.11 24.83 18.20 20.03 21.96 23.67 24.41 22.99 22.44 19.32 22.87 21.66 21.59 23.22 20.98 20.36 20.26 18.75 18.74 19.47 17.67 16.60 20.21 16.76 14.80 14.39 18.62 16.48 11.22 10.16 8.50 5.81 5.14 5.83 10.33 2.46
37.78 32.13 30.33 29.18 29.05 24.53 28.90 27.69 29.61 27.62 25.64 23.84 24.18 20.20 23.70 23.65 23.75 19.76 22.08 18.91 16.78 24.39 22.92 23.10 24.37 22.57 22.48 23.10 18.78 18.43 19.96 23.29 21.63 20.15 22.85 22.33 19.98 18.93 19.68 18.95 18.38 17.78 20.15 18.57 17.12 14.54 12.08 4.13 4.44 7.01 3.86 0.95 1.29 0.81
26.63 24.68 26.99 25.82 28.38 25.60 24.37 22.61 23.82 23.99 20.63 21.81 18.12 16.51 18.77 21.20 13.96 17.57 22.51 18.43 21.67 22.80 24.05 23.85 22.87 22.32 20.19 17.15 18.47 17.85 23.19 23.97 22.09 19.98 19.16 21.21 17.70 18.34 17.63 18.12 17.51 17.44 17.95 11.19 6.94 7.34 4.68 3.74 2.54 4.81 4.81 0.73 8.67 1.75
24.11 24.46 23.25 25.13 26.12 25.07 24.40 21.81 20.11 21.89 21.46 15.25 15.75 19.48 18.35 15.17 13.97 13.40 19.80 19.80 21.21 22.57 22.97 22.55 21.51 21.12 21.28 22.47 21.39 20.26 21.41 22.59 22.99 19.24 18.97 22.23 20.44 16.91 14.27 13.31 11.52 10.77 14.63 12.13 12.16 9.46 7.73 3.94 2.19 3.60 -0.28 0.53 0.40 -1.99
21.22 19.42 23.56 26.11 26.42 27.48 22.01 24.53 26.41 19.33 13.94 12.54 15.85 13.90 13.34 8.75 10.15 15.06 19.87 20.40 21.10 21.49 25.24 25.39 24.90 23.50 23.13 22.70 22.91 21.20 21.17 22.87 22.40 20.75 19.82 19.77 19.16 17.88 16.32 14.26 11.94 12.74 14.90 11.12 7.96 6.95 10.98 7.20 1.52 0.51 -0.08 2.21 6.22 -0.76
22.95 24.35 15.40 19.87 19.62 23.47 18.85 16.84 15.85 14.52 16.85 22.44 20.29 11.81 10.03 10.40 13.24 19.03 22.31 20.98 23.70 25.71 25.61 24.95 25.18 25.15 24.36 22.93 21.05 18.53 17.73 18.22 17.70 17.41 17.12 16.41 15.91 14.24 11.34 10.09 12.91 13.95 8.25 5.66 4.55 5.56 5.88 5.95 4.23 0.99 -0.96 0.98 2.86 -2.27
21.96 23.24 17.63 7.30 13.01 15.55 14.06 14.90 16.17 17.23 18.94 19.03 14.57 11.97 11.52 16.95 18.28 17.28 23.75 21.70 23.36 24.77 24.09 22.63 22.62 23.10 21.77 20.70 19.45 18.35 18.07 16.56 12.59 8.15 5.52 5.77 5.07 7.57 9.29 8.55 9.24 8.72 7.34 6.78 12.74 8.78 8.40 5.39 2.56 1.62 0.86 0.08 -0.08 -2.60
16.02 22.60 14.58 9.95 8.39 11.63 12.60 15.56 14.86 14.01 17.55 17.34 17.72 16.46 14.95 12.10 16.09 21.32 23.89 24.37 21.42 25.46 25.62 23.10 21.02 20.65 18.74 17.77 16.22 12.74 12.54 12.93 11.70 11.72 11.50 10.31 10.84 13.85 13.10 11.55 10.57 12.46 9.69 6.90 2.82 2.06 9.43 2.43 5.25 -0.32 -0.09 -2.32 -2.74 -4.49
22.23 23.26 16.29 16.30 13.12 13.94 12.49 13.02 13.57 14.63 14.69 16.05 17.36 13.51 9.03 11.79 16.78 20.96 19.48 22.85 25.35 23.77 21.81 20.39 19.19 16.69 17.82 16.95 15.94 15.25 16.07 14.88 12.69 14.69 14.99 15.96 15.62 14.99 14.63 14.11 13.41 11.12 13.56 11.83 6.88 4.22 0.36 -0.58 -0.23 3.54 2.78 -1.19 -3.83 -2.82
17.28 14.95 12.17 11.47 10.22 11.54 14.04 18.09 19.14 18.92 11.79 14.33 10.76 9.92 9.99 8.86 7.65 15.14 18.57 18.43 22.49 18.92 18.62 17.64 17.17 16.81 17.00 19.44 17.58 15.74 15.46 13.93 11.76 13.87 13.25 15.50 15.21 14.55 14.41 14.21 14.48 13.09 11.44 9.47 6.66 5.42 3.86 1.97 2.14 0.27 -1.43 -2.45 -4.42 -5.67
15.07 14.87 14.28 11.94 9.90 12.34 12.10 14.96 16.57 12.19 17.80 16.53 16.42 17.63 16.40 12.37 5.20 11.53 16.35 15.17 16.61 19.04 19.07 17.46 21.14 20.15 17.87 16.41 15.26 14.85 13.86 13.17 12.01 16.55 15.53 15.08 12.72 13.20 11.32 10.69 11.87 11.75 10.69 9.46 7.78 5.94 3.97 3.26 1.31 0.18 -2.46 -3.45 -4.19 -5.58

GFSWCAN_sfc_wetblb_120.txt.gz
Wetbulb
45.63 45.47 45.60 45.46 45.10 45.24 45.33 45.29 45.19 45.27 44.89 44.40 43.99 44.01 44.06 44.84 45.62 41.34 39.25 40.10 35.15 28.64 32.52 36.46 38.35 32.96 33.57 31.74 26.75 30.35 27.26 29.66 26.96 23.53 25.08 23.96 23.51 27.02 27.49 31.08 29.59 26.74 23.80 24.21 24.13 21.21 18.32 32.39 31.56 27.09 31.50 33.22 34.49 35.11
44.97 45.04 45.35 45.31 44.78 45.00 44.93 44.88 44.98 45.03 44.53 44.33 44.00 44.17 43.88 44.62 44.84 42.22 38.14 42.53 40.75 33.18 30.93 37.28 37.70 38.73 38.00 37.33 33.10 32.30 30.30 29.85 31.13 24.28 24.09 26.11 23.91 25.57 26.41 21.26 34.33 27.46 30.07 25.63 27.16 25.75 31.92 32.65 32.64 34.40 35.63 33.52 32.35 31.52
45.01 44.95 45.41 45.29 44.97 44.63 44.94 44.67 44.67 44.67 44.63 44.32 44.09 43.53 43.67 44.11 44.31 41.52 38.97 41.10 37.43 34.22 31.79 32.00 34.09 40.02 40.49 39.08 39.31 31.05 31.32 35.26 34.81 34.62 28.95 27.64 24.15 23.81 21.53 23.69 27.44 33.00 33.07 28.18 29.21 29.79 30.01 30.54 32.13 33.54 34.24 32.73 33.43 34.21
44.00 44.28 44.14 42.98 43.79 44.15 44.27 44.39 44.30 44.21 44.23 44.13 44.05 43.92 43.48 43.23 43.73 42.01 36.86 41.34 38.40 35.25 28.36 30.23 40.57 37.31 42.18 41.12 39.44 38.72 37.03 39.83 38.09 34.06 29.46 25.77 25.68 30.91 25.64 28.50 27.45 31.01 29.24 27.82 27.27 29.85 30.13 29.87 30.83 30.72 31.19 32.05 31.89 32.18
43.00 43.31 43.19 44.03 44.20 43.65 43.80 43.92 43.93 44.11 44.11 43.56 43.25 43.12 42.63 42.60 42.78 39.01 37.56 39.08 40.37 34.55 27.57 28.78 34.99 38.98 40.40 40.82 39.79 39.23 37.21 34.13 30.59 25.84 22.88 23.75 29.02 27.93 28.81 30.85 25.44 30.26 27.19 22.89 18.24 25.03 29.56 27.85 30.91 31.37 28.83 30.02 30.29 30.05
42.49 43.03 43.31 43.09 43.28 43.78 43.54 43.75 43.76 43.88 43.59 42.98 42.93 42.96 42.36 42.29 41.68 36.14 29.00 37.25 40.29 42.38 31.98 26.41 33.87 35.86 39.14 39.38 38.72 38.57 36.60 36.59 31.94 29.42 23.85 26.31 32.77 27.95 20.68 26.64 30.14 31.55 31.74 32.38 30.08 31.28 29.99 30.18 31.40 32.79 30.30 30.97 30.18 28.93
41.94 42.10 42.62 43.12 43.53 43.79 43.34 43.04 43.07 43.38 42.93 43.15 43.31 42.95 42.27 42.46 37.07 33.31 30.82 39.72 43.21 42.68 33.20 27.33 26.65 35.99 39.10 38.00 35.56 34.86 38.90 36.55 34.15 30.73 28.07 28.18 28.60 31.04 23.80 23.32 29.41 31.06 31.49 31.94 32.71 31.63 26.92 29.76 27.82 30.84 30.73 33.15 30.86 28.81
41.07 41.39 41.04 42.09 42.88 43.39 43.36 43.05 43.07 43.09 43.18 42.81 42.84 42.73 42.23 41.87 38.78 32.96 39.16 42.98 43.99 38.66 36.11 27.88 25.36 31.37 37.22 31.11 29.36 32.81 32.34 35.57 34.00 30.22 29.16 27.98 29.99 29.39 23.02 29.22 30.68 31.55 31.78 31.15 29.99 30.05 29.22 28.71 28.38 27.94 29.76 29.72 26.39 24.74
40.38 40.67 40.59 40.02 41.63 42.71 42.91 42.98 43.03 43.16 42.76 42.25 42.15 41.65 36.20 33.18 29.26 32.29 42.02 44.07 41.96 37.46 30.00 29.51 24.32 23.93 36.25 32.49 31.49 31.55 31.52 24.08 30.32 25.87 27.76 28.22 23.17 16.91 26.18 27.30 26.94 28.00 26.59 28.42 31.13 29.79 27.81 25.66 23.95 24.25 24.43 23.72 22.18 21.82
39.85 40.15 40.69 40.36 39.62 41.93 42.42 42.85 42.81 42.67 42.66 41.82 35.60 28.25 18.94 28.71 39.79 41.15 38.60 34.18 34.51 35.13 34.29 29.13 29.85 24.19 31.94 23.98 30.42 27.99 32.74 29.37 23.50 26.45 30.77 23.84 21.53 25.69 25.95 25.54 25.44 24.58 24.12 29.77 23.62 21.82 23.01 23.63 20.90 20.17 19.71 20.53 20.20 19.65
39.35 39.60 39.94 40.43 40.82 41.51 41.94 42.45 42.46 42.13 40.70 33.72 23.70 28.67 32.35 40.37 34.85 32.18 27.74 28.24 30.24 28.21 30.35 30.46 28.91 25.47 33.25 24.81 22.37 27.09 29.15 29.82 24.15 25.11 25.47 26.48 21.20 23.26 24.95 23.43 23.24 22.81 21.95 21.04 21.35 20.78 21.22 22.65 20.26 19.03 18.32 18.73 19.07 19.00
39.30 39.27 39.27 39.66 40.10 40.85 41.53 42.13 41.97 37.58 33.43 32.62 32.73 37.73 35.23 31.36 28.85 25.21 24.54 27.96 27.82 23.68 24.74 25.40 27.30 30.26 30.35 31.83 27.32 31.65 28.05 28.00 23.84 31.52 28.90 19.24 20.24 22.41 21.72 20.77 20.09 19.72 18.92 17.87 18.25 17.47 19.08 18.78 18.89 18.00 17.17 16.55 16.55 17.24
39.63 39.21 38.98 39.38 39.80 39.94 41.08 41.95 40.57 41.37 39.28 35.60 32.91 30.89 29.41 23.18 21.62 21.37 18.60 23.34 18.63 24.71 25.24 26.13 24.05 30.61 33.41 32.07 29.29 21.31 26.03 24.39 25.62 20.72 16.67 18.99 22.21 20.30 19.49 19.47 18.83 19.35 18.74 17.84 16.67 16.81 16.38 15.34 15.22 14.44 10.84 8.21 9.79 8.83
40.10 39.86 39.20 39.10 39.41 39.91 40.85 41.73 41.21 39.34 31.50 24.95 25.50 17.30 23.55 21.04 19.94 21.90 22.05 22.75 26.47 25.29 28.11 27.07 24.80 28.02 25.71 26.11 19.66 16.28 23.08 28.95 23.34 16.32 15.11 18.46 19.83 19.38 19.64 19.57 17.59 15.19 14.12 13.45 11.00 10.98 11.03 11.31 9.34 8.26 5.11 4.67 6.77 9.07
39.51 39.49 39.41 38.82 39.40 39.77 40.37 41.28 40.67 36.75 27.78 23.54 26.89 17.07 16.04 27.71 30.09 29.42 31.04 32.70 32.34 27.46 29.90 27.48 27.52 28.17 23.58 27.01 28.08 27.08 25.15 22.61 19.90 14.50 12.10 17.84 18.41 18.35 17.41 17.11 15.21 13.40 9.65 8.96 6.83 7.26 4.06 5.20 7.73 3.80 2.53 3.34 4.08 1.09
39.45 39.14 36.32 39.83 39.67 39.78 40.74 40.76 36.85 34.30 28.20 27.02 26.44 19.78 22.60 26.63 27.29 30.52 32.06 32.24 33.50 28.02 26.42 27.99 26.06 26.16 25.42 26.60 25.29 23.28 22.02 15.86 14.34 16.01 17.64 18.56 16.31 15.71 15.25 15.50 13.68 12.42 11.28 9.31 9.15 9.15 7.53 4.85 5.68 4.30 3.06 3.39 -0.60 -0.17
38.94 33.89 39.13 39.87 39.89 40.06 39.28 35.30 32.86 27.09 24.35 25.17 19.55 20.64 21.57 26.99 27.71 30.00 31.85 31.50 33.80 29.07 21.75 29.75 22.76 24.67 27.20 24.81 22.62 26.16 21.28 11.37 18.28 19.32 17.93 17.28 15.62 13.73 13.51 13.61 11.51 11.67 10.53 9.78 7.15 7.99 6.19 7.08 6.94 11.74 7.70 4.39 6.12 6.13
30.70 36.04 40.01 39.52 38.35 37.28 34.36 34.13 27.63 25.80 23.83 20.78 18.56 21.17 26.37 28.31 28.11 27.42 30.34 31.82 33.12 30.04 28.00 27.75 27.61 24.61 21.68 21.77 16.18 16.24 20.43 19.65 16.36 17.01 15.40 14.08 13.80 11.88 14.43 11.22 10.85 12.00 11.02 7.86 8.35 6.05 6.58 7.21 11.02 7.85 8.11 8.69 9.03 9.06
33.99 37.04 39.84 39.14 37.22 34.78 30.81 30.44 30.39 21.23 20.68 21.05 20.99 24.30 27.57 26.39 27.24 26.70 26.64 30.90 32.27 32.26 30.72 25.81 18.88 19.13 16.70 14.75 11.55 11.59 17.80 14.12 16.60 10.84 6.87 7.16 11.27 12.17 10.79 10.77 10.25 6.65 9.48 7.08 9.23 10.33 9.89 11.32 13.16 11.67 12.43 15.88 10.78 13.10
39.75 39.90 38.82 39.17 38.70 33.75 28.80 26.82 30.66 26.55 21.99 21.82 24.34 24.65 25.34 20.07 20.81 19.35 28.84 30.19 31.27 31.22 27.82 23.36 17.05 19.57 16.91 14.84 15.12 20.34 18.01 18.66 17.44 15.16 14.01 8.51 7.71 11.38 11.44 13.88 12.51 9.76 11.18 9.91 10.48 11.33 12.02 12.96 14.62 14.62 13.88 15.15 11.62 8.83
37.07 37.08 39.02 37.28 35.74 34.52 29.29 27.34 27.34 27.10 26.16 22.97 26.59 26.54 21.28 22.91 23.51 27.05 25.75 28.60 28.14 22.64 16.45 14.02 21.69 16.12 12.98 16.84 22.68 21.65 20.13 20.00 17.30 16.33 15.50 14.70 12.02 15.70 11.90 12.31 12.95 12.55 12.73 10.33 10.29 7.86 16.23 13.48 13.29 15.26 7.52 1.26 1.09 2.87
34.05 38.23 35.21 35.27 30.95 31.42 29.27 31.43 27.89 26.52 25.52 25.55 25.56 25.20 20.62 18.06 23.14 26.65 25.29 21.24 19.34 17.08 17.45 17.85 20.70 16.38 19.95 17.91 20.16 21.42 20.20 19.67 18.19 17.62 15.61 16.54 13.71 14.22 14.74 12.78 14.63 13.02 15.96 14.91 16.26 12.02 11.94 14.50 13.74 11.00 6.15 1.44 2.74 2.34
37.83 36.29 32.32 31.07 27.00 25.25 24.32 31.18 25.29 25.67 18.69 21.40 25.66 22.15 17.66 18.73 21.05 25.82 15.40 21.95 16.74 16.42 17.29 18.42 17.32 18.16 18.66 12.61 19.80 19.70 20.10 20.33 17.94 17.64 17.36 17.42 16.89 16.33 17.93 15.15 16.72 17.08 16.19 12.98 17.71 13.87 10.88 9.66 8.91 4.14 1.19 2.32 0.31 -3.55
37.36 31.30 27.52 26.45 27.09 23.77 26.65 23.19 28.47 26.63 25.20 22.91 22.09 16.72 22.09 20.33 24.05 16.74 16.38 15.21 14.27 17.73 20.61 19.70 23.04 21.16 21.23 22.69 20.65 20.63 21.37 21.56 19.48 18.98 19.72 19.12 18.10 17.83 18.03 17.96 20.20 18.50 18.23 17.72 16.66 12.13 9.21 4.00 2.12 3.21 -3.14 -3.82 -1.13 -1.01
26.19 25.27 25.81 24.47 27.49 23.44 20.67 21.36 20.87 20.59 12.45 15.45 18.40 12.82 19.36 19.56 10.61 9.73 14.51 13.27 22.06 21.66 22.22 23.41 22.97 23.01 21.61 16.40 17.87 18.91 21.36 22.11 19.86 18.48 19.32 22.05 17.41 18.50 17.94 16.68 16.15 17.63 17.24 12.68 7.56 7.64 2.72 -3.27 -2.73 0.27 -1.93 -4.01 1.58 -3.51
21.47 22.81 20.89 24.08 23.35 22.31 20.31 14.72 13.96 13.43 18.21 16.04 12.26 15.67 13.12 9.88 11.98 11.36 16.53 10.72 19.67 23.40 24.07 22.86 21.65 20.47 20.58 22.36 21.32 20.15 21.19 23.12 22.89 20.75 20.14 22.09 21.30 18.86 15.79 13.64 12.29 10.72 13.32 14.55 8.99 5.70 6.02 0.58 -1.09 2.07 -0.95 -0.58 -1.14 -5.10
16.23 20.42 25.02 27.11 26.37 28.07 19.32 20.43 23.49 15.98 9.57 8.71 12.30 8.63 8.40 6.51 6.30 12.02 16.95 16.16 16.70 16.74 24.91 24.23 23.99 22.60 21.37 21.33 20.90 19.68 22.36 23.07 21.11 20.34 18.97 18.96 18.77 19.23 18.69 15.18 12.84 14.80 13.48 12.75 11.15 8.93 7.50 5.34 2.37 1.82 0.15 -5.28 -2.31 -3.02
21.90 24.07 19.12 20.24 19.38 21.91 15.49 14.00 12.04 12.52 10.66 18.58 15.15 9.12 8.23 7.16 9.19 15.15 19.24 18.55 16.60 22.82 23.94 23.42 23.59 23.27 22.32 20.25 17.73 17.31 16.57 16.65 15.54 15.62 15.25 14.17 12.27 8.98 8.43 11.61 13.16 15.69 11.13 9.94 8.28 6.75 9.23 5.89 4.01 0.44 -2.16 2.17 -1.15 -7.27
20.49 22.73 19.69 12.25 12.75 14.97 11.92 12.60 11.70 14.72 17.24 15.23 7.94 5.49 7.41 14.74 13.18 14.98 16.51 18.88 21.40 23.47 22.23 20.03 19.06 19.39 17.33 16.09 13.72 16.31 17.36 17.10 13.81 10.01 8.06 3.59 3.98 7.18 6.10 7.81 9.77 9.97 11.33 11.18 12.37 8.99 8.29 6.75 5.88 3.98 5.26 5.29 2.33 -5.30
16.61 21.41 13.19 6.09 5.83 8.38 7.25 9.83 8.25 6.70 12.99 13.05 14.99 13.90 11.87 12.55 16.05 19.72 18.73 20.75 21.47 22.30 19.44 19.94 19.62 19.10 16.69 15.79 12.91 10.81 7.76 6.62 12.92 15.94 13.35 8.66 9.83 8.96 8.20 7.75 8.74 7.22 8.09 10.57 9.68 9.89 13.25 6.92 7.51 2.69 3.23 1.67 -0.38 -0.87
19.26 19.32 11.14 7.54 5.43 5.38 4.49 2.76 3.53 6.90 6.00 9.60 6.66 4.84 5.29 7.80 15.69 16.70 13.92 15.58 21.20 21.07 19.72 17.67 15.81 13.78 15.88 14.53 14.38 12.26 9.16 8.50 7.59 9.34 9.55 11.33 12.75 12.24 11.50 11.16 12.10 10.72 9.27 7.02 7.56 5.82 4.72 3.54 3.30 2.60 1.78 -0.42 -2.32 -1.05
10.68 7.47 6.06 3.79 2.89 3.99 3.80 7.70 8.25 4.84 2.93 2.79 1.98 -1.64 2.97 3.53 4.45 9.32 12.14 13.12 13.17 13.73 16.83 15.63 17.04 13.48 13.63 14.58 12.31 9.51 11.14 11.26 9.19 10.52 12.08 13.25 13.85 13.54 13.17 11.64 10.86 13.04 11.86 8.01 7.76 9.04 5.91 6.47 4.60 4.64 5.63 4.97 3.78 2.13
5.25 1.75 -0.07 0.87 1.80 4.68 4.16 6.94 10.49 9.24 11.47 6.91 6.04 6.34 5.66 -0.98 -1.13 1.34 8.80 12.43 12.26 11.39 13.13 15.22 14.19 11.42 11.23 9.22 8.59 5.34 6.58 7.71 9.32 14.92 13.53 13.31 12.05 12.94 11.91 10.90 10.35 9.99 9.52 7.89 6.83 7.42 6.86 6.08 4.31 3.60 3.47 2.03 0.84 -0.56

GFSWCAN_sfc_wetblb_123.txt.gz
Wetbulb
45.62 45.60 45.40 45.13 44.94 45.02 45.40 45.49 45.49 45.53 44.89 44.22 43.66 44.05 44.76 45.79 45.58 41.08 38.88 39.77 34.41 28.12 31.19 35.10 37.17 32.85 32.10 30.01 26.02 29.22 26.29 27.46 26.74 22.26 24.01 23.07 22.96 26.65 26.85 29.76 26.98 26.34 24.60 22.80 23.51 20.40 16.23 31.24 30.81 26.03 30.63 32.59 31.77 30.72
45.48 45.47 45.32 44.92 44.75 44.74 44.85 45.04 45.18 44.97 44.75 44.47 43.98 43.96 44.73 45.25 44.73 42.18 38.32 41.26 39.41 32.35 30.86 36.13 37.14 37.63 36.88 35.76 31.75 30.74 28.93 29.37 29.90 22.85 22.01 25.21 23.71 24.30 25.67 20.60 31.41 20.95 29.75 26.00 27.05 24.87 31.16 32.38 32.18 34.14 34.19 32.45 32.46 30.92
45.42 45.06 45.00 44.79 44.57 44.54 44.36 43.40 44.49 44.86 44.52 44.45 44.18 43.86 44.39 44.58 44.38 42.22 38.27 38.23 35.39 29.35 29.09 31.07 33.02 37.94 38.98 37.64 38.01 29.01 30.23 33.60 33.09 32.51 27.83 26.62 24.41 23.05 21.07 23.12 26.59 30.32 31.32 27.02 28.39 29.66 29.59 29.94 31.40 32.16 32.55 31.10 31.70 32.78
44.58 44.64 44.82 45.07 44.54 44.57 44.21 44.16 44.22 44.44 44.38 44.31 44.18 43.96 44.04 44.16 43.89 41.85 37.65 37.73 35.36 34.81 23.79 29.60 38.54 35.18 40.57 38.92 37.68 36.82 36.07 39.49 36.99 32.10 28.46 24.91 25.07 29.45 25.22 27.29 26.72 30.51 28.83 27.43 27.11 29.59 29.79 29.53 29.62 29.75 30.70 31.16 30.72 29.26
44.69 44.59 44.96 44.44 44.07 44.17 44.17 44.17 44.13 44.36 44.31 44.28 43.91 43.57 43.34 43.33 42.81 39.51 38.28 37.69 37.49 31.50 25.38 27.71 33.63 37.52 39.13 39.12 37.94 37.69 35.88 33.66 29.20 25.09 22.34 23.51 28.31 26.79 27.82 28.85 27.83 29.86 26.44 21.53 14.82 28.41 28.90 28.09 30.34 30.89 27.52 29.44 29.67 29.50
43.81 43.98 43.71 44.00 44.20 43.66 43.61 44.04 44.11 44.13 43.93 44.10 43.70 42.78 42.70 43.01 40.72 34.99 27.54 36.01 39.60 41.90 27.95 23.40 32.08 34.09 37.25 38.93 38.82 37.75 35.43 35.95 33.23 29.12 22.93 25.19 30.71 27.03 18.34 25.23 29.96 31.41 32.07 32.43 29.74 30.99 28.92 28.74 29.97 31.69 31.78 30.07 29.11 28.11
42.92 42.24 43.50 43.64 44.11 43.74 43.73 43.97 43.88 43.53 43.41 43.86 43.65 42.94 42.49 41.84 36.74 31.62 30.00 39.59 41.94 41.18 32.27 22.55 25.98 35.16 38.79 38.55 34.95 36.94 38.67 36.31 35.13 32.53 27.91 27.41 27.88 29.97 22.67 24.98 27.62 30.47 31.66 31.37 31.96 31.24 26.56 28.52 26.75 28.85 31.24 29.77 29.18 27.33
42.60 42.97 42.23 42.86 43.19 43.38 43.25 43.63 43.50 43.36 43.49 43.44 43.33 42.96 42.44 41.22 37.96 33.12 39.96 42.95 42.45 38.00 35.69 21.44 24.26 32.68 38.82 32.44 30.55 32.06 33.56 35.43 34.38 32.67 29.44 27.44 29.01 27.73 20.37 29.29 30.69 31.36 31.15 30.38 29.42 28.06 26.83 26.04 25.08 25.81 28.10 26.54 23.83 22.59
42.04 42.16 42.40 42.83 42.93 43.08 43.20 43.27 43.10 43.37 43.34 42.92 42.79 41.21 36.25 33.69 30.12 33.28 43.10 43.23 41.23 37.18 28.31 27.70 20.99 19.78 36.79 32.85 29.87 30.18 29.59 26.52 29.74 25.45 27.04 27.70 21.81 19.36 22.03 27.84 28.17 27.34 27.60 29.22 29.42 27.26 25.27 23.24 21.04 21.48 22.21 22.03 20.75 20.39
41.25 41.04 40.83 42.36 43.06 43.12 42.85 42.84 42.92 42.93 43.00 41.26 35.35 29.20 22.07 30.41 38.74 41.54 38.15 33.53 34.49 34.67 33.36 28.46 27.86 26.81 31.82 27.40 29.20 27.32 31.88 26.01 22.73 26.89 29.40 23.10 18.30 24.76 24.35 23.85 23.84 23.37 24.62 27.85 23.28 21.79 23.75 20.19 19.89 19.42 19.12 19.71 19.33 18.88
40.27 39.99 39.83 40.18 42.96 42.95 42.91 42.74 42.60 42.55 38.94 31.36 25.12 23.58 31.69 39.47 34.16 31.54 26.91 26.91 29.62 26.61 30.38 29.83 27.51 24.19 31.68 24.42 23.63 25.33 27.88 28.86 23.49 24.79 25.71 22.86 19.63 21.94 23.46 21.91 22.21 21.95 21.64 21.09 21.69 21.55 22.78 21.70 19.91 18.74 18.06 18.73 18.74 17.91
39.88 40.11 39.56 39.77 41.50 42.52 42.73 42.29 41.72 35.85 32.03 32.30 32.77 35.74 35.00 30.86 28.34 24.94 23.10 26.34 26.06 23.33 26.17 27.15 27.87 28.42 29.08 28.79 25.36 30.36 27.44 28.56 23.77 31.00 27.48 18.31 17.05 21.72 20.62 19.84 19.35 18.96 18.59 17.77 19.05 19.05 19.17 19.32 18.79 17.77 16.53 15.57 15.83 14.86
39.84 39.65 39.74 39.78 40.30 41.75 42.14 41.78 40.14 39.86 38.64 34.00 30.72 29.50 27.56 23.39 17.99 19.17 17.35 23.15 22.71 23.38 23.33 24.92 22.06 28.01 29.31 29.46 26.89 26.87 25.67 24.04 25.52 22.80 17.11 14.40 20.15 20.31 19.56 19.03 18.08 18.59 18.08 17.22 16.61 16.58 15.79 13.75 12.96 12.96 9.28 7.44 6.30 6.28
39.85 39.84 39.47 39.70 40.43 40.31 42.11 41.27 41.35 37.25 30.44 22.07 19.69 13.50 17.02 18.94 20.92 18.32 20.92 21.11 23.97 21.98 24.71 24.93 23.83 26.64 28.73 25.25 18.40 14.21 20.87 27.83 22.48 20.26 14.67 15.22 18.32 18.97 19.21 19.13 17.11 14.63 13.41 12.51 9.79 9.61 9.09 8.80 2.94 -0.15 -1.05 -2.50 1.32 1.56
40.04 39.84 39.54 39.44 40.16 40.99 41.47 41.08 39.78 33.94 26.39 24.28 26.13 15.46 13.89 20.45 26.16 27.60 24.73 27.80 31.84 27.72 24.97 25.61 26.21 28.19 26.49 26.72 27.98 23.29 24.15 22.09 18.53 15.31 11.75 15.54 18.53 18.35 17.33 16.52 13.76 12.08 8.55 7.74 4.55 4.62 0.58 2.15 5.59 1.30 -1.05 -0.92 0.92 -3.09
39.46 38.59 35.28 39.94 39.70 40.65 40.51 38.09 36.21 31.84 25.89 23.83 25.48 18.73 19.06 19.43 20.22 18.37 31.88 31.78 33.36 23.69 25.82 26.61 25.14 21.70 24.29 21.26 24.66 22.56 21.45 14.47 15.02 12.65 12.80 17.90 16.61 15.44 14.72 14.37 11.93 10.31 9.35 7.22 6.85 6.96 5.28 2.97 3.62 2.80 0.63 1.66 -3.06 -2.90
38.07 31.63 38.80 39.65 39.99 40.37 39.22 34.17 32.29 26.30 23.67 24.75 22.74 25.44 19.09 20.76 25.91 28.01 30.27 31.69 33.35 31.00 27.72 28.97 21.73 24.36 27.02 24.28 23.67 26.35 21.21 13.86 13.61 17.67 17.40 17.27 15.49 13.22 12.80 12.29 10.29 10.09 9.49 9.30 6.80 6.68 4.19 4.66 4.71 9.94 6.64 3.13 4.13 3.60
30.02 36.44 39.29 39.37 38.34 37.42 34.96 33.48 29.50 26.62 22.50 17.92 15.05 16.61 19.72 25.99 26.88 28.36 28.93 31.53 31.91 31.47 27.54 24.92 26.51 22.82 23.98 20.02 14.19 13.60 19.47 17.59 14.11 13.52 12.10 11.86 13.59 13.01 14.04 10.91 9.71 10.65 9.53 7.63 7.90 4.51 5.25 4.79 7.95 6.26 6.30 5.55 7.22 6.93
34.69 36.91 39.51 38.80 36.21 34.67 30.20 30.07 29.31 19.59 17.07 16.46 17.61 20.06 24.78 26.85 25.73 26.08 28.66 30.30 31.50 31.70 27.07 24.15 17.91 16.72 17.37 16.68 14.54 7.76 13.75 14.03 15.39 9.58 5.46 4.10 11.75 12.22 9.87 10.04 9.57 6.38 8.98 6.68 7.93 10.22 8.76 10.23 11.07 10.22 10.51 12.22 8.07 11.68
39.65 39.99 39.43 39.21 38.99 33.60 28.01 26.99 29.37 25.36 18.70 19.85 22.45 24.43 24.68 24.81 24.08 19.61 27.13 28.70 29.83 30.98 27.13 21.47 18.80 16.55 17.48 15.45 15.57 12.85 15.57 16.62 15.81 13.22 7.11 3.84 4.85 10.95 11.30 12.95 12.68 9.89 10.62 6.69 7.95 9.88 10.60 10.75 12.18 12.51 12.55 13.15 9.49 8.91
36.69 37.42 38.75 37.72 35.44 34.85 30.23 26.40 25.91 25.31 25.00 22.57 25.93 26.66 23.13 25.48 21.88 18.78 25.60 29.29 28.94 21.33 18.16 16.02 13.31 19.55 10.91 11.82 16.64 19.16 18.54 19.62 17.75 16.39 14.78 11.54 8.18 14.89 12.32 11.82 12.30 12.75 11.86 10.22 10.29 7.42 9.64 11.05 11.53 13.72 6.50 0.76 -0.82 1.45
33.00 37.44 33.87 34.72 30.86 30.96 29.72 29.18 26.09 25.93 24.99 25.52 24.99 25.81 19.26 15.80 14.71 22.04 26.37 25.41 23.12 19.30 17.44 18.36 20.13 15.42 15.77 15.45 15.49 18.70 19.25 18.65 17.01 16.79 15.14 15.38 13.55 13.36 13.70 12.31 13.27 11.33 11.27 9.52 12.40 10.66 12.03 13.84 12.68 10.12 3.15 -2.87 -0.44 0.01
35.77 33.23 30.50 29.41 25.74 25.13 21.33 30.41 25.15 25.80 20.34 19.71 25.20 19.68 16.49 14.36 19.18 25.34 14.01 20.39 18.24 15.44 15.87 16.31 15.33 17.06 15.91 10.60 17.90 17.30 17.54 18.58 16.49 16.46 16.37 16.96 16.79 14.06 13.98 12.62 13.93 11.32 11.49 12.75 16.16 12.59 10.26 9.55 7.57 4.10 -0.34 -1.63 -1.82 -6.18
35.76 28.59 24.64 23.51 22.04 18.07 24.75 21.99 28.05 24.91 21.56 20.45 20.23 13.63 17.89 17.58 22.09 14.87 14.47 14.07 15.23 15.13 17.73 14.57 21.14 18.35 18.92 20.33 16.96 17.81 18.22 19.09 17.11 16.62 17.62 16.77 15.41 15.41 16.60 16.28 16.68 16.93 18.08 16.69 16.32 12.69 10.21 5.94 3.94 3.21 -2.50 -4.68 -7.07 -5.42
20.61 18.49 20.89 15.93 25.21 20.76 15.98 15.71 20.32 20.99 9.26 13.50 16.47 10.36 16.41 19.17 11.12 9.44 11.84 12.59 20.47 20.57 14.35 18.21 19.91 20.69 18.61 13.37 15.96 16.48 20.18 20.09 17.67 15.79 16.64 19.17 17.41 16.98 16.38 16.95 17.67 18.11 18.07 13.18 4.53 5.60 -1.31 -5.95 -5.04 -1.70 -2.01 -3.77 3.30 -2.50
16.18 19.88 23.02 21.91 23.56 19.90 18.70 13.22 13.70 11.68 11.21 10.36 11.70 13.18 12.32 8.72 9.92 9.51 14.19 15.33 18.49 23.22 23.46 22.97 19.65 17.65 17.95 19.36 19.12 18.79 19.29 20.42 20.34 17.70 18.19 21.10 20.30 18.63 16.15 15.09 12.29 13.76 15.75 16.02 10.25 5.98 4.28 -0.42 -1.66 0.25 -3.45 -2.52 -1.98 -5.78
18.56 21.14 24.71 28.19 27.16 27.27 22.55 20.14 23.15 18.28 12.07 9.74 8.36 8.00 8.49 6.55 5.10 11.15 17.49 18.52 19.07 16.02 21.85 26.30 24.01 21.49 19.85 19.56 19.88 19.35 20.71 21.19 18.83 18.63 19.04 19.19 18.46 19.81 19.01 15.71 13.88 15.62 15.29 13.63 13.26 10.83 10.59 7.52 4.10 4.04 3.47 -5.40 -2.23 1.68
17.96 20.24 13.63 21.04 22.90 22.92 20.49 17.46 15.69 13.77 11.51 17.69 13.57 7.72 6.87 6.65 6.29 10.98 13.88 16.15 21.06 20.21 20.69 22.53 23.10 22.48 20.93 19.62 17.69 16.32 14.13 13.97 13.72 14.39 14.35 12.62 9.69 6.94 8.24 9.85 11.34 16.93 14.68 14.38 14.25 13.36 13.31 12.13 9.56 6.70 4.37 6.14 5.60 -0.84
15.77 20.03 19.97 12.44 17.08 16.86 13.66 14.19 13.13 15.96 16.85 16.62 8.84 4.10 7.34 13.70 11.97 12.66 14.67 17.49 19.87 19.59 17.89 17.28 15.86 16.31 15.59 14.50 14.04 14.02 16.47 17.12 13.12 7.04 4.79 4.87 4.78 8.52 4.08 4.09 8.62 9.74 9.79 9.09 13.34 12.80 13.34 12.76 11.25 9.44 7.83 7.51 5.88 -0.18
16.92 21.93 16.37 13.56 13.93 11.30 6.64 12.93 10.35 8.71 13.64 14.22 15.44 13.32 11.25 10.71 12.46 14.18 12.72 12.51 17.18 12.53 12.73 13.06 13.06 13.41 13.92 13.82 9.38 8.73 5.32 4.95 7.29 13.75 13.45 10.70 13.07 8.31 6.61 7.32 7.30 7.33 9.42 10.21 10.17 10.74 12.68 8.36 10.26 6.55 6.15 4.06 2.17 2.18
21.16 20.29 16.10 14.41 11.46 9.75 8.82 5.69 4.81 6.28 7.32 7.90 6.34 6.34 6.90 7.48 10.85 12.00 10.10 10.54 12.73 17.98 17.03 12.05 11.20 10.01 13.98 14.39 12.94 13.16 12.16 7.14 2.93 6.27 6.89 7.10 9.90 10.41 8.59 6.34 6.06 6.40 7.41 7.95 7.29 4.78 1.98 1.41 3.55 6.50 7.72 6.30 5.35 5.22
12.07 11.17 11.75 7.58 8.02 7.47 7.03 7.84 7.66 5.27 2.68 3.34 3.46 -0.34 6.12 4.07 -1.26 4.92 8.92 8.63 9.16 8.41 8.58 12.91 16.10 14.19 10.48 12.77 12.54 13.73 11.34 11.39 10.19 9.40 10.35 7.59 4.51 4.82 8.24 8.68 8.17 6.91 4.89 3.67 2.36 1.76 2.54 2.89 3.00 3.85 6.49 6.04 5.41 4.16
6.53 4.88 2.51 -1.09 1.17 1.37 0.95 4.15 6.60 6.89 6.13 2.85 2.15 1.74 -2.87 -6.04 -4.51 -0.06 5.56 8.65 6.99 9.61 9.92 9.93 9.61 9.69 10.78 12.13 12.03 9.39 7.41 7.28 7.46 11.18 7.47 7.29 5.66 8.79 8.67 9.22 10.05 9.40 6.48 5.24 3.53 2.80 3.35 3.09 2.50 3.19 4.63 4.45 3.29 2.12

GFSWCAN_sfc_wetblb_126.txt.gz
Wetbulb
45.76 45.45 45.51 44.87 44.63 44.46 44.98 45.20 45.24 45.06 44.00 43.58 43.83 44.46 45.88 45.64 44.86 40.98 39.19 38.79 33.76 29.34 31.55 35.15 36.99 32.85 32.04 29.56 25.25 28.47 25.91 26.69 26.10 21.82 23.65 22.68 22.64 26.10 25.70 28.09 28.73 25.27 24.37 22.32 23.71 19.50 14.75 30.16 29.57 24.76 29.49 32.65 31.42 30.11
45.45 45.05 44.82 44.36 44.59 44.52 44.80 45.06 45.10 45.01 44.31 43.86 43.74 44.46 45.38 45.06 44.51 42.61 36.81 39.87 38.60 32.53 31.42 36.22 37.04 37.20 36.38 34.82 31.45 30.31 27.99 28.60 29.58 22.62 21.07 24.94 23.84 23.65 25.12 20.38 29.62 20.05 27.97 25.36 26.48 24.98 30.53 31.24 30.50 32.66 33.07 31.62 31.16 30.46
44.76 44.68 44.82 44.43 44.31 44.20 44.72 44.41 44.85 44.68 44.39 44.18 43.84 44.42 44.74 44.72 44.61 42.19 37.04 36.77 34.98 30.01 30.16 32.25 33.45 37.42 38.23 37.50 37.00 28.94 29.66 32.73 31.34 30.88 27.31 26.08 24.78 23.01 20.41 22.96 26.18 30.77 31.28 27.31 26.64 29.43 29.47 29.19 30.41 30.84 31.90 30.17 29.67 29.62
44.89 44.66 44.46 44.24 44.41 44.28 43.96 43.73 43.92 44.25 44.35 44.23 43.87 44.39 44.46 44.39 44.15 42.10 36.66 36.15 35.28 31.49 27.23 30.89 37.81 34.82 39.65 38.08 36.47 35.68 35.57 36.59 34.51 30.68 27.75 24.31 24.71 28.79 24.86 26.61 26.47 29.61 29.63 26.53 27.27 29.38 29.87 29.23 29.55 29.33 30.27 30.92 29.85 29.17
43.91 44.70 44.52 44.41 44.37 44.26 43.62 43.27 43.81 44.19 44.19 44.27 43.79 44.00 43.84 44.06 43.48 39.78 37.21 36.81 36.67 31.12 26.06 28.34 33.00 36.17 37.74 37.80 36.62 36.35 34.87 33.41 28.99 24.54 22.10 22.79 27.75 26.29 27.36 28.01 20.81 29.52 27.26 21.84 23.77 28.55 28.96 28.37 30.60 31.69 28.54 28.80 28.79 28.00
43.78 44.43 44.59 44.40 44.12 43.97 43.68 43.63 43.86 44.10 43.96 43.92 43.53 43.34 43.16 42.30 39.57 34.88 29.51 36.42 39.34 37.47 28.04 24.75 31.41 32.86 36.69 37.58 38.78 36.65 34.44 33.64 31.88 28.29 22.33 24.15 29.33 26.50 17.71 18.75 28.12 30.86 32.39 32.75 29.17 30.72 29.42 28.66 29.70 28.59 29.24 28.67 27.42 25.89
43.98 44.37 44.49 44.25 44.21 43.85 43.88 43.99 43.87 43.99 44.05 43.73 43.33 43.03 42.38 41.62 37.53 31.06 29.84 38.19 42.11 37.42 27.23 23.37 26.47 33.29 37.16 37.75 33.27 36.74 38.30 34.47 33.28 31.44 27.61 27.48 27.44 29.77 25.40 22.36 28.27 31.05 31.66 31.48 32.82 31.07 26.88 27.78 24.26 29.34 28.36 26.89 26.54 24.69
43.47 44.17 44.37 43.30 43.65 43.75 43.77 43.69 43.61 43.79 43.89 43.63 43.34 42.34 41.45 40.89 37.87 34.28 40.59 43.19 41.36 35.16 31.83 20.68 24.38 30.86 38.34 32.68 31.44 33.39 34.21 35.17 34.17 32.31 30.08 27.34 28.42 27.08 17.83 27.06 29.97 31.25 30.55 29.68 28.11 26.51 24.31 23.84 22.81 23.65 25.66 24.44 22.21 20.90
42.07 43.23 43.50 43.47 43.70 43.63 43.48 43.17 43.22 43.70 43.45 43.26 42.30 39.88 35.25 32.67 29.28 33.94 43.13 42.58 40.31 33.98 25.27 23.31 23.19 22.41 35.45 32.35 31.53 29.10 29.79 27.01 29.36 25.17 26.92 27.05 22.00 23.16 22.81 29.87 28.85 27.35 28.76 28.04 26.23 24.36 22.75 21.26 20.03 20.12 20.22 20.24 19.17 18.76
42.53 42.05 43.34 43.27 43.35 43.14 42.95 42.92 43.14 43.34 43.24 40.55 34.70 29.02 22.19 29.99 39.87 42.16 37.29 33.43 31.16 33.83 31.23 24.54 27.78 28.27 33.72 28.76 28.83 24.89 31.09 26.92 23.26 25.87 28.36 22.98 25.81 23.25 24.23 24.83 24.17 24.75 26.75 30.27 25.56 23.36 21.68 20.06 19.56 18.97 18.44 19.00 18.13 17.64
41.64 42.56 42.41 41.93 42.30 42.55 42.81 42.92 42.98 42.43 38.06 31.42 24.94 25.20 32.15 39.43 33.71 28.91 23.13 23.65 28.55 25.60 28.48 28.03 27.98 28.29 31.48 24.63 24.88 24.85 27.71 29.02 23.04 25.13 24.31 19.91 19.88 21.85 23.65 22.21 21.85 22.08 21.75 21.72 22.56 22.84 23.15 21.66 19.67 18.48 17.63 17.89 17.63 16.47
40.82 41.13 42.71 42.42 42.08 42.54 42.67 42.78 41.32 33.76 31.10 31.81 32.98 35.55 34.09 29.83 26.19 19.73 20.13 25.42 25.40 23.96 27.25 27.24 26.52 28.04 28.95 27.90 25.35 30.06 26.92 28.29 22.72 29.52 25.07 16.79 15.99 21.77 20.77 19.51 19.05 19.42 19.54 19.37 19.95 19.08 19.58 19.34 18.82 17.22 15.91 14.97 14.15 13.54
40.07 40.58 40.92 43.10 42.96 42.66 42.71 41.54 39.46 39.70 38.01 32.50 29.35 23.61 22.01 23.23 13.97 14.59 14.53 21.49 22.00 25.37 25.54 27.72 23.85 26.56 31.47 28.62 28.33 28.45 25.20 23.23 25.76 23.95 16.81 16.99 18.54 20.92 19.62 18.88 18.11 18.60 18.42 17.38 16.46 16.29 14.97 12.28 11.68 12.18 8.66 5.32 4.01 3.02
39.91 39.69 40.15 41.43 42.80 41.94 41.84 41.15 40.74 35.93 29.10 19.88 17.63 16.75 15.52 18.73 19.77 18.11 21.83 23.52 24.65 23.03 22.14 22.10 26.94 24.99 24.28 22.95 18.41 14.32 21.93 27.13 21.95 19.47 14.90 13.48 18.43 19.23 18.98 18.93 17.17 14.88 12.98 12.09 9.36 8.76 7.87 7.19 0.69 -2.75 -3.66 -5.11 -1.90 -0.76
39.60 39.47 39.36 40.09 40.86 41.95 41.58 40.98 38.59 31.63 24.73 20.66 19.73 8.38 16.77 17.66 22.73 26.00 23.08 26.50 25.56 31.01 23.82 23.52 24.85 27.43 23.34 22.54 26.89 22.31 18.03 13.31 15.96 14.21 14.27 12.05 18.64 18.35 17.29 16.64 13.51 11.95 8.14 7.11 4.29 5.02 2.15 1.85 5.66 -0.03 -3.84 -3.48 0.15 -5.47
39.22 38.15 36.37 39.80 39.52 41.32 40.15 38.03 34.46 30.44 26.56 22.88 24.67 19.62 17.26 19.44 15.63 16.32 26.55 28.62 30.87 28.89 29.67 27.96 24.03 17.82 20.32 20.02 24.26 21.61 20.66 12.88 14.34 14.09 11.53 17.81 17.47 16.34 14.84 13.75 11.79 9.52 8.17 6.18 6.01 6.33 5.69 4.45 4.81 2.63 -1.17 -0.70 -5.29 -3.66
36.68 30.84 39.33 39.83 40.36 39.41 38.77 34.44 31.68 27.02 23.65 23.13 19.84 24.99 25.24 20.02 18.77 19.78 27.44 31.18 32.90 30.59 29.39 29.51 19.43 19.21 25.31 23.65 21.43 25.79 15.92 15.68 11.89 10.29 14.72 17.34 16.50 14.05 11.94 11.10 8.97 9.15 8.45 8.11 6.53 6.74 3.44 3.88 4.94 9.02 6.26 1.80 2.88 1.47
30.38 36.04 39.54 40.12 38.23 36.59 35.09 33.33 27.94 25.88 21.35 16.99 14.83 12.46 15.34 25.16 27.36 27.91 28.46 30.53 30.69 31.24 30.08 24.49 25.81 21.85 22.71 18.96 14.08 16.62 11.72 11.37 14.60 10.98 9.45 10.73 12.52 12.42 13.33 9.90 9.60 10.31 9.48 8.13 7.89 4.91 4.75 4.54 7.77 4.84 5.09 4.15 5.35 5.21
34.62 36.62 39.37 39.07 36.30 34.48 29.94 30.47 29.51 19.28 16.18 15.12 13.76 19.22 24.54 25.69 25.88 23.50 23.65 28.64 30.50 31.80 30.28 23.84 17.92 16.78 16.78 17.15 15.73 7.06 6.50 12.52 13.12 8.82 4.67 2.24 10.93 12.24 8.90 9.16 9.16 6.58 9.28 6.51 7.72 9.64 8.80 8.66 9.50 9.24 9.63 10.74 8.17 8.17
39.06 38.79 38.80 38.80 38.39 31.82 27.65 27.87 29.49 24.71 18.90 18.87 19.93 22.55 21.42 22.57 23.00 20.82 25.86 25.97 30.37 30.52 28.07 21.07 19.39 19.55 18.96 17.13 16.19 13.91 12.45 15.07 14.44 11.99 5.23 3.78 3.32 9.78 10.38 11.58 11.68 9.65 9.76 7.47 7.16 9.09 9.39 9.66 11.04 11.50 11.01 11.46 9.09 7.93
36.07 36.40 37.59 35.30 34.42 33.77 28.65 26.08 25.40 25.10 23.58 19.68 23.06 24.65 18.65 24.11 21.70 18.01 20.16 27.73 27.39 27.05 24.98 20.52 13.44 11.04 14.67 10.51 14.07 15.96 17.61 18.88 17.84 17.09 15.73 10.92 6.29 13.09 10.45 10.98 11.23 12.99 11.46 9.34 10.33 7.10 8.37 9.88 10.36 12.59 3.78 0.15 -1.17 0.92
34.50 36.86 32.95 33.30 29.88 30.10 28.93 28.12 25.33 24.76 22.78 23.60 23.86 25.00 18.49 14.72 16.29 22.32 23.79 22.23 22.99 21.33 17.98 14.89 14.10 22.04 15.02 14.15 12.45 15.89 16.16 17.89 16.43 15.75 13.91 14.13 12.11 11.92 12.33 11.21 12.72 10.83 11.07 9.80 12.00 9.68 10.19 12.14 10.59 9.39 2.47 -4.02 -1.38 -1.05
35.27 32.31 29.79 29.17 22.91 23.33 21.89 30.27 22.83 24.67 20.51 19.72 25.34 21.28 19.80 18.44 20.19 24.90 18.27 20.60 18.08 14.23 13.02 14.64 13.83 15.03 13.79 9.13 16.38 15.63 14.88 18.21 15.83 15.03 14.46 15.38 14.83 13.46 13.84 12.30 13.95 11.30 11.68 12.32 14.53 12.46 9.65 8.55 8.06 6.71 -0.42 -2.80 -2.78 -6.56
33.82 23.82 22.80 20.52 20.61 10.72 24.48 21.92 27.25 24.83 23.01 21.64 19.65 17.19 16.78 19.33 22.19 16.58 15.59 14.04 11.10 15.75 16.74 13.26 17.34 16.22 17.71 19.04 14.38 14.32 14.39 17.43 15.79 14.35 15.67 15.71 13.77 14.01 15.40 15.34 16.03 15.93 16.49 16.11 16.03 12.17 8.80 6.63 5.37 5.08 -1.66 -7.28 -10.00 -6.74
18.08 15.79 20.87 13.88 23.60 19.86 19.37 15.12 20.19 21.96 13.57 17.25 15.24 10.22 18.48 18.49 10.42 9.22 10.68 10.45 20.67 22.88 21.88 19.75 18.45 18.26 14.87 10.66 11.89 13.43 18.15 18.59 16.71 14.88 13.89 17.73 15.38 15.57 15.31 15.95 16.21 17.12 16.69 10.61 5.05 3.60 -0.94 0.33 4.46 2.91 -0.04 -1.84 2.83 -1.96
9.01 11.57 18.32 17.52 18.31 18.97 18.55 12.28 12.71 13.02 10.74 12.66 15.20 11.59 11.10 8.93 11.93 10.15 13.36 15.50 16.27 21.37 22.21 22.84 22.59 20.50 16.65 17.61 16.26 16.68 17.83 19.27 18.75 15.50 15.68 18.57 17.50 16.24 15.18 14.27 12.75 11.58 14.41 13.58 10.31 8.20 7.14 6.12 5.69 6.01 4.47 4.02 2.38 2.05
12.63 14.57 23.89 27.87 27.21 27.28 21.74 21.64 22.90 17.19 12.99 10.52 7.51 6.10 8.64 6.86 4.68 10.36 15.99 16.78 17.84 19.64 21.01 20.60 24.61 23.57 21.31 18.73 18.61 17.86 19.22 19.24 16.83 16.79 17.77 18.93 18.34 18.94 18.26 15.35 13.85 15.89 14.81 14.25 13.59 13.07 11.97 8.63 7.27 8.39 8.36 4.86 4.57 5.77
18.48 20.31 17.27 18.87 22.33 23.66 21.37 20.48 20.78 18.93 18.29 18.24 15.14 9.73 6.09 8.65 6.33 8.85 12.16 14.50 16.11 18.61 20.78 20.69 21.82 21.48 20.22 18.62 17.14 16.34 13.38 12.04 12.26 13.94 14.18 12.19 8.24 5.62 7.84 9.81 10.64 16.74 14.68 14.85 13.59 10.79 11.03 10.34 8.81 7.52 8.81 9.08 9.29 5.91
19.06 21.75 20.37 12.98 15.10 14.37 14.37 17.21 16.47 16.90 17.20 17.94 13.69 6.58 7.32 11.44 7.66 8.62 10.43 11.97 13.85 18.51 14.76 14.04 12.83 13.72 14.71 14.69 13.99 14.23 15.44 16.50 12.53 7.95 5.57 4.50 4.68 9.57 3.10 3.79 8.91 10.09 10.05 9.15 11.99 11.38 10.71 10.21 9.35 8.22 7.55 7.40 7.59 5.18
14.49 19.24 12.31 8.86 12.16 11.78 10.70 12.98 10.80 10.11 15.09 15.60 16.19 14.05 12.23 8.50 8.48 11.00 9.29 8.91 8.70 9.81 13.30 11.16 10.05 7.93 8.34 10.81 9.92 11.30 10.95 11.08 10.92 13.82 14.27 11.10 12.09 4.89 5.33 4.84 4.46 0.96 4.64 7.72 7.48 9.23 12.65 5.76 6.40 0.51 0.84 -0.16 0.01 1.42
21.99 20.58 16.92 15.02 13.06 8.97 10.79 9.86 8.61 10.41 10.42 8.92 8.24 8.72 8.44 8.79 8.80 8.82 7.40 7.28 9.09 9.20 7.82 7.95 14.27 14.78 13.75 12.84 10.07 8.64 10.43 9.95 7.69 9.34 8.52 6.56 5.13 7.23 4.97 2.34 0.06 3.92 5.43 6.30 5.65 3.18 3.39 -0.66 -1.05 0.71 3.44 2.94 2.96 4.21
17.54 16.21 15.50 13.14 12.47 13.41 12.86 11.13 9.16 7.55 7.76 7.20 5.10 4.65 4.84 3.51 -0.48 3.50 6.09 5.44 5.59 5.49 6.71 7.75 6.09 4.09 8.29 15.91 17.06 16.84 15.13 12.78 11.84 10.87 9.88 7.04 4.80 3.56 6.53 5.66 2.85 3.49 4.38 4.74 2.98 -0.18 -0.08 1.64 1.41 2.82 3.51 4.02 2.95 3.77
10.04 9.96 6.44 7.42 8.74 9.78 11.23 10.89 9.39 7.70 5.67 3.11 0.78 -1.34 -5.47 -5.02 -5.68 -1.43 2.85 5.23 2.58 4.08 5.07 5.93 8.96 9.03 8.67 7.78 7.47 7.85 6.06 3.23 7.54 11.82 10.12 9.82 7.51 8.51 5.88 6.35 4.49 3.86 4.36 3.44 2.20 2.83 2.81 1.88 0.85 0.83 1.56 1.89 2.72 4.12

GFSWCAN_sfc_wetblb_129.txt.gz
Wetbulb
45.46 45.83 45.63 45.52 45.29 45.10 44.57 44.66 45.19 44.56 43.74 43.67 44.26 45.70 45.59 45.30 44.73 41.22 39.36 39.83 36.73 32.61 32.79 36.93 37.76 34.06 33.03 31.83 29.25 31.46 30.71 31.07 30.13 26.99 26.84 26.78 26.73 28.40 27.99 29.47 27.76 25.46 24.30 23.48 24.14 21.27 18.37 30.18 30.62 25.28 28.15 32.69 31.21 30.58
45.40 45.66 45.45 45.42 45.05 44.52 44.21 44.13 44.91 44.35 44.43 43.84 44.60 45.49 45.05 45.00 44.95 42.15 37.46 39.85 39.48 34.79 33.37 37.48 38.39 38.46 37.87 36.95 33.62 32.09 30.71 30.92 32.06 28.12 27.89 29.02 27.70 28.91 27.77 24.40 31.79 25.95 28.94 25.96 26.27 25.62 30.68 31.43 30.31 31.77 31.89 30.04 29.41 29.25
45.15 45.20 45.11 44.96 44.56 44.17 44.39 44.78 44.63 44.39 44.51 43.90 44.86 45.00 44.87 45.19 44.62 41.41 37.95 37.42 36.61 33.62 33.54 35.52 34.88 38.64 39.78 39.50 39.31 32.48 32.50 35.15 33.76 33.95 31.06 30.07 26.84 29.30 25.74 26.39 28.85 30.91 32.46 28.70 27.68 29.67 29.18 30.00 31.04 31.39 31.70 29.60 30.25 29.82
45.43 44.78 44.37 44.52 44.34 44.20 44.07 44.24 44.20 44.27 44.41 44.32 44.77 44.77 44.74 44.50 43.81 41.12 37.17 37.28 36.26 33.93 31.82 32.38 38.78 35.98 40.05 39.83 39.09 38.54 37.61 37.16 35.39 34.23 31.76 30.13 28.03 31.60 28.55 29.51 29.98 31.05 31.39 28.17 28.24 29.86 29.36 29.52 29.94 30.11 31.03 30.96 30.14 28.72
44.84 44.69 44.27 44.26 44.10 44.16 43.99 44.20 43.69 44.11 44.37 44.37 44.37 44.38 44.60 44.02 42.90 40.18 38.77 38.54 38.59 34.95 29.94 30.97 35.18 37.07 39.00 39.31 38.25 38.52 37.10 34.84 32.88 31.86 30.64 29.26 31.27 31.24 30.84 31.32 28.31 31.18 29.06 26.97 25.94 30.19 29.85 29.09 30.50 30.79 29.89 28.71 28.63 27.46
44.33 44.52 44.01 44.11 43.98 44.00 43.68 43.47 43.33 43.97 44.04 44.18 43.91 43.91 42.94 41.23 38.78 36.16 31.93 38.27 40.44 37.79 32.84 28.58 33.33 35.26 37.85 39.07 38.17 37.11 37.01 35.54 34.33 33.01 31.11 30.74 31.79 31.43 27.59 26.19 29.60 32.03 33.06 33.42 29.95 31.33 30.71 30.02 29.19 29.88 29.61 27.39 26.77 26.03
43.84 44.30 44.08 44.04 44.00 43.55 43.24 43.39 43.37 43.98 43.81 43.77 43.58 42.44 42.26 42.16 38.67 33.11 31.93 37.16 42.40 38.98 31.20 28.17 30.17 34.42 38.25 37.70 35.21 37.58 39.17 36.24 35.78 33.04 31.58 31.13 31.10 33.27 27.83 25.04 30.72 32.15 32.70 32.86 33.14 31.08 28.05 28.29 26.18 28.74 27.42 26.52 25.87 24.80
44.04 44.29 44.36 44.19 43.70 43.41 43.51 43.19 43.44 43.35 43.51 43.42 42.22 42.42 42.13 41.79 39.25 36.56 40.80 43.32 40.78 35.32 32.08 26.65 28.16 33.78 38.66 33.22 32.48 34.33 35.73 36.60 34.24 33.02 32.35 30.88 31.62 30.69 25.19 28.61 31.01 31.45 30.67 29.63 28.12 28.90 27.34 26.10 25.85 25.34 26.01 24.86 22.18 21.08
43.56 44.17 44.04 43.85 43.67 43.47 43.42 43.38 43.38 43.44 43.40 41.78 40.76 39.42 35.95 33.18 31.43 37.10 42.77 41.23 39.35 33.39 27.44 26.58 26.93 26.60 36.02 32.44 33.12 33.14 33.29 29.84 31.13 29.60 30.28 30.81 27.80 26.00 27.60 29.74 30.73 30.63 30.17 26.65 26.27 25.70 24.92 23.06 21.73 21.83 21.93 21.74 20.40 19.52
43.95 44.01 43.53 43.04 43.15 43.31 43.06 43.37 43.31 43.46 42.19 39.46 34.51 29.77 24.63 32.04 39.29 41.68 35.59 31.55 31.44 33.80 32.12 27.33 29.39 30.07 33.07 30.73 29.24 30.38 31.97 28.09 24.36 28.26 31.37 28.26 28.30 24.76 26.40 28.90 27.99 29.35 30.15 28.81 25.01 22.54 22.49 21.10 20.72 20.23 19.70 19.80 19.42 18.77
43.54 43.45 43.31 43.20 42.99 42.32 43.11 43.09 42.94 41.29 37.92 32.13 27.56 28.33 33.92 39.59 34.27 30.06 25.03 26.03 28.69 25.70 28.66 28.84 29.60 30.09 33.53 28.59 27.11 29.55 28.70 29.44 22.51 27.49 27.67 25.74 25.05 24.80 25.57 24.41 24.69 25.17 25.98 25.96 26.09 26.52 26.17 24.38 21.47 20.09 19.06 18.77 18.05 17.41
43.51 43.78 43.47 43.22 42.61 43.02 43.11 42.59 40.68 34.00 32.24 32.58 34.85 36.95 34.40 30.28 26.11 22.96 22.53 26.05 25.54 24.48 27.75 27.28 28.32 31.04 33.29 31.72 29.89 30.01 27.09 28.67 22.84 30.41 27.25 22.95 25.39 23.70 23.44 22.15 22.05 22.52 22.64 22.22 23.10 21.98 22.12 21.83 21.25 19.29 17.83 16.71 15.87 14.82
42.06 42.14 42.72 42.51 42.51 43.01 42.48 40.55 39.35 39.33 37.30 32.71 29.43 24.74 23.35 23.97 16.23 16.61 15.65 21.95 22.27 26.26 28.29 28.50 27.80 31.42 32.30 32.04 30.18 29.81 25.51 24.06 29.16 26.09 23.24 25.64 23.31 23.05 22.17 20.89 20.11 21.31 21.15 20.10 19.01 18.58 17.55 15.72 15.98 15.53 12.03 10.89 11.10 7.92
41.21 42.12 42.01 42.02 42.28 42.09 41.15 41.34 40.03 36.06 30.33 23.81 21.06 18.11 16.15 16.44 18.94 20.82 23.72 24.93 26.64 27.66 26.83 27.43 27.76 29.32 28.80 26.75 26.17 23.14 25.95 28.17 21.45 18.68 21.43 24.57 22.18 21.48 21.00 20.46 19.13 17.59 16.51 15.48 13.45 12.35 10.81 10.00 7.04 6.76 7.01 5.38 7.67 8.58
41.03 41.11 41.68 41.85 42.05 41.62 41.48 39.62 37.42 31.46 26.39 21.88 21.46 12.25 18.93 19.91 23.03 26.95 26.29 27.08 28.19 30.65 29.05 28.91 28.77 29.51 26.37 24.13 26.71 23.81 21.00 18.07 20.57 21.06 24.63 21.77 21.69 20.43 19.45 18.87 16.79 14.84 11.85 10.93 10.93 9.58 7.66 7.63 9.30 7.03 4.96 6.89 7.98 4.81
39.20 39.05 38.39 42.26 41.40 41.07 39.59 36.82 33.26 30.71 26.64 23.92 23.47 19.41 20.10 21.93 20.47 22.19 26.25 28.92 31.26 31.80 30.12 31.58 25.75 22.76 24.45 24.15 24.67 22.39 20.17 17.86 22.52 24.61 22.52 21.05 20.09 19.65 18.79 17.30 15.60 13.45 12.44 10.87 10.78 10.52 9.93 9.04 10.37 10.56 6.98 8.01 5.52 8.23
37.02 33.69 39.87 40.74 40.48 39.81 39.12 33.72 29.56 26.63 23.26 22.63 15.48 24.18 25.46 23.80 21.33 23.37 27.05 30.66 33.08 30.57 29.82 30.23 22.17 22.49 26.45 24.87 22.19 25.35 21.24 24.09 24.57 20.86 19.78 21.60 20.05 18.44 16.63 14.65 12.38 11.82 11.36 11.44 10.57 11.38 10.56 10.72 9.90 11.43 11.25 10.20 10.65 10.39
32.66 38.11 39.20 38.67 37.22 36.53 34.94 31.23 27.63 25.56 21.09 18.19 16.11 15.36 23.90 19.50 24.41 26.65 27.68 30.75 31.07 31.65 30.90 28.58 27.89 23.49 20.43 20.69 21.20 24.88 22.61 18.00 18.11 18.91 19.18 18.40 18.25 16.83 16.89 14.65 12.44 12.87 12.41 11.33 11.89 10.46 9.58 9.50 11.79 13.04 12.69 12.33 11.97 12.20
36.39 37.43 38.97 38.56 37.13 33.54 29.61 29.73 28.95 19.15 17.27 18.53 18.07 21.95 26.36 24.15 27.61 26.41 26.65 28.22 31.03 32.19 30.73 26.66 22.58 23.05 23.59 24.60 25.36 22.08 17.76 19.49 20.03 16.43 14.75 11.51 16.11 15.50 13.37 13.08 12.05 12.73 12.10 11.59 12.29 13.17 13.24 13.95 15.72 15.57 15.72 14.91 15.09 15.72
39.31 39.18 39.26 39.34 38.04 29.88 27.51 27.40 29.84 24.78 20.95 21.78 22.21 23.59 23.75 23.34 25.95 26.65 27.10 27.46 29.31 30.37 27.82 25.50 23.87 25.86 25.99 26.67 24.66 25.26 21.19 18.59 16.87 15.83 14.60 13.20 13.86 13.26 13.82 14.10 14.87 14.49 13.32 12.31 13.82 13.12 14.27 14.52 15.37 16.71 17.18 16.69 16.60 16.36
36.05 36.46 37.19 36.01 32.12 31.57 27.79 26.48 25.82 25.59 24.02 21.73 23.75 25.18 21.47 24.12 23.91 23.32 22.69 27.57 26.32 25.62 24.62 25.98 24.59 22.22 16.68 17.61 19.29 20.38 19.70 20.46 20.11 22.04 19.46 15.11 12.44 16.29 14.04 15.02 14.42 15.64 14.79 14.59 14.48 14.31 14.19 16.80 18.20 18.26 17.69 17.54 16.85 16.88
33.00 36.08 31.74 33.08 27.99 29.56 28.29 28.51 26.07 25.71 24.02 24.62 24.56 25.56 20.29 16.84 19.20 22.38 25.07 22.69 23.11 22.79 22.52 22.89 22.50 22.78 22.24 20.00 19.20 20.25 19.53 20.75 19.22 17.47 15.93 15.54 13.86 14.15 14.13 14.72 15.05 14.69 15.36 15.01 15.99 16.04 16.40 17.87 18.29 17.90 17.37 15.27 9.99 13.28
34.22 31.67 29.03 28.44 20.33 21.35 24.03 30.35 22.29 24.76 18.83 19.32 24.85 20.99 18.91 18.49 21.84 26.09 22.40 22.61 20.29 19.13 18.82 18.82 18.42 17.46 18.20 15.70 17.70 18.02 18.16 20.13 19.12 18.34 17.30 18.77 18.40 17.95 16.72 15.59 17.41 15.43 14.94 15.27 17.62 17.32 17.09 15.44 14.59 16.16 14.48 11.11 12.12 12.03
32.49 22.46 16.15 18.19 19.83 12.00 24.53 21.39 26.77 24.59 22.19 20.81 19.99 17.44 18.26 20.40 23.02 19.61 18.51 17.15 17.61 22.36 23.07 22.02 20.92 20.11 20.34 20.09 18.59 18.08 18.97 19.86 18.02 17.22 17.92 17.48 16.18 16.30 17.11 16.94 17.76 17.98 18.55 18.70 17.58 18.03 17.07 15.56 14.01 13.50 11.87 11.42 10.61 11.34
16.92 14.35 18.78 15.95 23.27 20.11 19.41 13.84 17.61 21.82 16.74 18.68 18.86 17.45 19.82 20.93 16.31 14.63 14.77 16.88 19.76 22.81 22.05 22.99 23.29 22.52 20.90 17.83 16.99 18.13 18.70 19.81 18.58 17.03 17.12 19.09 17.59 16.63 16.33 17.26 17.79 18.37 19.67 17.65 15.93 15.54 14.91 13.35 13.27 13.09 11.27 11.88 12.02 9.88
12.70 11.74 18.55 14.03 11.15 17.86 17.43 13.70 17.52 17.16 14.54 14.75 17.82 15.47 16.86 16.64 16.14 13.78 15.37 15.92 17.02 18.69 19.00 19.31 18.84 21.57 22.15 21.44 19.57 18.45 19.29 20.63 20.08 18.45 17.82 19.16 18.46 17.41 16.33 15.31 15.41 16.43 19.14 20.35 18.35 16.57 15.73 12.93 12.67 12.21 11.84 10.29 8.38 11.90
10.84 11.16 22.91 27.14 27.24 27.14 22.41 23.05 23.40 19.47 16.15 14.35 14.47 12.10 14.35 10.28 9.07 13.69 16.25 15.77 15.15 16.63 17.87 20.01 20.66 20.76 23.44 22.87 21.25 20.34 20.55 20.86 19.55 19.21 19.81 20.38 20.16 20.57 19.69 17.46 16.29 19.57 19.04 19.01 18.16 17.10 16.67 13.93 12.83 12.78 13.22 13.48 12.65 11.27
19.32 20.11 16.58 19.07 22.60 23.88 22.08 21.36 20.12 18.83 20.04 19.42 17.22 16.19 13.58 12.29 11.98 9.58 13.06 13.97 12.96 14.12 16.56 20.49 20.36 19.65 20.71 20.94 19.88 18.17 16.08 15.16 15.84 16.66 17.81 17.00 14.80 16.35 16.64 18.69 18.40 18.28 19.79 19.87 20.15 18.70 18.19 16.56 15.35 13.81 13.14 13.21 12.91 11.28
18.99 21.54 19.87 14.15 17.12 18.44 17.56 18.18 17.29 17.60 18.08 20.42 19.17 12.92 10.05 8.95 7.84 7.21 9.38 10.26 12.02 12.56 13.81 13.74 16.30 16.52 17.15 16.57 16.71 16.94 17.66 19.10 18.77 16.19 15.46 16.01 16.02 18.67 15.26 16.12 17.65 17.66 17.57 16.90 13.82 15.93 16.81 15.98 15.08 14.13 13.49 13.86 13.98 12.48
14.73 19.49 13.52 9.84 11.64 12.77 11.35 13.89 13.35 12.96 16.73 17.64 16.48 14.42 10.72 8.34 8.67 10.04 7.97 7.80 7.29 7.52 8.28 10.39 13.93 14.12 13.35 14.19 14.97 16.33 16.38 17.46 18.21 19.83 18.35 17.16 18.53 18.15 14.35 14.92 15.34 14.10 13.59 14.98 15.09 15.93 15.57 12.90 11.99 9.74 9.74 9.25 9.89 8.82
20.97 19.38 16.83 13.64 10.82 10.79 12.02 12.91 12.03 12.71 13.06 12.76 12.34 11.39 7.83 6.74 8.00 8.24 6.41 6.29 7.71 8.18 7.55 6.93 7.10 8.27 7.18 10.01 14.25 15.63 17.05 17.19 16.88 17.02 17.18 17.26 16.01 14.93 12.94 11.63 11.97 11.62 13.00 13.88 13.63 13.60 11.69 11.50 12.59 11.68 10.24 9.28 8.52 8.88
16.75 16.64 15.09 10.99 11.81 12.23 11.00 11.56 11.37 11.47 9.34 10.20 7.89 8.32 7.13 6.01 1.78 3.70 5.93 5.00 5.03 3.72 4.82 4.87 5.10 7.04 8.98 9.53 12.11 12.45 12.11 13.39 14.28 13.53 14.38 15.00 13.56 11.48 11.15 10.60 10.71 11.74 11.92 11.81 12.31 11.24 11.72 11.89 10.50 10.06 9.49 9.01 8.88 9.10
12.84 13.02 11.91 12.44 12.30 12.79 12.67 13.39 12.55 10.51 10.14 8.52 4.98 4.40 1.21 2.60 -0.89 2.62 5.49 5.12 3.20 2.41 2.53 3.88 5.47 7.80 9.41 8.68 8.69 9.74 9.34 9.30 8.58 10.17 7.45 6.91 4.70 8.14 9.70 10.37 11.06 11.55 10.97 10.72 10.52 10.35 9.19 8.94 8.80 8.62 8.98 8.57 7.92 7.80

GFSWCAN_sfc_wetblb_132.txt.gz
Wetbulb
46.20 46.27 45.89 45.60 45.60 45.29 45.31 45.33 45.07 44.52 44.14 44.06 45.29 45.64 45.52 45.15 44.50 45.18 43.52 44.70 44.65 40.25 39.03 41.18 40.46 38.04 37.45 38.41 34.09 36.09 35.02 35.70 36.24 33.06 33.03 33.19 32.29 33.56 32.04 32.40 30.17 29.85 29.15 29.47 28.60 26.01 23.08 34.36 34.25 29.94 29.59 32.95 32.18 32.38
45.24 45.67 45.64 45.41 45.09 44.69 44.77 45.01 44.82 44.60 43.71 44.53 45.76 45.47 45.36 45.35 44.37 44.07 42.50 44.58 45.85 42.47 39.49 42.22 41.52 42.49 42.18 41.30 38.75 37.05 35.87 35.76 37.78 35.65 36.85 36.41 32.75 33.94 32.92 27.41 35.68 28.22 32.86 31.54 30.27 29.18 32.90 35.02 32.74 33.69 32.85 30.38 30.93 31.15
43.96 45.61 45.41 45.16 44.77 44.69 44.45 44.57 44.58 44.66 44.39 45.01 45.59 44.96 45.02 44.93 43.96 44.70 43.14 43.41 45.03 41.14 40.02 40.57 38.29 42.63 44.47 43.51 44.00 37.12 38.47 38.80 38.44 40.60 39.27 37.16 31.73 36.95 30.52 32.03 32.08 32.64 34.22 31.12 31.10 30.47 31.77 32.96 34.03 34.37 33.46 31.51 31.21 31.87
44.36 44.66 45.32 45.04 44.77 44.27 44.10 44.29 44.26 44.62 44.68 45.43 45.13 45.13 44.89 44.26 43.41 44.71 43.06 43.60 44.55 42.13 36.43 35.72 42.23 40.07 43.08 44.55 44.39 44.57 41.75 42.06 40.77 42.14 37.99 36.55 34.11 36.97 34.37 34.72 34.94 35.34 34.69 31.97 30.08 31.36 31.75 32.42 33.12 33.11 31.73 31.98 30.58 30.31
44.46 45.07 44.97 44.59 44.19 43.87 44.16 43.76 43.90 44.34 44.75 45.10 44.92 44.88 44.21 44.15 44.21 44.75 44.64 44.60 43.93 42.10 35.48 36.00 40.19 41.02 42.57 44.41 43.00 43.37 41.97 40.30 39.53 37.18 36.69 34.53 37.38 36.67 37.28 36.69 33.74 36.37 33.09 29.82 30.39 34.01 32.86 31.47 32.79 33.42 31.43 30.53 30.79 29.77
44.65 44.59 44.31 44.01 43.91 44.01 43.79 43.37 43.84 44.20 44.85 44.83 44.75 43.79 42.33 40.96 39.86 43.55 39.72 44.32 44.93 43.74 39.10 33.01 38.55 38.85 41.27 42.89 42.19 41.49 41.46 40.88 40.80 37.87 36.71 37.72 37.04 37.24 32.53 31.77 33.65 35.53 35.96 35.41 32.55 34.35 33.23 32.39 32.10 33.12 31.24 29.85 30.19 29.25
44.44 44.25 44.20 43.92 43.95 43.98 43.67 42.78 43.31 43.98 44.30 44.03 42.89 43.20 43.48 43.98 43.69 38.66 37.14 42.04 43.59 44.53 38.96 33.76 33.84 38.62 41.16 40.86 41.49 41.85 42.36 41.31 40.53 38.50 37.44 37.54 36.57 38.10 34.77 30.82 34.20 34.55 34.96 34.36 34.69 33.07 29.98 31.20 28.71 30.81 30.11 29.07 28.80 28.15
44.15 44.30 43.98 43.93 43.83 43.38 42.75 42.42 42.29 42.53 43.63 43.27 44.18 43.18 42.08 42.54 42.88 39.85 42.90 43.16 44.01 40.44 40.14 33.47 31.90 35.71 40.63 36.79 35.82 41.07 39.14 40.21 38.91 38.07 37.74 36.69 36.52 37.21 30.35 33.18 33.94 34.60 34.90 33.62 33.49 34.24 33.73 30.90 29.61 28.41 29.13 28.46 26.34 25.38
44.16 43.85 43.70 43.38 43.21 42.76 42.46 43.11 42.96 43.44 43.30 42.70 40.75 39.87 40.99 38.85 38.12 39.49 42.30 43.17 44.26 40.47 34.13 34.88 30.98 30.23 39.88 37.56 38.82 38.59 38.48 31.97 38.32 34.40 34.98 35.82 33.94 29.53 32.93 33.10 32.92 34.28 33.64 31.96 32.29 31.78 30.83 29.05 27.64 27.38 27.00 26.41 25.09 24.11
43.79 43.62 43.41 43.22 42.74 43.10 42.71 42.88 42.96 42.57 41.10 39.32 38.90 35.78 32.59 37.21 40.71 42.51 40.26 37.41 37.61 37.02 37.35 33.39 37.26 31.73 37.24 36.99 35.08 34.35 35.51 32.38 28.37 33.14 36.71 31.30 32.21 31.48 33.10 36.08 35.68 35.51 33.50 32.38 29.71 27.35 28.08 26.64 26.45 26.02 25.18 25.48 25.21 24.26
44.08 43.60 43.24 43.34 42.44 42.96 42.89 42.61 42.50 40.52 39.28 37.69 34.18 32.54 35.99 40.43 39.21 36.47 31.72 31.74 32.75 29.67 34.36 34.53 35.88 32.79 39.05 33.78 31.86 36.49 30.38 30.87 25.66 30.38 29.77 29.73 29.95 31.20 32.44 32.61 33.50 34.32 33.85 34.01 33.37 33.44 32.02 30.44 27.33 25.37 23.92 23.59 23.36 22.87
44.38 43.84 43.54 43.45 43.28 43.33 43.26 42.42 40.86 38.97 37.58 37.99 38.37 39.03 39.05 34.86 31.99 28.83 27.39 29.50 29.33 27.32 31.72 32.76 34.83 36.34 36.04 40.69 34.71 33.62 27.92 30.92 25.01 33.77 29.66 27.34 33.51 30.72 30.73 28.88 28.14 30.17 31.83 30.82 31.37 29.79 29.48 28.17 27.50 25.56 23.86 22.45 21.66 20.76
43.51 43.43 43.31 43.02 43.34 43.24 42.27 40.73 39.83 40.63 40.55 39.35 35.57 31.60 31.41 29.06 23.00 22.44 20.29 24.81 26.38 30.74 30.64 32.90 32.08 35.00 36.66 38.27 32.97 31.71 26.93 28.14 34.87 27.87 26.60 33.00 30.47 29.29 29.92 28.95 27.91 29.29 28.63 27.61 26.55 26.29 25.21 23.80 23.50 22.44 19.49 18.09 17.12 15.55
43.28 42.78 42.65 43.04 42.86 41.86 40.99 41.25 40.87 38.15 37.88 31.93 28.45 21.92 24.64 22.13 24.34 26.16 27.71 29.12 31.60 32.56 31.85 34.54 32.18 34.53 36.58 32.44 31.36 26.99 30.88 31.16 25.24 23.82 26.06 35.03 29.83 28.27 28.86 28.44 26.91 25.14 24.15 23.57 22.07 20.81 18.38 16.67 16.03 16.13 16.01 15.88 14.73 13.66
42.92 42.56 42.36 42.40 41.75 41.68 41.47 39.57 37.73 39.29 34.98 28.71 28.00 21.72 24.05 27.55 29.81 30.05 31.50 32.61 33.36 34.16 33.83 33.98 35.15 36.77 33.14 30.30 31.39 28.99 25.42 23.44 25.90 27.32 33.86 34.28 30.05 27.79 26.30 25.70 24.78 22.18 19.50 19.08 18.87 17.01 15.35 14.17 14.76 14.12 14.03 16.47 16.17 13.10
42.04 41.21 39.01 41.12 41.76 40.62 39.25 39.14 39.37 38.26 32.92 29.63 27.42 25.51 27.85 28.99 29.17 30.77 31.16 31.46 35.29 34.49 36.63 37.09 32.17 31.01 29.64 30.47 26.64 25.42 24.22 23.72 30.23 34.59 34.97 30.43 27.32 26.79 25.70 24.97 23.18 21.29 19.80 18.88 18.56 17.16 16.11 15.58 15.96 16.72 15.69 16.19 14.67 15.17
38.72 34.61 40.55 40.75 40.07 39.26 39.48 39.42 37.52 30.91 28.86 26.48 26.59 29.62 29.48 30.01 29.10 30.19 32.18 32.07 35.31 34.75 32.03 33.34 28.11 26.38 31.35 27.63 25.63 30.00 28.01 33.39 35.73 34.25 32.99 30.75 27.72 26.43 25.16 22.93 19.79 18.84 18.90 18.98 18.10 17.82 17.32 18.34 17.40 16.05 15.49 16.10 16.62 16.82
33.87 39.00 40.54 40.20 40.29 39.00 37.51 36.40 32.53 29.77 24.99 27.80 28.34 28.29 29.05 31.86 31.85 32.12 33.53 34.48 33.82 33.45 33.95 30.44 33.01 27.58 27.16 24.67 27.80 33.12 34.93 33.76 31.95 31.91 31.47 28.57 28.25 26.17 24.80 22.99 19.44 19.37 19.34 18.34 17.85 17.61 17.20 15.83 16.88 18.33 19.13 17.98 18.06 17.70
36.64 37.92 39.25 38.87 38.52 36.86 33.11 32.93 33.62 25.93 27.01 29.09 28.66 29.26 29.88 31.56 33.16 32.83 33.64 34.19 34.54 34.01 33.88 32.60 29.59 28.55 29.75 33.54 35.37 36.71 34.55 33.54 32.97 28.69 27.27 25.01 26.28 23.91 23.04 21.51 19.51 19.72 18.98 18.26 18.61 19.61 19.57 18.99 21.71 21.98 21.66 20.17 20.76 21.35
39.08 39.02 38.78 38.76 38.41 34.46 29.09 30.25 35.26 29.07 26.63 29.23 30.71 28.39 31.03 32.12 32.68 30.50 32.05 32.66 32.51 32.42 30.59 28.95 31.53 34.99 35.91 37.17 36.05 37.06 35.64 32.77 29.65 27.24 26.29 24.88 25.10 21.87 22.86 21.45 22.34 21.95 20.39 20.16 20.70 20.37 20.77 20.37 21.76 22.22 22.49 21.89 22.10 21.88
37.55 37.55 38.12 38.30 35.91 34.38 31.87 30.60 29.33 30.03 28.59 28.80 29.94 30.48 29.96 31.20 31.13 31.11 31.06 32.04 29.94 28.80 30.38 34.53 34.75 34.50 29.23 29.03 29.96 30.52 30.89 30.38 31.99 33.78 32.54 26.39 25.50 25.58 24.17 24.16 23.50 22.49 21.91 21.23 21.04 20.38 20.58 21.90 22.36 22.57 23.67 23.42 23.83 24.62
36.39 36.09 37.01 36.91 32.03 31.65 30.57 32.67 30.45 31.01 29.91 28.24 29.38 29.92 28.55 28.07 28.76 29.54 30.94 28.95 29.19 30.78 28.67 28.35 29.29 27.90 28.92 30.07 28.83 27.77 27.74 27.47 26.79 25.59 25.00 25.48 23.82 24.68 23.82 24.33 22.65 22.43 22.85 22.80 22.84 22.43 21.89 23.42 24.18 23.80 23.95 24.52 23.03 23.31
35.80 35.40 33.10 31.36 26.21 26.73 25.95 32.28 27.11 28.34 24.49 25.24 27.15 24.65 25.95 26.77 28.42 29.76 25.71 26.91 27.30 27.72 26.86 26.01 25.93 25.68 25.13 26.17 24.16 24.83 24.42 25.94 28.72 28.78 26.46 27.75 27.97 27.13 26.15 24.78 24.78 23.69 22.66 23.18 24.46 24.28 23.49 23.43 22.77 23.86 24.45 23.75 22.74 22.20
34.90 29.77 25.87 24.79 26.39 22.76 26.84 25.71 29.07 27.03 26.81 25.17 24.12 19.95 23.01 26.16 27.38 25.81 24.00 25.58 26.18 27.61 25.88 25.61 26.35 26.30 28.20 26.36 27.98 28.37 27.49 27.49 28.47 27.30 27.25 26.30 25.46 25.32 25.77 24.96 24.84 25.48 25.50 25.60 23.73 23.96 24.11 23.78 22.73 22.69 23.17 21.91 21.90 21.56
24.39 21.85 24.96 19.34 24.93 22.87 22.32 23.37 24.35 24.35 21.49 22.76 21.57 22.76 24.63 26.13 23.78 22.77 21.78 23.19 24.88 23.90 23.71 24.69 24.70 25.04 24.60 26.29 28.54 28.21 24.13 26.35 26.73 26.38 25.97 26.40 26.63 25.09 23.64 24.13 24.45 24.92 25.62 24.43 22.67 23.17 23.70 24.19 23.27 22.90 22.14 21.58 21.36 20.29
19.28 21.76 21.58 22.16 23.01 22.35 22.78 20.92 21.78 22.71 22.85 21.79 22.85 23.65 25.01 24.14 20.57 19.67 20.67 22.04 22.39 22.16 20.69 20.55 21.33 22.48 23.77 26.09 25.18 27.00 27.19 27.07 26.27 25.54 26.48 25.56 25.52 25.61 24.34 22.27 21.78 22.37 24.70 25.31 24.84 23.42 23.11 22.28 22.35 21.68 21.56 21.12 19.75 21.12
19.27 21.91 26.27 28.52 28.38 28.30 26.10 26.63 26.61 24.81 21.97 21.07 23.00 21.21 21.84 18.59 18.72 18.25 20.75 18.25 18.11 19.70 19.46 20.70 21.31 22.04 22.71 24.85 27.00 26.64 26.62 26.62 25.71 25.77 26.19 26.57 25.89 25.95 26.00 24.48 22.76 25.65 25.30 24.70 25.38 24.79 24.18 22.82 22.17 21.96 21.82 23.33 22.77 20.48
25.05 25.49 22.49 26.10 26.04 27.45 25.04 25.14 24.15 23.42 24.92 23.90 23.09 20.39 18.96 18.23 16.73 14.88 16.37 16.64 16.13 17.39 19.39 22.18 23.03 22.48 22.43 22.76 24.62 25.43 24.60 23.94 23.42 24.09 24.38 24.17 24.61 25.75 24.83 26.09 25.64 23.05 26.11 25.90 25.75 25.17 25.35 25.12 24.06 23.40 22.98 22.89 22.70 22.81
24.81 26.81 25.62 21.01 23.04 24.52 24.70 24.35 24.85 22.86 22.13 25.23 24.78 19.46 14.42 11.72 11.59 11.22 13.33 13.54 16.02 17.20 17.05 17.27 20.09 22.79 24.26 24.14 23.37 23.84 25.08 25.53 23.42 20.22 20.58 23.74 24.67 25.56 25.26 25.70 26.17 26.00 26.51 25.66 22.89 25.04 25.33 25.32 24.75 24.67 24.17 23.51 23.94 23.05
22.92 26.31 23.37 20.23 20.33 22.02 22.83 21.78 22.24 21.52 21.24 21.24 19.36 15.87 13.12 11.77 11.34 13.16 12.63 13.16 12.87 13.01 14.28 15.60 16.15 16.76 17.62 20.53 21.97 22.33 23.24 24.02 23.97 23.94 23.89 23.35 24.11 24.57 24.58 25.32 25.60 26.07 26.24 26.16 25.11 22.89 20.32 21.10 18.79 19.11 19.55 18.98 19.62 18.92
24.89 24.32 22.12 21.51 20.30 20.87 20.53 20.58 20.80 21.21 21.22 19.60 19.54 17.09 12.31 10.88 11.74 11.81 10.11 11.28 12.55 12.99 12.30 11.87 13.93 14.34 13.70 14.05 15.93 18.71 20.51 21.98 21.52 21.96 22.03 24.00 24.26 23.98 22.51 22.16 24.08 24.52 24.31 23.48 22.88 22.31 21.07 20.25 20.84 19.85 18.98 18.17 17.21 16.49
22.72 21.01 20.26 17.09 18.12 18.73 19.72 20.57 20.73 20.38 19.01 18.64 15.16 14.40 12.62 12.45 7.52 8.71 9.11 9.58 9.76 8.67 8.34 9.60 9.65 10.69 13.06 14.36 16.01 17.09 14.63 17.49 17.84 18.11 18.29 20.33 21.40 19.46 19.41 19.56 20.05 21.65 21.65 20.55 20.58 19.73 18.99 19.26 19.11 18.29 17.25 15.23 14.81 14.76
17.98 18.88 18.35 17.94 16.70 16.50 17.92 18.91 17.41 15.27 16.37 13.86 10.65 10.60 8.70 9.31 3.24 6.57 10.89 10.06 8.09 7.55 7.06 8.08 9.60 11.38 12.85 13.02 12.96 14.57 14.90 15.89 14.01 13.13 12.23 11.55 10.29 14.65 19.12 19.80 19.86 19.16 18.65 18.61 18.09 17.49 16.24 15.44 15.09 14.66 14.53 13.81 13.50 13.23